[[{"header":{"parameterUnit":"m.s-1","parameterCategory":1,"la1":30.6,"la2":29.2853,"lo1":-89.7004,"lo2":-87.6739,"dy":0.0162,"dx":0.0183,"nx":112,"ny":82,"refTime":"2025-03-15T18:00:00:Z","depth":0,"parameterNumber":2,"parameterNumberName":"U-component_of_WINDS"},"data":[0.0,0.0,0.0,0.0,0.0,0.0,0.0,0.0,0.0,0.0,0.0,0.0,0.0,0.0,0.0,0.0,0.0,0.0,0.0,0.0,0.0,0.0,0.0,0.0,0.0,0.0,0.0,0.0,0.0,0.0,0.0,0.0,0.0,0.0,0.0,0.0,0.0,0.0,0.0,0.0,0.0,0.0,0.0,0.0,0.0,0.0,0.0,0.0,0.0,0.0,0.0,0.0,0.0,0.0,0.0,0.0,0.0,0.0,0.0,0.0,0.0,0.0,0.0,0.0,0.0,0.0,0.0,0.0,0.0,0.0,0.0,0.0,0.0,0.0,0.0,0.0,0.0,0.0,0.0,0.0,0.0,0.0,0.0,0.0,0.0,0.0,0.0,0.0,0.0,0.0,-5.7148,-5.7646,-5.9692,-6.0962,-6.0873,-6.0282,-5.8667,-5.5718,0.0,0.0,0.0,0.0,0.0,0.0,0.0,0.0,0.0,0.0,0.0,0.0,0.0,0.0,0.0,0.0,0.0,0.0,0.0,0.0,0.0,0.0,0.0,0.0,0.0,0.0,0.0,0.0,0.0,0.0,0.0,0.0,0.0,0.0,0.0,0.0,0.0,0.0,0.0,0.0,0.0,0.0,0.0,0.0,0.0,0.0,0.0,0.0,0.0,0.0,0.0,0.0,0.0,0.0,0.0,0.0,0.0,0.0,0.0,0.0,0.0,0.0,0.0,0.0,0.0,0.0,0.0,0.0,0.0,0.0,0.0,0.0,0.0,0.0,0.0,0.0,0.0,0.0,0.0,0.0,0.0,0.0,0.0,0.0,0.0,0.0,0.0,0.0,0.0,0.0,0.0,0.0,0.0,0.0,0.0,0.0,0.0,0.0,0.0,0.0,0.0,0.0,0.0,0.0,-5.5361,-5.9284,-6.0479,-6.0782,-6.0262,-5.9573,-5.8141,-5.5683,0.0,0.0,0.0,0.0,0.0,0.0,0.0,0.0,0.0,0.0,0.0,0.0,0.0,0.0,0.0,0.0,0.0,0.0,0.0,0.0,0.0,0.0,0.0,0.0,0.0,0.0,0.0,0.0,0.0,0.0,0.0,0.0,0.0,0.0,0.0,0.0,0.0,0.0,0.0,0.0,0.0,0.0,0.0,0.0,0.0,0.0,0.0,0.0,0.0,0.0,0.0,0.0,0.0,0.0,0.0,0.0,0.0,0.0,0.0,0.0,0.0,0.0,0.0,0.0,0.0,0.0,0.0,0.0,0.0,0.0,0.0,0.0,0.0,0.0,0.0,0.0,0.0,0.0,0.0,0.0,0.0,0.0,0.0,0.0,0.0,0.0,0.0,0.0,0.0,0.0,0.0,0.0,0.0,0.0,0.0,0.0,0.0,0.0,0.0,0.0,0.0,0.0,0.0,-5.4425,-5.5894,-5.9685,-6.0356,-6.0419,-6.0139,-5.9791,-5.8421,-5.5683,-5.4384,0.0,0.0,0.0,0.0,0.0,0.0,0.0,0.0,0.0,0.0,0.0,0.0,0.0,0.0,0.0,0.0,0.0,0.0,0.0,0.0,0.0,0.0,0.0,0.0,0.0,0.0,0.0,0.0,0.0,0.0,0.0,0.0,0.0,0.0,0.0,0.0,0.0,0.0,0.0,0.0,0.0,0.0,0.0,0.0,0.0,0.0,0.0,0.0,0.0,0.0,0.0,0.0,0.0,0.0,0.0,0.0,0.0,0.0,0.0,0.0,0.0,0.0,0.0,0.0,0.0,0.0,0.0,0.0,0.0,0.0,0.0,0.0,0.0,0.0,0.0,0.0,0.0,0.0,0.0,0.0,0.0,0.0,0.0,0.0,0.0,0.0,0.0,0.0,0.0,0.0,0.0,0.0,0.0,0.0,0.0,0.0,0.0,0.0,0.0,0.0,0.0,0.0,-5.6245,-5.7509,-5.9861,-6.0107,-6.0107,-6.0107,-5.958,-5.8105,-5.5402,-5.3436,0.0,0.0,0.0,0.0,0.0,0.0,0.0,0.0,0.0,0.0,0.0,0.0,0.0,0.0,0.0,0.0,0.0,0.0,0.0,0.0,0.0,0.0,0.0,0.0,0.0,0.0,0.0,0.0,0.0,0.0,0.0,0.0,0.0,0.0,0.0,0.0,0.0,0.0,0.0,0.0,0.0,0.0,0.0,0.0,0.0,0.0,0.0,0.0,0.0,0.0,0.0,0.0,0.0,0.0,0.0,0.0,0.0,0.0,0.0,0.0,0.0,0.0,0.0,0.0,0.0,0.0,0.0,0.0,0.0,0.0,0.0,0.0,0.0,0.0,0.0,0.0,0.0,0.0,0.0,0.0,0.0,0.0,0.0,0.0,0.0,0.0,0.0,0.0,0.0,0.0,0.0,0.0,0.0,0.0,0.0,0.0,0.0,0.0,0.0,0.0,0.0,0.0,-5.7158,-5.9861,-6.0072,-6.0107,-6.0107,-6.0107,-5.8105,-5.6139,-5.4489,-5.1575,0.0,0.0,0.0,0.0,0.0,0.0,0.0,0.0,0.0,0.0,0.0,0.0,0.0,0.0,0.0,0.0,0.0,0.0,0.0,0.0,0.0,0.0,0.0,0.0,0.0,0.0,0.0,0.0,0.0,0.0,0.0,0.0,0.0,0.0,0.0,0.0,0.0,0.0,0.0,0.0,0.0,0.0,0.0,0.0,0.0,0.0,0.0,0.0,0.0,0.0,0.0,0.0,0.0,0.0,0.0,0.0,0.0,0.0,0.0,0.0,0.0,0.0,0.0,0.0,0.0,0.0,0.0,0.0,0.0,0.0,0.0,0.0,0.0,0.0,0.0,0.0,0.0,0.0,0.0,0.0,0.0,0.0,0.0,0.0,0.0,0.0,0.0,0.0,0.0,0.0,0.0,0.0,0.0,0.0,0.0,0.0,0.0,0.0,0.0,0.0,0.0,0.0,-5.5964,-5.8492,-5.9931,-6.0107,-6.0107,-6.0107,-5.8878,-5.7017,-5.4454,0.0,0.0,0.0,0.0,0.0,0.0,0.0,0.0,0.0,0.0,0.0,0.0,0.0,0.0,0.0,0.0,0.0,0.0,0.0,0.0,0.0,0.0,0.0,0.0,0.0,0.0,0.0,0.0,0.0,0.0,0.0,0.0,0.0,0.0,0.0,0.0,0.0,0.0,0.0,0.0,0.0,0.0,0.0,0.0,0.0,0.0,0.0,0.0,0.0,0.0,0.0,0.0,0.0,0.0,0.0,0.0,0.0,0.0,0.0,0.0,0.0,0.0,0.0,0.0,0.0,0.0,0.0,0.0,0.0,0.0,0.0,0.0,0.0,0.0,0.0,0.0,0.0,0.0,0.0,0.0,0.0,0.0,0.0,0.0,0.0,0.0,0.0,0.0,0.0,0.0,0.0,0.0,0.0,0.0,0.0,0.0,0.0,0.0,0.0,0.0,0.0,0.0,-5.3008,-5.5823,-5.8316,-5.9931,-6.0107,-6.0107,-6.0107,-5.8737,-5.6771,-5.4103,0.0,0.0,0.0,0.0,0.0,0.0,0.0,0.0,0.0,0.0,0.0,0.0,0.0,0.0,0.0,0.0,0.0,0.0,0.0,0.0,0.0,0.0,0.0,0.0,0.0,0.0,0.0,0.0,0.0,0.0,0.0,0.0,0.0,0.0,0.0,0.0,0.0,0.0,0.0,0.0,0.0,0.0,0.0,0.0,0.0,0.0,0.0,0.0,0.0,0.0,0.0,0.0,0.0,0.0,0.0,0.0,0.0,0.0,0.0,0.0,0.0,0.0,0.0,0.0,0.0,0.0,0.0,0.0,0.0,0.0,0.0,0.0,0.0,0.0,0.0,0.0,0.0,0.0,0.0,0.0,0.0,0.0,0.0,0.0,0.0,0.0,0.0,0.0,0.0,0.0,0.0,0.0,0.0,0.0,0.0,0.0,0.0,0.0,0.0,0.0,0.0,0.0,-5.3218,-5.7228,-6.0072,-6.0107,-6.0107,-6.0107,-6.0072,-5.7298,-5.484,0.0,0.0,0.0,0.0,0.0,0.0,0.0,0.0,0.0,0.0,0.0,0.0,0.0,0.0,0.0,0.0,0.0,0.0,0.0,0.0,0.0,0.0,0.0,0.0,0.0,0.0,0.0,0.0,0.0,0.0,0.0,0.0,0.0,0.0,0.0,0.0,0.0,0.0,0.0,0.0,0.0,0.0,0.0,0.0,0.0,0.0,0.0,0.0,0.0,0.0,0.0,0.0,0.0,0.0,0.0,0.0,0.0,0.0,0.0,0.0,0.0,0.0,0.0,0.0,0.0,0.0,0.0,0.0,0.0,0.0,0.0,0.0,0.0,0.0,0.0,0.0,0.0,0.0,0.0,0.0,0.0,0.0,0.0,0.0,0.0,0.0,0.0,0.0,0.0,0.0,0.0,0.0,0.0,0.0,0.0,0.0,0.0,0.0,0.0,0.0,0.0,0.0,0.0,-5.3148,-5.6771,-5.951,-6.0036,-6.0107,-5.9896,-5.9369,-5.7438,-5.5156,-5.2523,0.0,0.0,0.0,0.0,0.0,0.0,0.0,0.0,0.0,0.0,0.0,0.0,0.0,0.0,0.0,0.0,0.0,0.0,0.0,0.0,0.0,0.0,0.0,0.0,0.0,0.0,0.0,0.0,0.0,0.0,0.0,0.0,0.0,0.0,0.0,0.0,0.0,0.0,0.0,0.0,0.0,0.0,0.0,0.0,0.0,0.0,0.0,0.0,0.0,0.0,0.0,0.0,0.0,0.0,0.0,0.0,0.0,0.0,0.0,0.0,0.0,0.0,0.0,0.0,0.0,0.0,0.0,0.0,0.0,0.0,0.0,0.0,0.0,0.0,0.0,0.0,0.0,0.0,0.0,0.0,0.0,0.0,0.0,0.0,0.0,0.0,0.0,0.0,0.0,0.0,0.0,0.0,0.0,0.0,0.0,0.0,0.0,0.0,0.0,0.0,0.0,0.0,-5.3113,-5.6596,-5.9299,-6.0001,-5.9826,-5.9475,-5.9053,-5.7263,-5.4981,-5.2207,0.0,0.0,0.0,0.0,0.0,0.0,0.0,0.0,0.0,0.0,0.0,0.0,0.0,0.0,0.0,0.0,0.0,0.0,0.0,0.0,0.0,0.0,0.0,0.0,0.0,0.0,0.0,0.0,0.0,0.0,0.0,0.0,0.0,0.0,0.0,0.0,0.0,0.0,0.0,0.0,0.0,0.0,0.0,0.0,0.0,0.0,0.0,0.0,0.0,0.0,0.0,0.0,0.0,0.0,0.0,0.0,0.0,0.0,0.0,0.0,0.0,0.0,0.0,0.0,0.0,0.0,0.0,0.0,0.0,0.0,0.0,0.0,0.0,0.0,0.0,0.0,0.0,0.0,0.0,0.0,0.0,0.0,0.0,0.0,0.0,0.0,0.0,0.0,0.0,0.0,0.0,0.0,0.0,0.0,0.0,0.0,0.0,0.0,0.0,0.0,0.0,0.0,-5.3113,-5.6526,-5.9194,-5.9931,-5.9405,-5.8948,-5.8808,-5.6701,-5.4419,-5.2067,0.0,0.0,0.0,0.0,0.0,0.0,0.0,0.0,0.0,0.0,0.0,0.0,0.0,0.0,0.0,0.0,0.0,0.0,0.0,0.0,0.0,0.0,0.0,0.0,0.0,0.0,0.0,0.0,0.0,0.0,0.0,0.0,0.0,0.0,0.0,0.0,0.0,0.0,0.0,0.0,0.0,0.0,0.0,0.0,0.0,0.0,0.0,0.0,0.0,0.0,0.0,0.0,0.0,0.0,0.0,0.0,0.0,0.0,0.0,0.0,-5.4832,-5.4162,0.0,0.0,0.0,0.0,0.0,0.0,0.0,0.0,0.0,0.0,0.0,0.0,0.0,0.0,0.0,0.0,0.0,0.0,0.0,0.0,0.0,0.0,0.0,0.0,0.0,0.0,0.0,0.0,0.0,0.0,0.0,0.0,0.0,0.0,0.0,0.0,0.0,0.0,0.0,0.0,-5.3043,-5.6034,-5.8351,-5.9159,-5.9089,-5.8492,-5.7228,-5.5543,-5.3576,-5.1259,-4.8345,0.0,0.0,0.0,0.0,0.0,0.0,0.0,0.0,0.0,0.0,0.0,0.0,0.0,0.0,0.0,0.0,0.0,0.0,0.0,0.0,0.0,0.0,0.0,0.0,0.0,0.0,0.0,0.0,0.0,0.0,0.0,0.0,0.0,0.0,0.0,0.0,0.0,0.0,0.0,0.0,0.0,0.0,0.0,0.0,0.0,0.0,0.0,0.0,0.0,0.0,0.0,0.0,0.0,0.0,0.0,0.0,0.0,0.0,0.0,-5.5545,-5.4944,0.0,0.0,0.0,0.0,0.0,0.0,0.0,0.0,0.0,0.0,0.0,0.0,0.0,0.0,0.0,0.0,0.0,0.0,0.0,0.0,0.0,0.0,0.0,0.0,0.0,0.0,0.0,0.0,0.0,0.0,0.0,0.0,0.0,0.0,0.0,0.0,0.0,0.0,0.0,0.0,-5.2453,-5.5332,-5.7544,-5.8351,-5.807,-5.7509,-5.6666,-5.484,-5.3085,-5.154,-4.8521,0.0,0.0,0.0,0.0,0.0,0.0,0.0,0.0,0.0,0.0,0.0,0.0,0.0,0.0,0.0,0.0,0.0,0.0,0.0,0.0,0.0,0.0,0.0,0.0,0.0,0.0,0.0,0.0,0.0,0.0,0.0,0.0,0.0,0.0,0.0,0.0,0.0,0.0,0.0,0.0,0.0,0.0,0.0,0.0,0.0,0.0,0.0,0.0,0.0,0.0,0.0,0.0,0.0,-5.6675,-5.707,-5.826,-5.7763,-5.7261,-5.6743,-5.6687,-5.6194,-5.5354,-5.456,0.0,0.0,0.0,0.0,0.0,0.0,0.0,0.0,0.0,0.0,0.0,0.0,0.0,0.0,0.0,0.0,0.0,0.0,0.0,0.0,0.0,0.0,-5.2046,-5.177,-5.2183,-5.1671,-4.8321,0.0,0.0,0.0,0.0,0.0,0.0,0.0,0.0,0.0,0.0,0.0,-5.1926,-5.47,-5.6842,-5.7509,-5.6877,-5.635,-5.621,-5.4208,-5.2628,-5.1856,-4.9012,-4.7046,0.0,0.0,0.0,0.0,0.0,0.0,0.0,0.0,0.0,0.0,0.0,0.0,0.0,0.0,0.0,0.0,0.0,0.0,0.0,0.0,0.0,0.0,0.0,0.0,0.0,0.0,0.0,0.0,0.0,0.0,0.0,0.0,-5.9012,-5.9012,0.0,0.0,0.0,0.0,0.0,0.0,0.0,0.0,0.0,0.0,0.0,0.0,0.0,-5.7042,-5.7519,-5.8217,-5.8671,-5.8891,-5.9501,-5.9627,-5.9382,-5.9305,-5.8984,-5.8545,-5.8545,0.0,-5.4632,-5.452,0.0,0.0,0.0,0.0,0.0,0.0,0.0,0.0,0.0,0.0,0.0,0.0,0.0,0.0,0.0,0.0,0.0,0.0,0.0,0.0,0.0,0.0,-5.5701,-5.4391,-5.4149,-5.3701,-5.1873,-5.005,-4.8499,-4.7569,-4.7017,-4.6504,0.0,0.0,0.0,0.0,0.0,0.0,-5.1926,-5.47,-5.6631,-5.6736,-5.6104,-5.5367,-5.4665,-5.312,-5.1856,-5.1084,-4.8731,-4.7046,-4.6214,-4.4003,0.0,0.0,0.0,0.0,0.0,0.0,0.0,0.0,0.0,0.0,0.0,0.0,0.0,0.0,0.0,0.0,0.0,0.0,0.0,0.0,0.0,0.0,0.0,0.0,0.0,0.0,0.0,0.0,0.0,-5.853,-5.8875,-5.8426,-5.7736,-5.7116,0.0,0.0,0.0,0.0,0.0,0.0,0.0,0.0,0.0,-5.7446,-5.7923,-5.8327,-5.8694,-5.9465,-6.0126,-6.0566,-6.0896,-6.1178,-6.139,-6.1042,-6.0791,-6.0568,-6.0214,-5.91,-5.7495,-5.6277,-5.4874,-5.3425,0.0,0.0,0.0,0.0,-5.2114,-5.2459,-5.2977,-5.3149,-5.308,-5.2563,0.0,0.0,0.0,0.0,0.0,0.0,0.0,-5.1774,-5.277,-5.4563,-5.6081,-5.5839,-5.5805,-5.5495,-5.4325,-5.2701,-5.0804,-4.8706,-4.8769,-4.8549,-4.6664,-4.6369,0.0,0.0,0.0,-5.1072,-5.1899,-5.4349,-5.5823,-5.5367,-5.5016,-5.4524,-5.3752,-5.2664,-5.1856,-5.154,-4.9328,-4.7889,-4.7573,-4.5326,-4.3535,0.0,0.0,0.0,0.0,0.0,0.0,0.0,0.0,0.0,0.0,0.0,0.0,0.0,0.0,0.0,0.0,0.0,0.0,0.0,0.0,0.0,0.0,0.0,0.0,0.0,0.0,0.0,0.0,-5.8254,-5.853,-5.7978,-5.7426,-5.6836,0.0,0.0,0.0,0.0,0.0,0.0,-5.8537,-5.8437,-5.851,-5.8914,-5.9501,-5.9918,-6.0102,-6.0713,-6.13,-6.1924,-6.1924,-6.2218,-6.278,-6.2334,-6.2032,-6.1869,-6.135,-6.0796,-6.0086,-5.8122,-5.645,-5.5012,-5.4253,-5.3494,-5.2873,-5.346,-5.3804,-5.4115,-5.5219,-5.5598,-5.5462,-5.477,-5.377,-5.2394,-5.0292,0.0,0.0,0.0,0.0,-5.2459,-5.4563,-5.5667,-5.6357,-5.6943,-5.6943,-5.6598,-5.577,-5.4598,-5.2908,-5.0188,-5.0292,-5.0103,-4.7842,-4.728,0.0,-4.7779,-4.9686,-5.1325,-5.2179,-5.3998,-5.4981,-5.4384,-5.3963,-5.3506,-5.2944,-5.2172,-5.1716,-5.1716,-4.989,-4.8731,-4.8591,-4.673,-4.4975,-4.343,0.0,0.0,0.0,0.0,0.0,0.0,0.0,0.0,0.0,0.0,0.0,0.0,0.0,0.0,0.0,0.0,0.0,0.0,0.0,0.0,0.0,0.0,0.0,0.0,0.0,0.0,0.0,0.0,0.0,-5.7909,-5.7874,0.0,0.0,0.0,0.0,-5.9381,-5.9176,-5.9394,-6.0236,-5.9575,-5.9832,-6.1374,-6.1447,-6.1851,-6.2597,-6.2633,-6.267,-6.2768,-6.2768,-6.2768,-6.278,-6.2755,-6.2438,-6.1897,-6.1869,-6.1472,-6.0754,-5.9373,-5.7977,-5.6598,-5.5805,-5.5046,-5.4391,-5.4425,-5.4908,-5.5497,-5.5566,-5.5598,-5.5839,-5.7219,-5.6184,-5.4115,-5.2498,-5.1563,0.0,0.0,-5.3184,-5.4701,-5.6288,-5.7219,-5.7805,-5.784,-5.7322,-5.6598,-5.577,-5.5012,-5.3977,-5.2326,-5.0976,-4.9855,-4.9298,0.0,-4.8355,-4.9442,-5.0943,-5.2214,-5.3043,-5.3857,-5.4349,-5.4314,-5.3015,-5.2074,-5.2039,-5.1365,-5.0943,-5.0943,-5.0101,-4.9328,-4.8626,-4.7748,-4.6555,-4.501,-4.35,0.0,0.0,0.0,0.0,0.0,0.0,0.0,0.0,0.0,0.0,0.0,0.0,0.0,0.0,0.0,0.0,0.0,0.0,0.0,0.0,0.0,0.0,0.0,0.0,0.0,0.0,0.0,0.0,-5.8668,-5.8633,0.0,-5.8464,-5.8179,-5.8459,-5.9526,-6.0005,-6.0514,-6.1129,-6.141,-6.1777,-6.2365,-6.2365,-6.2511,-6.278,-6.278,-6.278,-6.278,-6.278,-6.278,-6.278,-6.278,-6.2679,-6.2464,-6.2464,-6.2112,-6.1492,-6.1042,-5.9769,-5.8078,-5.735,-5.6633,-5.6046,-5.6529,-5.6874,-5.715,-5.7633,-5.7805,-5.7667,-5.6736,-5.5563,-5.4218,-5.2701,-5.239,-5.2632,-5.2908,-5.4046,-5.5357,-5.5908,-5.6598,-5.7081,-5.6564,-5.6318,-5.6001,-5.524,-5.4953,-5.4634,-5.4109,-5.2701,-5.128,-5.0161,-4.9381,-4.9017,-4.9511,-5.0484,-5.1465,-5.2348,-5.312,-5.3401,-5.2874,-5.232,-5.1821,-5.1329,-5.1049,-5.0662,-5.0162,-4.9363,-4.8591,-4.7854,-4.7081,-4.6168,-4.5115,-4.4062,-4.2517,0.0,0.0,0.0,0.0,0.0,0.0,0.0,0.0,0.0,0.0,0.0,0.0,0.0,0.0,0.0,0.0,0.0,0.0,0.0,0.0,0.0,0.0,0.0,0.0,0.0,0.0,-5.9633,-5.9081,-5.9666,-6.0102,-6.0035,-5.9957,-6.0375,-6.1448,-6.1745,-6.2047,-6.2438,-6.2658,-6.278,-6.278,-6.278,-6.278,-6.278,-6.278,-6.278,-6.278,-6.278,-6.278,-6.278,-6.278,-6.278,-6.278,-6.278,-6.2567,-6.2202,-6.1978,-6.0985,-5.951,-5.8848,-5.8144,-5.7598,-5.8081,-5.8288,-5.8357,-5.884,-5.884,-5.8357,-5.6598,-5.5495,-5.4632,-5.336,-5.3356,-5.3839,-5.408,-5.4874,-5.5667,-5.5943,-5.6391,-5.6598,-5.587,-5.5793,-5.5712,-5.5046,-5.493,-5.5022,-5.5083,-5.3709,-5.2294,-5.1394,-5.0411,-4.9874,-5.0255,-5.0807,-5.143,-5.2312,-5.2628,-5.2593,-5.2067,-5.1786,-5.1435,-5.0943,-5.0627,-5.0268,-4.9741,-4.8942,-4.817,-4.7432,-4.6906,-4.6249,-4.5501,-4.4448,-4.2903,-4.0889,0.0,0.0,0.0,0.0,0.0,0.0,0.0,0.0,0.0,0.0,0.0,0.0,0.0,0.0,0.0,0.0,0.0,0.0,0.0,0.0,0.0,0.0,0.0,-5.6874,-5.8185,-5.915,-5.9116,-6.1043,-6.2296,-6.2276,-6.3502,-6.4575,-6.5249,-6.4567,-6.4127,-6.409,-6.3319,-6.2817,-6.278,-6.278,-6.278,-6.278,-6.278,-6.278,-6.278,-6.278,-6.278,-6.278,-6.278,-6.278,-6.278,-6.278,-6.278,-6.2755,-6.2139,-6.15,-6.0855,-6.0219,-5.9582,-5.9012,-5.9012,-5.9012,-5.9012,-5.9012,-5.853,-5.7771,-5.7047,-5.6253,-5.546,-5.4736,-5.4494,-5.4667,-5.5391,-5.5598,-5.577,-5.6529,-5.6736,-5.6596,-5.603,-5.5854,-5.5709,-5.5135,-5.5022,-5.5053,-5.5164,-5.3858,-5.2788,-5.2898,-5.1633,-5.092,-5.1828,-5.1997,0.0,-5.3043,-5.2453,-5.1997,-5.1997,-5.1329,-5.0873,-5.0873,-5.0162,-4.9706,-4.9644,-4.8907,-4.8135,-4.7397,-4.7362,-4.7011,-4.6214,-4.4694,-4.3149,-4.1674,0.0,0.0,0.0,0.0,0.0,0.0,0.0,0.0,0.0,0.0,0.0,0.0,0.0,0.0,0.0,0.0,0.0,0.0,0.0,0.0,0.0,-5.6978,-5.7771,-5.8323,-5.9737,-6.0909,-6.1461,-6.2508,-6.3319,-6.3748,-6.4122,-6.4575,-6.5249,-6.5118,-6.4714,-6.4127,-6.387,-6.3466,-6.2817,-6.278,-6.278,-6.278,-6.278,-6.278,-6.278,-6.278,-6.278,-6.278,-6.278,-6.278,-6.278,-6.278,-6.278,-6.2755,-6.2139,-6.15,-6.0855,-6.0219,-5.9582,-5.9012,-5.9012,-5.9012,-5.9012,-5.9012,-5.853,-5.7771,-5.7047,-5.6253,-5.546,-5.4736,-5.4494,-5.4563,-5.477,-5.5219,-5.5529,-5.5219,-5.5529,-5.5803,-5.5233,-5.5185,-5.5205,-5.5144,-5.5264,-5.5214,-5.4647,-5.3736,-5.3077,-5.3098,-5.1836,-5.0916,-5.1154,-5.1189,-5.1259,-5.1505,-5.1329,-5.1189,-5.1189,-5.1013,-5.0873,-5.0873,-5.0162,-4.9434,-4.8872,-4.8135,-4.7362,-4.6565,-4.653,-4.6425,-4.6214,-4.4694,-4.3676,0.0,0.0,0.0,0.0,0.0,0.0,0.0,0.0,0.0,0.0,0.0,0.0,0.0,0.0,0.0,0.0,0.0,0.0,0.0,0.0,0.0,0.0,-5.7874,-5.8875,-6.0289,-6.1254,-6.2087,-6.2822,-6.3792,-6.4628,-6.529,-6.5583,-6.587,-6.6266,-6.5999,-6.5448,-6.464,-6.4273,-6.3686,-6.2817,-6.278,-6.278,-6.278,-6.278,-6.278,-6.278,-6.278,-6.278,-6.278,-6.278,-6.278,-6.278,-6.278,-6.278,-6.2755,-6.2139,-6.15,-6.0855,0.0,0.0,0.0,0.0,-5.9012,-5.8978,-5.8668,-5.8081,-5.7322,-5.6564,-5.577,-5.5081,-5.4632,-5.4494,-5.4494,-5.4494,-5.4805,-5.5046,-5.4632,-5.4839,-5.511,-5.4946,-5.493,-5.5053,-5.5294,-5.5448,-5.5262,-5.4454,-5.3682,0.0,-5.2734,-5.1681,-5.0873,-5.0873,-5.0873,-5.0873,-5.0873,-5.0873,-5.0873,-5.0873,-5.0873,-5.0873,-5.0873,-4.9855,0.0,0.0,0.0,-4.6695,-4.6214,-4.6214,0.0,0.0,0.0,0.0,0.0,0.0,0.0,0.0,-4.3231,-4.3395,0.0,0.0,0.0,0.0,0.0,0.0,0.0,0.0,0.0,0.0,0.0,0.0,0.0,0.0,0.0,0.0,-5.8806,-6.0186,-6.2329,-6.2711,-6.2995,-6.355,-6.4877,-6.5971,-6.6648,-6.7322,-6.7687,-6.7687,-6.7026,-6.6256,-6.5375,0.0,0.0,0.0,0.0,-6.278,-6.278,-6.278,-6.278,-6.278,-6.278,-6.278,-6.278,-6.278,-6.278,-6.278,-6.278,-6.278,-6.2755,-6.2059,-6.135,-6.0646,-6.0097,-5.9516,-5.9012,-5.9012,-5.9012,-5.8943,-5.8184,0.0,0.0,-5.5906,-5.5115,-5.4494,-5.4494,-5.4529,-5.4526,-5.4526,-5.4526,-5.4526,-5.4526,-5.4529,-5.4589,-5.493,-5.4992,-5.5083,-5.5419,-5.5507,-5.5262,-5.4349,-5.3647,-5.2909,-5.2032,-5.1329,-5.0873,-5.0873,-5.0873,-5.0873,-5.0873,-5.0873,-5.0873,-5.0873,-5.0873,0.0,-5.0873,-4.9504,-4.86,-4.8495,-4.7056,-4.6214,-4.6214,-4.6214,-4.6214,-4.6214,-4.6214,-4.6214,-4.6214,-4.6284,-4.6354,-4.6284,-4.4249,-4.4062,0.0,0.0,0.0,0.0,0.0,0.0,0.0,0.0,0.0,0.0,0.0,0.0,0.0,0.0,0.0,-5.8599,-6.0601,-6.2335,-6.3338,-6.4004,-6.4425,-6.439,-6.5649,-6.6559,-6.6677,-6.7322,-6.7687,-6.7687,-6.754,-6.6843,-6.5375,-6.5154,-6.4383,-6.2853,-6.278,-6.278,-6.278,-6.278,-6.278,-6.278,-6.278,0.0,-6.278,-6.278,-6.278,-6.278,-6.278,-6.278,-6.2705,-6.1548,-6.0401,-5.9383,-5.9216,-5.9115,-5.9012,-5.9012,-5.9081,-5.9147,-5.8386,-5.7625,-5.6829,-5.6067,-5.5211,-5.4494,-5.4494,-5.4623,0.0,-5.4749,-5.4749,-5.4749,-5.4749,-5.4623,-5.4589,-5.493,-5.4992,-5.5083,-5.5419,-5.5507,-5.5086,-5.3682,-5.3324,-5.2762,-5.1329,-5.0978,-5.0873,-5.0873,-5.0873,-5.0873,-5.0873,-5.0873,-5.0873,-5.0873,-5.0873,-5.0873,-5.0873,-4.9995,-4.9188,-4.853,-4.7056,-4.6214,-4.6214,-4.6214,-4.6214,-4.6214,-4.6214,-4.6214,-4.6214,-4.6871,-4.7151,-4.7151,-4.673,-4.666,0.0,0.0,0.0,0.0,0.0,0.0,0.0,0.0,0.0,0.0,0.0,-5.6115,-5.7633,0.0,-5.9529,-6.067,-6.1987,-6.3206,-6.4237,-6.5021,-6.5561,-6.5752,-6.6313,-6.6823,-6.7174,-6.7488,-6.7687,-6.7687,-6.7687,-6.699,-6.5411,-6.5301,-6.453,-6.2853,-6.278,-6.278,-6.278,-6.2451,-6.2316,-6.2316,-6.1887,-6.1704,-6.1704,-6.1618,-6.1594,-6.1594,-6.1166,-6.0982,-6.0872,-5.9276,-5.7862,-5.6771,-5.6771,-5.7667,-5.8978,-5.8599,-5.8562,-5.8591,-5.7448,-5.6579,-5.5914,-5.5563,-5.4876,-5.4195,-5.4641,-5.4807,-5.4904,-5.4811,-5.4842,-5.4904,-5.4811,-5.478,-5.4807,-5.5018,-5.5079,-5.5174,-5.5448,-5.5191,-5.4559,-5.3401,-5.2874,-5.2242,-5.1084,-5.0873,-5.0873,-5.0873,-5.0873,-5.0873,-5.0873,-5.0873,-5.0873,-5.0873,-5.0873,-5.0873,-5.0873,-5.0162,-4.9363,-4.853,-4.7407,-4.68,-4.68,-4.6389,-4.6214,-4.6214,-4.66,-4.68,-4.68,-4.7573,-4.7959,-4.7959,-4.8345,-4.8345,0.0,0.0,0.0,0.0,0.0,0.0,0.0,0.0,-5.5426,-5.6322,-5.7598,-5.8737,-5.9357,-6.0255,-6.1328,-6.2542,-6.3031,-6.3728,-6.5131,-6.5815,-6.6398,-6.7073,-6.7024,-6.7174,-6.7741,-6.7741,-6.7714,-6.7741,-6.7567,-6.6843,-6.5375,-6.5154,-6.4383,-6.2853,-6.278,-6.2732,-6.261,-6.207,-6.1713,-6.159,-6.0964,-6.0632,-6.0632,-6.0331,-6.021,-6.0173,-5.9271,-5.8785,-5.8568,-5.685,-5.5519,-5.4526,-5.4526,-5.601,-5.808,-5.7494,-5.7419,-5.7409,-5.6018,-5.5212,-5.4813,-5.4639,-5.4122,-5.3709,-5.4365,-5.457,-5.457,-5.4452,-5.4618,-5.4813,-5.4695,-5.4826,-5.5053,-5.5169,-5.5199,-5.5224,-5.5267,-5.477,-5.4033,-5.312,-5.2453,-5.1786,-5.1013,-5.0873,-5.0873,-5.0873,-5.0873,-5.0873,-5.0873,-5.0873,-5.0873,-5.0873,-5.0873,-5.0873,-5.0873,-5.0162,-4.9398,-4.8766,-4.8029,-4.7608,-4.7608,-4.6986,-4.6635,-4.667,-4.7292,-4.7608,-4.7643,-4.838,-4.8731,-4.8741,-4.9539,-4.9504,-5.6874,-5.5529,-5.4598,-5.4425,-5.4391,-5.5081,0.0,0.0,-5.7943,-5.9392,-6.0358,-6.0944,-6.1047,-6.1846,-6.2506,-6.2645,-6.3589,-6.4701,-6.5961,-6.6277,-6.6816,-6.8018,-6.7915,-6.7836,-6.8055,-6.7847,-6.7741,-6.7873,-6.7106,-6.6256,-6.5375,-6.4604,-6.3796,-6.2817,-6.278,-6.2524,-6.191,-6.1837,-6.1503,-6.0896,-6.0822,-6.0785,-6.0748,-5.9918,-5.9587,-5.9595,-5.8225,-5.7325,-5.6829,-5.595,-5.5229,-5.4679,-5.4679,-5.4887,-5.5164,-5.5095,-5.5189,-5.527,-5.4555,-5.4266,-5.4086,-5.3387,-5.2991,-5.2839,-5.2909,-5.3061,-5.3143,-5.3114,-5.3637,-5.4226,-5.4196,-5.4595,-5.5053,-5.5169,-5.5199,-5.5084,-5.4566,-5.4384,-5.3892,-5.2418,-5.2039,-5.1786,-5.1013,-5.0873,-5.0873,-5.0873,-5.0873,-5.0873,-5.0873,-5.0873,-5.0873,-5.0873,-5.0873,-5.0873,-5.0873,-5.0162,-4.9671,-4.9574,-4.8837,-4.8355,-4.8355,-4.8284,-4.8249,-4.8345,-4.838,-4.8415,-4.8451,-4.9188,-4.9565,-4.96,-5.0382,-5.0311,-5.8944,0.0,0.0,0.0,-5.7116,-5.7564,-5.9288,-5.9461,-5.953,-6.0634,-6.1461,-6.2015,-6.2087,-6.2889,-6.3587,0.0,-6.4183,-6.491,-6.5815,-6.6277,-6.6692,-6.7111,-6.7317,-6.7615,-6.8058,-6.803,-6.7978,-6.7993,-6.7163,-6.6276,-6.5441,-6.4581,-6.3736,-6.2941,-6.2463,-6.2131,-6.1919,-6.1029,-6.0211,-5.9442,-5.8998,-5.8517,-5.8073,-5.7596,-5.6978,-5.6314,-5.5683,-5.4665,-5.3423,-5.3112,-5.2678,-5.2195,-5.2195,-5.2195,-5.2369,-5.3688,-5.43,-5.4376,-5.3667,-5.3194,-5.2901,-5.3035,-5.2733,-5.2396,-5.2851,-5.3013,-5.3147,-5.3515,-5.3894,-5.4303,-5.4669,-5.5019,-5.5329,-5.5354,-5.5033,-5.4612,-5.4355,-5.3612,-5.2769,-5.2137,-5.1645,-5.1259,-5.0943,-5.0873,-5.0873,-5.0873,-5.0873,-5.0873,-5.0873,-5.0873,-5.0873,-5.0873,-5.0873,-5.0873,-5.0873,-5.0592,-5.0382,-5.0382,-4.9644,-4.9188,-4.9188,-4.8766,-4.8556,-4.8591,-4.8977,-4.9223,-4.9223,-4.9995,-5.0382,-5.0408,-5.0733,-5.0697,-5.9116,0.0,0.0,-5.8633,-5.9185,-5.9806,-6.0358,-6.0668,-6.0978,-6.153,-6.2291,-6.2952,-6.299,-6.3691,-6.4287,-6.4358,-6.4568,-6.491,-6.5601,-6.6037,-6.6292,-6.6323,-6.6604,-6.7012,-6.7494,-6.7455,-6.743,-6.7455,-6.6565,-6.5764,-6.5225,-6.429,-6.3591,-6.3088,-6.2277,-6.1808,-6.1726,-6.0152,-5.8974,-5.8201,-5.7423,-5.6718,-5.6162,-5.5821,-5.4938,-5.3689,-5.3518,-5.2654,-5.127,-5.107,-5.0776,-5.0453,-5.0453,-5.0453,-5.0662,-5.2364,-5.305,-5.3067,-5.2501,-5.2061,-5.1786,-5.2383,-5.2172,-5.1821,-5.2383,-5.2727,-5.2951,-5.3398,-5.3911,-5.439,-5.4834,-5.5208,-5.5507,-5.5507,-5.4911,-5.4244,-5.4033,-5.2944,-5.1934,-5.1751,-5.1259,-5.0873,-5.0873,-5.0873,-5.0873,-5.0873,-5.0873,-5.0873,-5.0873,-5.0873,-5.0873,-5.0873,-5.0873,-5.0873,-5.0873,-5.0873,-5.0873,-5.0873,-5.0346,-5.003,-5.003,-4.9469,-4.9188,-4.9223,-4.975,-5.003,-5.003,-5.0592,-5.0873,-5.0873,-5.0873,-5.0873,0.0,0.0,-5.8875,-5.8116,-5.9599,-6.1254,-6.1254,-6.1875,-6.2427,-6.2461,-6.3194,-6.3856,-6.3858,-6.4181,-6.4393,-6.4393,-6.4568,-6.491,-6.5601,-6.5538,-6.5646,-6.625,-6.6199,-6.6142,-6.6142,-6.5853,-6.5718,-6.5853,-6.4857,-6.434,-6.4426,-6.3554,-6.3088,-6.3171,-6.2395,-6.1689,-6.1048,-5.9381,-5.8201,-5.7546,-5.6729,-5.632,-5.6283,-5.5409,-5.4277,-5.29,-5.2381,-5.1934,-5.1525,-5.0749,-5.0509,-5.0585,-5.0585,-5.0585,-5.0647,-5.0889,-5.0862,-5.0717,-5.0889,-5.0943,-5.0943,-5.0943,-5.0943,-5.0943,-5.0943,-5.147,-5.2039,-5.2039,-5.3127,-5.4314,-5.4349,-5.4911,-5.5507,-5.5507,-5.4911,-5.4103,-5.3394,-5.2593,-5.1786,-5.1049,-5.0908,-5.0873,-5.0873,-5.0873,-5.0873,-5.0873,-5.0873,-5.0873,-5.0873,-5.0873,-5.0873,-5.0873,-5.0873,-5.0873,-5.0873,-5.0873,-5.0873,-5.0873,-5.0873,-5.0838,-5.0838,-5.0838,-5.0838,-5.0838,-5.0838,-5.0838,-5.0838,-5.0873,-5.0873,-5.0873,-5.0873,-5.0873,0.0,0.0,-5.9357,-6.0634,-6.153,-6.222,-6.2703,-6.3048,-6.322,-6.322,-6.3159,-6.3166,-6.3273,-6.3067,-6.3099,-6.3761,-6.3935,-6.3968,-6.4101,-6.4504,-6.4573,-6.3981,-6.4391,0.0,0.0,0.0,0.0,-6.602,-6.5038,-6.4486,-6.4533,-6.3638,-6.2973,-6.2535,-6.1758,-6.1011,-6.0268,-5.8635,-5.7468,-5.6692,-5.5317,-5.4648,-5.4629,-5.4038,-5.3292,-5.2459,-5.1982,-5.1525,-5.1105,-5.0846,-5.0764,-5.0819,-5.0819,-5.0819,-5.0819,-5.0873,-5.0846,-5.0819,-5.0873,-5.0873,-5.0978,-5.147,-5.1645,-5.1751,-5.2242,-5.2593,-5.2909,-5.3401,-5.3892,-5.4419,-5.4981,-5.5297,-5.5507,-5.5507,-5.4524,-5.3471,-5.3254,-5.2172,-5.1049,-5.0241,-5.0127,-5.0127,-5.0127,-5.0127,-5.0276,-5.0803,-5.0873,-5.0873,-5.0873,-5.0873,-5.0873,-5.0873,-5.0873,-5.0873,-5.0873,-5.0873,-5.0873,-5.0873,-5.0873,-5.0873,-5.0873,-5.0873,-5.0873,-5.0873,-5.0873,-5.0873,-5.0873,-5.0873,-5.0873,-5.0873,-5.0873,-5.0981,-5.9357,-5.9806,-6.0254,-6.2048,-6.2703,-6.3013,-6.3496,-6.36,-6.3568,-6.3293,-6.3025,-6.2787,-6.2718,-6.2402,-6.2501,-6.3477,-6.3583,-6.3549,-6.3447,-6.3985,-6.398,-6.2939,-6.3419,-6.3772,0.0,0.0,0.0,-6.5199,-6.4564,-6.4183,-6.423,-6.3632,-6.2942,-6.2301,-6.1486,-6.0543,-5.9478,-5.7881,-5.6506,-5.5391,-5.4314,-5.3794,-5.3775,-5.3322,-5.2806,-5.2276,-5.1788,-5.1331,-5.0873,-5.0873,-5.0873,-5.0873,-5.0873,-5.0873,-5.0873,-5.0873,-5.0873,-5.0943,-5.1189,-5.1294,-5.1435,-5.2172,-5.2418,-5.2523,-5.3043,-5.3366,-5.3682,-5.4173,-5.4524,-5.484,-5.5367,-5.5507,-5.5507,-5.5507,-5.4314,-5.3218,-5.3218,-5.1778,-5.0311,-4.9811,-4.9706,-4.9706,-4.9706,-4.9952,-5.0276,-5.0803,-5.0873,-5.0873,-5.0873,-5.0873,-5.0873,-5.0873,-5.0873,-5.0873,-5.0873,-5.0873,-5.0873,-5.0873,-5.0873,-5.0873,-5.0873,-5.0873,-5.0873,-5.0873,-5.0873,-5.0873,-5.0873,-5.0873,-5.0873,-5.09,-5.0981,-5.1184,-5.915,-6.0254,-6.1565,-6.2358,-6.3082,-6.36,-6.36,-6.3565,-6.336,-6.2816,-6.2787,-6.2684,0.0,0.0,-6.2529,-6.3337,-6.3512,-6.3547,-6.3583,-6.3903,-6.3848,0.0,0.0,0.0,0.0,0.0,0.0,-6.3602,0.0,-6.3488,-6.3579,-6.3488,-6.308,-6.2354,-6.1558,-6.0333,-5.8661,-5.7063,-5.5429,-5.3794,-5.3794,-5.3775,-5.3737,-5.3244,-5.2762,-5.2253,-5.1764,-5.1305,-5.0873,-5.0873,-5.0873,-5.0873,-5.0873,-5.0873,-5.0873,-5.0873,-5.0873,-5.1013,-5.1751,-5.2004,-5.2137,-5.2944,-5.3254,-5.3254,-5.3324,-5.3787,-5.4384,-5.4384,-5.4911,-5.5507,-5.5507,-5.5507,-5.5507,-5.5507,-5.4314,-5.3218,-5.3148,-5.1357,-4.9706,-4.96,-4.9635,-4.9671,-4.9706,-5.0373,-5.0873,-5.0873,-5.0873,-5.0873,-5.0873,-5.0873,-5.0873,-5.0873,-5.0873,-5.0873,-5.0873,-5.0873,-5.0873,-5.0873,-5.0873,-5.0873,-5.0873,-5.0873,-5.0873,-5.0873,-5.0873,-5.0873,-5.0873,-5.0873,-5.0873,-5.09,-5.1193,-5.146,-6.1151,-6.1875,-6.2358,-6.3117,-6.3462,-6.36,-6.36,-6.3151,-6.2776,-6.2712,-6.1953,-6.1116,0.0,0.0,0.0,-6.1757,-6.2354,0.0,-6.3307,-6.3077,0.0,-6.2781,0.0,-6.2693,-6.3511,-6.3602,0.0,0.0,-6.3557,-6.3557,-6.3602,-6.3557,-6.2925,-6.1558,-6.0704,-5.9441,-5.7843,-5.6172,-5.4834,-5.3794,-5.3794,-5.3639,-5.3281,-5.274,-5.2266,-5.1739,-5.128,-5.1008,-5.0873,-5.0873,-5.0873,-5.0873,-5.0873,-5.0873,-5.0873,-5.0873,-5.0873,-5.1013,-5.1751,-5.2004,-5.2137,-5.2944,-5.3576,-5.4138,-5.4735,-5.5051,-5.5191,-5.5191,-5.5367,-5.5507,-5.5507,-5.5507,-5.5507,-5.5507,-5.4314,-5.3043,-5.2453,-5.0943,-4.939,-4.8205,-4.8415,-4.9012,-4.9574,-5.0373,-5.0873,-5.0873,-5.0873,-5.0873,-5.0873,-5.0873,-5.0873,-5.0873,-5.0873,-5.0873,-5.0873,-5.0873,-5.0873,-5.0873,-5.0873,-5.0873,-5.0873,-5.0873,-5.0873,-5.0873,-5.0873,-5.0873,-5.0873,-5.0873,-5.0873,-5.09,-5.1373,-5.1615,-6.2151,-6.2737,-6.3082,-6.3496,-6.3358,-6.3117,-6.3117,-6.2603,-6.195,-6.1467,-6.0805,0.0,0.0,0.0,0.0,0.0,0.0,0.0,-6.2851,-6.3374,-6.3505,0.0,-6.3036,0.0,-6.3571,-6.3602,-6.3602,0.0,-6.3602,-6.3602,-6.3602,-6.3267,-6.2524,-6.1261,-6.0035,-5.8438,-5.6432,-5.5131,-5.4143,-5.3484,-5.3484,-5.3224,-5.274,-5.2206,-5.1837,-5.1551,-5.1079,-5.0873,-5.0873,-5.0873,-5.0873,-5.0873,-5.0873,-5.0873,-5.0873,-5.0873,-5.0873,-5.0943,-5.1365,-5.1751,-5.2137,-5.2944,-5.3471,-5.3892,-5.4349,-5.4489,-5.4489,-5.4489,-5.4489,-5.4489,-5.4489,-5.4489,-5.4559,-5.4911,-5.4068,-5.3155,-5.305,-5.154,-4.9855,-4.8626,-4.8486,-4.8907,-5.003,-5.0592,-5.0873,-5.0873,-5.0873,-5.0873,-5.0873,-5.0873,-5.0873,-5.0873,-5.0873,-5.0873,-5.0873,-5.0873,-5.0873,-5.0873,-5.0873,-5.0873,-5.0873,-5.0873,-5.0873,-5.0873,-5.0873,-5.0873,-5.0873,-5.0873,-5.0954,-5.1088,-5.1615,-5.2018,-6.2599,-6.3082,-6.36,-6.36,-6.3048,-6.2496,-6.2496,-6.1776,-6.0808,-5.9659,0.0,0.0,-5.7724,-5.8316,-5.9229,-5.9861,0.0,-6.2319,-6.2529,-6.4046,-6.4643,-6.3326,-6.4067,-6.4424,-6.3653,-6.3602,-6.3602,-6.3602,-6.3527,-6.3453,-6.3453,-6.2784,-6.1893,-6.0741,-5.9218,-5.7249,-5.4871,-5.4108,-5.3484,-5.3078,-5.3036,-5.2718,-5.2183,-5.1799,-5.1551,-5.1485,-5.1088,-5.0873,-5.0873,-5.0873,-5.0873,-5.0873,-5.0873,-5.0873,-5.0873,-5.0873,-5.0873,-5.0873,-5.0873,-5.1365,-5.2137,-5.2804,-5.3113,-5.3218,-5.3324,-5.3359,-5.3394,-5.35,-5.3535,-5.3535,-5.3535,-5.3535,-5.3647,-5.4314,-5.3892,-5.3471,-5.4033,-5.2453,-5.0697,-4.996,-4.9258,-4.9188,-5.0627,-5.0803,-5.0768,-5.0873,-5.0873,-5.0873,-5.0873,-5.0873,-5.0873,-5.0873,-5.0873,-5.0873,-5.0873,-5.0873,-5.0873,-5.0873,-5.0873,-5.0873,-5.0873,-5.0873,-5.0873,-5.0873,-5.0873,-5.0873,-5.0873,-5.0873,-5.1034,-5.1324,-5.191,-5.2422,-6.322,-6.3496,-6.36,-6.36,-6.3048,-6.2496,-6.2496,-6.0531,0.0,0.0,0.0,-5.6799,-5.6039,-5.7614,0.0,-5.9194,0.0,0.0,0.0,0.0,-6.3807,0.0,0.0,0.0,0.0,0.0,0.0,0.0,-6.297,-6.2636,-6.2636,-6.2487,-6.1113,-5.8252,-5.7212,-5.5837,-5.4054,-5.3498,-5.3162,-5.3078,-5.2652,-5.2219,-5.1725,-5.1626,-5.1383,-5.1034,-5.0927,-5.0873,-5.0873,-5.0873,-5.0873,-5.0873,-5.0873,-5.0873,-5.0873,-5.0873,-5.0873,-5.0873,-5.0873,-5.1365,-5.2004,-5.2172,-5.2664,-5.3324,-5.3928,-5.4103,-5.4244,-5.4911,-5.5121,-5.5121,-5.5121,-5.5121,-5.5121,-5.5262,-5.47,-5.3963,-5.3471,-5.2067,-5.0838,-5.0697,-5.003,-4.9811,-5.0733,-5.0373,-5.0101,-5.0803,-5.0873,-5.0873,-5.0873,-5.0873,-5.0873,-5.0873,-5.0873,-5.0873,-5.0873,-5.0873,-5.0873,-5.0873,-5.0873,-5.0873,-5.0873,-5.0873,-5.0873,-5.0873,-5.0873,-5.0873,-5.0873,-5.0873,-5.1034,-5.1324,-5.2136,-5.2535,-6.3496,-6.36,-6.36,-6.36,-6.2737,-6.1772,-6.1392,0.0,0.0,0.0,0.0,-5.5103,-5.4454,-5.5894,0.0,0.0,0.0,0.0,0.0,0.0,0.0,0.0,0.0,0.0,0.0,0.0,0.0,-6.3579,-6.2324,-6.1774,-6.2369,-6.1596,-5.9812,-5.6952,-5.6506,-5.5367,-5.3424,-5.3182,-5.2842,-5.2312,-5.2054,-5.1701,-5.1237,-5.1237,-5.1105,-5.0873,-5.0873,-5.0873,-5.0873,-5.0873,-5.0873,-5.0873,-5.0873,-5.0873,-5.0873,-5.0873,-5.1119,-5.147,-5.147,-5.1961,-5.2628,-5.2628,-5.2874,-5.3289,-5.3612,-5.3717,-5.3787,-5.4173,-5.4314,-5.4314,-5.4314,-5.4314,-5.4384,-5.4805,-5.4911,-5.47,-5.3928,-5.2874,-5.2094,-5.2094,-5.1435,-5.0908,-5.0873,-5.0908,-5.0768,-5.0311,-5.0627,-5.0873,-5.0873,-5.0873,-5.0873,-5.0873,-5.0873,-5.0873,-5.0873,-5.0873,-5.0873,-5.0873,-5.0873,-5.0873,-5.0873,-5.0873,-5.0873,-5.0873,-5.0873,-5.0873,-5.0873,-5.1034,-5.1246,-5.1521,-5.2391,-5.2877,-6.3565,-6.36,-6.36,-6.36,-6.2427,-6.1116,-6.0358,-5.8452,0.0,0.0,0.0,-5.3647,-5.305,-5.4208,-5.5507,0.0,0.0,0.0,0.0,0.0,0.0,0.0,0.0,0.0,0.0,0.0,0.0,-6.3218,-6.1514,-6.0806,-6.1655,-6.0379,-5.8582,-5.6199,-5.6105,-5.5085,-5.295,-5.2842,-5.2358,-5.1601,-5.151,-5.1263,-5.0873,-5.0873,-5.0873,-5.0873,-5.0873,-5.0873,-5.0873,-5.0873,-5.0873,-5.0873,-5.0873,-5.0873,-5.0908,-5.1084,-5.1505,-5.2004,-5.2207,-5.2769,-5.3436,-5.3436,-5.3359,-5.3254,-5.3394,-5.3436,-5.3471,-5.3612,-5.3682,-5.3682,-5.3682,-5.3682,-5.3822,-5.4419,-5.5051,-5.5332,-5.47,-5.4103,-5.3612,-5.3471,-5.2804,-5.2067,-5.147,-5.147,-5.1224,-5.0311,-5.0452,-5.0697,-5.0873,-5.0873,-5.0873,-5.0873,-5.0873,-5.0873,-5.0873,-5.0873,-5.0873,-5.0873,-5.0873,-5.0873,-5.0873,-5.0873,-5.0873,-5.0873,-5.0873,-5.09,-5.0981,-5.1193,-5.1495,-5.1884,-5.2674,-5.3187,-6.3427,-6.36,-6.36,-6.36,-6.2427,-6.1116,-6.0358,0.0,0.0,0.0,-5.2997,-5.2179,-5.2137,-5.3366,-5.4665,0.0,0.0,0.0,0.0,0.0,0.0,0.0,0.0,0.0,0.0,0.0,0.0,-6.2059,-6.0564,-5.9572,-5.9402,-5.902,-5.7825,-5.5647,-5.5551,-5.4525,-5.2391,-5.1958,-5.1701,-5.1576,-5.1158,-5.0927,-5.0873,-5.0873,-5.0873,-5.0873,-5.0873,-5.0873,-5.0873,-5.0873,-5.0873,-5.0873,-5.0873,-5.0873,-5.0978,-5.1645,-5.1934,-5.2102,-5.2839,-5.3576,-5.4208,-5.4208,-5.3752,-5.3296,-5.3998,-5.4208,-5.4349,-5.5086,-5.5297,-5.5297,-5.5297,-5.5297,-5.5332,-5.5367,-5.5472,-5.5507,-5.5402,-5.5367,-5.5086,-5.4349,-5.3576,-5.3078,-5.3008,-5.1286,-5.0346,-5.161,-5.0662,-5.0066,-5.0803,-5.0873,-5.0873,-5.0873,-5.0873,-5.0873,-5.0873,-5.0873,-5.0873,-5.0873,-5.0873,-5.0873,-5.0873,-5.0873,-5.0873,-5.0873,-5.0873,-5.1008,-5.1272,-5.1298,-5.1687,-5.2427,-5.2812,-5.331,-6.2841,-6.3255,-6.3496,-6.3048,-6.2117,-6.0875,-5.9185,0.0,-5.4648,-5.3396,-5.2193,-5.1329,-5.1329,-5.2207,-5.3331,0.0,-5.5297,0.0,0.0,0.0,0.0,0.0,0.0,0.0,0.0,0.0,-6.0798,-5.952,-5.9024,-5.8394,-5.7469,-5.7644,-5.6922,-5.5093,-5.4997,-5.4,-5.1886,-5.1701,-5.146,-5.1184,-5.0981,-5.0873,-5.0873,-5.0873,-5.0873,-5.0873,-5.0873,-5.0873,-5.0873,-5.0873,-5.0873,-5.0873,-5.0873,-5.1154,-5.161,-5.1891,-5.2593,-5.3436,-5.3752,-5.4384,-5.5016,-5.5016,-5.484,-5.463,-5.4946,-5.5016,-5.5086,-5.5402,-5.5507,-5.5507,-5.5507,-5.5507,-5.5507,-5.5507,-5.5507,-5.5507,-5.5507,-5.5507,-5.5402,-5.5086,-5.4805,-5.4279,-5.3359,-5.2769,-5.2348,-5.2067,-5.1505,-5.1189,-5.154,-5.1154,-5.0873,-5.0873,-5.0873,-5.0873,-5.0873,-5.0873,-5.0873,-5.0873,-5.0873,-5.0873,-5.0873,-5.0873,-5.0873,-5.0873,-5.0873,-5.1034,-5.1298,-5.1479,-5.1797,-5.2268,-5.2914,-5.335,-6.2289,-6.2875,-6.3151,-6.2634,-6.191,-6.0703,0.0,0.0,-5.4544,-5.3013,-5.1738,-5.0873,-5.0873,-5.1505,-5.2453,0.0,-5.4349,-5.5402,-5.7509,0.0,0.0,0.0,0.0,0.0,0.0,0.0,-5.9689,-5.7926,-5.7804,-5.7289,-5.6134,-5.642,-5.5985,-5.4542,-5.447,-5.3501,-5.1408,-5.1383,-5.1237,-5.0873,-5.0873,-5.0873,-5.0873,-5.0873,-5.0873,-5.0873,-5.0873,-5.0873,-5.0873,-5.0873,-5.0873,-5.0873,-5.0873,-5.1365,-5.2032,-5.2277,-5.319,-5.4349,-5.4595,-5.5051,-5.5507,-5.5507,-5.5507,-5.5507,-5.5507,-5.5507,-5.5507,-5.5507,-5.5507,-5.5507,-5.5507,-5.5507,-5.5507,-5.5507,-5.5507,-5.5507,-5.5507,-5.5507,-5.5507,-5.5507,-5.5507,-5.5156,-5.4068,-5.3928,-5.3682,-5.2839,-5.2285,-5.2004,-5.2004,-5.154,-5.1119,-5.0908,-5.0873,-5.0873,-5.0873,-5.0873,-5.0873,-5.0873,-5.0873,-5.0873,-5.0873,-5.0873,-5.0873,-5.0873,-5.0873,-5.1061,-5.1428,-5.1632,-5.1969,-5.2499,-5.312,-5.3506,-6.1875,-6.2496,-6.2496,-6.2496,-6.191,-6.0703,0.0,-5.6376,-5.4544,-5.3013,-5.1738,-5.0873,-5.0873,-5.1505,-5.2277,-5.3078,-5.4489,-5.6034,-5.7579,0.0,0.0,0.0,0.0,0.0,0.0,0.0,-5.8667,-5.786,-5.7052,0.0,-5.5543,-5.5507,-5.5023,-5.4044,-5.4008,-5.2998,-5.0935,-5.09,-5.09,-5.0873,-5.0873,-5.0873,-5.0873,-5.0873,-5.0873,-5.0873,-5.0873,-5.0873,-5.0873,-5.0873,-5.0873,-5.0873,-5.0873,-5.1365,-5.2102,-5.2874,-5.3647,-5.4419,-5.5227,-5.5507,-5.5507,-5.5507,-5.5507,-5.5507,-5.5507,-5.5507,-5.5507,-5.5507,-5.5507,-5.5507,-5.5507,-5.5507,-5.5507,-5.5507,-5.5507,-5.5507,-5.5507,-5.5507,-5.5507,-5.5507,-5.5507,-5.5507,-5.5507,-5.4208,-5.3436,-5.4173,-5.298,-5.2004,-5.2004,-5.1969,-5.1716,-5.0978,-5.0873,-5.0873,-5.0873,-5.0873,-5.0873,-5.0873,-5.0873,-5.0873,-5.0873,-5.0873,-5.0873,-5.0873,-5.0873,-5.1167,-5.1708,-5.1708,-5.2255,-5.3387,-5.3407,-5.3776,-5.9909,-6.0496,-6.0668,-5.9633,-5.915,-5.853,-5.6736,-5.5199,-5.3918,-5.2909,-5.1738,-5.0873,-5.0873,-5.1084,-5.1821,-5.3647,-5.4349,0.0,0.0,0.0,0.0,0.0,0.0,0.0,0.0,0.0,-5.807,-5.7825,-5.6596,-5.5753,-5.5507,-5.4981,-5.4295,-5.3498,-5.3462,-5.2639,-5.0935,-5.0873,-5.0873,-5.0873,-5.0873,-5.0873,-5.0908,-5.1435,-5.1365,-5.0908,-5.1435,-5.1365,-5.0873,-5.0873,-5.0873,-5.0873,-5.0873,-5.1365,-5.2102,-5.2874,-5.3647,-5.4419,-5.5227,-5.5234,-5.4961,-5.4961,-5.471,-5.4428,-5.4428,-5.493,-5.5507,-5.5507,-5.5507,-5.5507,-5.5507,-5.5507,-5.5507,-5.5507,-5.5507,-5.5507,-5.5507,-5.5507,-5.5507,-5.5507,-5.5507,-5.5507,-5.5507,-5.5121,-5.484,-5.5086,-5.4244,-5.3576,-5.3576,-5.312,-5.2734,-5.2516,-5.1961,-5.1435,-5.0943,-5.0873,-5.0873,-5.0873,-5.0873,-5.0873,-5.0873,-5.0873,-5.0873,-5.0873,-5.0873,-5.1167,-5.1708,-5.1708,-5.2278,-5.3407,-5.3624,-5.3981,0.0,-5.8944,-5.9116,-5.815,-5.7909,-5.7426,-5.5598,-5.4472,-5.35,-5.2457,-5.1529,-5.0873,-5.0873,-5.1119,-5.1786,-5.3225,-5.3928,0.0,0.0,0.0,0.0,0.0,0.0,0.0,0.0,-5.8527,-5.779,-5.779,-5.6385,-5.5507,-5.5507,-5.4735,-5.3963,-5.3218,-5.2909,-5.2137,-5.0908,-5.0873,-5.0873,-5.0873,-5.0873,-5.1049,-5.1329,-5.1505,-5.1505,-5.1329,-5.1505,-5.1329,0.0,-5.0873,-5.0873,-5.0873,-5.0873,-5.1365,-5.2074,-5.2676,-5.3352,-5.4091,-5.4713,-5.4679,-5.4428,-5.4428,-5.4171,-5.3912,-5.3912,-5.4523,-5.5204,-5.5204,-5.5359,-5.5507,-5.5507,-5.5507,-5.5507,-5.5507,-5.5507,-5.5507,-5.5507,-5.5507,-5.5507,-5.5507,-5.5507,-5.5507,-5.5507,-5.5507,-5.5507,-5.5507,-5.5086,-5.4665,-5.4349,-5.3892,-5.3506,-5.3254,-5.2734,-5.2277,-5.1786,-5.1224,-5.0873,-5.0873,-5.0873,-5.0873,-5.0873,-5.0873,-5.0873,-5.0873,-5.0873,-5.1167,-5.1708,-5.2126,-5.271,-5.3407,-5.3889,-5.4198,0.0,-5.7529,-5.7564,-5.7529,-5.7495,-5.6943,-5.4839,-5.3952,0.0,-5.1796,-5.1179,-5.0908,-5.0978,-5.1505,-5.1997,-5.2179,-5.3401,0.0,0.0,0.0,0.0,0.0,0.0,0.0,-5.9089,-5.8316,-5.7825,-5.7895,-5.642,-5.5543,-5.5578,-5.4735,-5.3892,-5.3218,-5.2383,-5.161,-5.0908,-5.0873,-5.0873,-5.0873,-5.0873,-5.1259,-5.1899,-5.1259,-5.1329,-5.1891,-5.1259,-5.0943,-5.0873,-5.0873,-5.0873,-5.0873,-5.0873,-5.1365,-5.2046,-5.2294,-5.2874,-5.3545,-5.38,-5.3879,-5.3847,-5.3814,-5.3781,-5.3781,-5.3781,-5.4203,-5.471,-5.471,-5.5083,-5.5507,-5.5507,-5.5507,-5.5507,-5.5507,-5.5507,-5.5507,-5.5507,-5.5507,-5.5507,-5.5507,-5.5507,-5.5507,-5.5507,-5.5507,-5.5507,-5.5507,-5.5507,-5.5227,-5.4489,-5.4384,-5.4138,-5.3436,-5.3324,-5.3289,-5.3289,-5.1856,-5.0978,-5.0978,-5.0908,-5.0873,-5.0873,-5.0873,-5.0873,-5.0873,-5.0962,-5.1193,-5.1672,-5.2842,-5.3387,-5.3427,-5.4054,-5.4392,-5.3187,0.0,-5.4322,-5.3701,-5.3532,-5.3425,0.0,-5.2299,0.0,0.0,0.0,-5.0877,-5.1618,-5.1435,-5.1926,-5.4314,-5.4489,0.0,0.0,0.0,0.0,0.0,0.0,0.0,-5.9826,-5.8597,-5.807,-5.8667,-5.6736,-5.5753,-5.6315,-5.4489,-5.3366,-5.3218,-5.1856,-5.1084,-5.0873,-5.0873,-5.0873,-5.0873,-5.0873,-5.0978,-5.1154,-5.1575,-5.154,-5.1189,-5.1575,-5.1435,-5.0873,-5.0873,-5.0873,-5.0873,-5.0873,-5.1365,-5.2046,-5.2294,-5.2874,-5.3545,-5.38,-5.3649,-5.3213,-5.2868,-5.2764,-5.2764,-5.2764,-5.3683,-5.471,-5.471,-5.5083,-5.5507,-5.5507,-5.5507,-5.5507,-5.5507,-5.5507,-5.5507,-5.5507,-5.5507,-5.5507,-5.5507,-5.5507,-5.5507,-5.5507,-5.5507,-5.5507,-5.5507,-5.5507,-5.5437,-5.5262,-5.5227,-5.5156,-5.4981,-5.4419,-5.4033,-5.4033,-5.2628,-5.1751,-5.1751,-5.1224,-5.0873,-5.0873,-5.0873,-5.0873,-5.0873,-5.1298,-5.1546,-5.1672,-5.2635,-5.3198,-5.3407,-5.3833,-5.4163,-5.108,-5.2528,-5.3736,-5.2942,-5.3011,-5.308,0.0,0.0,0.0,0.0,0.0,0.0,-5.1372,0.0,0.0,0.0,-5.4454,0.0,0.0,0.0,0.0,0.0,0.0,-6.0107,0.0,-5.9053,-5.8386,-5.8457,-5.6947,-5.6034,-5.6104,-5.4244,-5.3218,-5.3218,-5.1708,-5.0873,-5.0873,-5.1224,-5.1224,-5.0873,-5.1224,-5.161,-5.1926,-5.1645,-5.1645,-5.1926,-5.1645,-5.1259,-5.0873,-5.0873,-5.0873,-5.0873,-5.062,-5.099,-5.1644,-5.1661,-5.2167,-5.2855,-5.3112,-5.3008,-5.2764,-5.248,-5.2409,-5.2409,-5.2409,-5.3145,-5.4009,-5.4267,-5.471,-5.5174,-5.5448,-5.5507,-5.5507,-5.5507,-5.5507,-5.5507,-5.5507,-5.5507,-5.5507,-5.5507,-5.5507,-5.5507,-5.5507,-5.5507,-5.5507,-5.5507,-5.5507,-5.5507,-5.5507,-5.5507,-5.5507,-5.5507,-5.5121,-5.4875,-5.4875,-5.3752,-5.2909,-5.2558,-5.1821,-5.14,-5.14,-5.1084,-5.0954,-5.1088,-5.1505,-5.1783,-5.1907,-5.2627,-5.3151,-5.3407,-5.372,-5.4072,-5.0287,-5.239,-5.4253,-5.3149,-5.346,-5.3632,0.0,0.0,0.0,0.0,0.0,0.0,0.0,0.0,0.0,0.0,0.0,0.0,0.0,0.0,0.0,0.0,0.0,0.0,-6.0107,-5.944,-5.8737,-5.8035,-5.7122,-5.6315,-5.5718,-5.4103,-5.3218,-5.3218,-5.1786,-5.1013,-5.0873,-5.154,-5.154,-5.0908,-5.154,-5.2137,-5.2621,-5.1435,-5.154,-5.2621,-5.14,-5.0873,-5.0873,-5.0873,-5.0846,-5.0737,-5.0417,-5.0674,-5.1257,-5.1114,-5.153,-5.2202,-5.2354,-5.2409,-5.2409,-5.2409,-5.2409,-5.2409,-5.2409,-5.2694,-5.3111,-5.3748,-5.4267,-5.4803,-5.5359,-5.5507,-5.5507,-5.5507,-5.5507,-5.5507,-5.5507,-5.5507,-5.5507,-5.5507,-5.5507,-5.5507,-5.5507,-5.5507,-5.5507,-5.5507,-5.5507,-5.5507,-5.5507,-5.5507,-5.5507,-5.5507,-5.5507,-5.5507,-5.5507,-5.4875,-5.4208,-5.3605,-5.2699,-5.2137,-5.2032,-5.1294,-5.1008,-5.1298,-5.1582,-5.1858,-5.2102,-5.2649,-5.3088,-5.3346,-5.3662,-5.3999,-5.1498,-5.3149,-5.3873,-5.1183,-5.108,-5.142,0.0,0.0,0.0,0.0,0.0,0.0,0.0,0.0,0.0,0.0,0.0,0.0,0.0,0.0,0.0,0.0,0.0,-6.0107,-6.0107,-5.944,-5.8948,-5.8843,-5.7438,-5.6561,-5.6455,-5.4384,-5.3218,-5.3218,-5.2312,-5.154,-5.0908,-5.1013,-5.1013,-5.0873,-5.1013,-5.0768,-5.0268,-5.0697,-5.0662,-5.0268,-5.0697,-5.0873,-5.0873,-5.0873,-5.062,-5.0257,-5.083,-5.1291,-5.1651,-5.1761,-5.2303,-5.2874,-5.252,-5.2409,-5.2409,-5.2409,-5.2409,-5.2409,-5.2409,-5.2445,-5.2694,-5.3616,-5.4267,-5.4803,-5.5359,-5.5507,-5.5507,-5.5507,-5.5507,-5.5507,-5.5507,-5.5507,-5.5507,-5.5507,-5.5507,-5.5507,-5.5507,-5.5507,-5.5507,-5.5507,-5.5507,-5.5507,-5.5507,-5.5507,-5.5507,-5.5507,-5.5507,-5.5507,-5.5507,-5.5402,-5.5262,-5.5156,-5.3787,-5.2699,-5.2032,-5.1294,-5.1008,-5.1298,-5.1582,-5.1858,-5.2102,-5.241,-5.2753,-5.3066,-5.3363,-5.3643,-5.0838,-5.2114,-5.2942,-5.1563,-5.239,-5.3253,0.0,0.0,0.0,0.0,0.0,0.0,0.0,0.0,0.0,0.0,0.0,0.0,0.0,0.0,0.0,0.0,0.0,-6.0107,-6.0107,-5.944,-5.8843,-5.8386,-5.7263,-5.642,-5.6034,-5.4208,-5.3366,-5.3787,-5.2628,-5.1856,-5.1505,-5.1505,-5.1294,-5.0873,-5.1294,-5.1294,-5.0943,-5.0452,-5.0487,-5.0908,-5.0452,-5.0487,-5.0873,-5.0592,-5.055,-5.0674,-5.0484,-5.0997,-5.1893,-5.2134,-5.2429,-5.2694,-5.248,-5.2409,-5.2409,-5.2409,-5.2409,-5.2409,-5.2409,-5.2553,-5.2939,-5.3682,-5.4074,-5.446,-5.5299,-5.5507,-5.5507,-5.5507,-5.5507,-5.5507,-5.5507,-5.5507,-5.5507,-5.5507,-5.5507,-5.5507,-5.5507,-5.5507,-5.5507,-5.5507,-5.5507,-5.5507,-5.5507,-5.5507,-5.5507,-5.5507,-5.5507,-5.5507,-5.5507,-5.5507,-5.5332,-5.4875,-5.4173,-5.326,-5.2067,-5.1681,-5.1511,-5.1531,-5.1658,-5.1907,-5.2317,-5.2434,-5.2663,-5.3002,-5.3281,-5.3565,-5.07,-5.1494,-5.2222,-5.2429,0.0,0.0,0.0,0.0,0.0,0.0,0.0,0.0,0.0,0.0,0.0,0.0,0.0,0.0,0.0,-5.9975,-6.0107,-6.0107,-6.0107,-6.0036,-5.9861,-5.9334,-5.8597,-5.7579,-5.6947,-5.621,-5.5262,-5.4103,-5.3647,-5.4033,-5.2909,-5.2207,-5.2004,-5.2004,-5.1645,-5.0908,-5.147,-5.1575,-5.1154,-5.0136,-5.0241,-5.1154,-5.0136,-5.0082,-5.0675,-5.0278,-5.0408,-5.0837,-5.027,-5.0892,-5.21,-5.2319,-5.2409,-5.2409,-5.2409,-5.2409,-5.2409,-5.2409,-5.2542,-5.2605,-5.2605,-5.3131,-5.3719,-5.4293,-5.4523,-5.4746,-5.5339,-5.5507,-5.5507,-5.5507,-5.5507,-5.5507,-5.5507,-5.5507,-5.5507,-5.5507,-5.5507,-5.5507,-5.5507,-5.5507,-5.5507,-5.5507,-5.5507,-5.5578,-5.5753,-5.5613,-5.5578,-5.5753,-5.5613,-5.5507,-5.5507,-5.5507,-5.5262,-5.463,-5.4419,-5.3787,-5.2593,-5.2383,-5.2199,-5.1933,-5.2136,-5.2339,-5.248,-5.2878,-5.2981,-5.2908,-5.3629,-5.4027,-5.277,-5.2701,-5.236,-5.3149,0.0,0.0,0.0,0.0,0.0,0.0,0.0,0.0,0.0,0.0,0.0,0.0,0.0,0.0,0.0,0.0,-6.0107,-6.0107,-6.0107,-5.9826,-5.9159,-5.9053,-5.8351,-5.6806,-5.6631,-5.5964,-5.4489,-5.4279,-5.3928,-5.3324,-5.3183,-5.2734,-5.2032,-5.2004,-5.1645,-5.0873,-5.0943,-5.0206,-4.8776,-4.9398,-4.9363,-4.8776,-4.9398,-4.9885,-5.0131,-5.0102,-5.0026,-4.9944,-5.0587,-5.1463,-5.2378,-5.2376,-5.2409,-5.2409,-5.2409,-5.2409,-5.2409,-5.2409,-5.2804,-5.3334,-5.3334,-5.4233,-5.5375,-5.586,-5.6364,-5.6573,-5.5709,-5.5507,-5.5507,-5.5507,-5.5507,-5.5507,-5.5507,-5.5507,-5.5507,-5.5507,-5.5507,-5.5507,-5.5507,-5.5507,-5.5507,-5.5507,-5.5507,-5.5753,-5.642,-5.5929,-5.5753,-5.6455,-5.5929,-5.5507,-5.5507,-5.5507,-5.5507,-5.5437,-5.4735,-5.4244,-5.4138,-5.3471,-5.2976,-5.2727,-5.3457,-5.3415,-5.248,-5.4001,-5.3989,-5.2585,-5.4758,-5.5311,-5.1149,-5.1089,-5.1117,-5.2337,0.0,0.0,0.0,0.0,0.0,0.0,0.0,0.0,0.0,0.0,0.0,0.0,0.0,0.0,-5.9685,-5.9946,-6.0107,-6.0107,-6.0107,-5.9826,-5.9089,-5.8562,-5.779,-5.6666,-5.6174,-5.5683,-5.5086,-5.4595,-5.4419,-5.463,-5.3682,-5.305,-5.2734,-5.2242,-5.1645,-5.0873,-5.0873,-5.0557,-4.996,-4.9258,-4.8916,-4.8851,-4.8615,-4.8716,-4.905,-4.9684,-5.0164,-5.0589,-5.1462,-5.2053,-5.2409,-5.2409,-5.2409,-5.2409,-5.2409,-5.2409,-5.244,-5.287,-5.3202,-5.35,-5.3927,-5.4953,-5.5927,-5.6133,-5.6835,-5.7433,-5.7026,-5.6947,-5.6947,-5.6947,-5.6947,-5.6947,-5.6947,-5.6947,-5.6947,-5.6947,-5.6947,-5.6947,-5.6947,-5.6947,-5.6947,-5.6947,-5.6947,-5.7052,-5.7298,-5.7087,-5.7052,-5.7333,-5.6666,-5.5999,-5.5543,-5.5507,-5.5507,-5.5507,-5.5227,-5.484,-5.4314,-5.4033,-5.3788,-5.3538,-5.4036,-5.4204,-5.4001,-5.4805,-5.4782,-5.4025,-5.5324,-5.5755,-5.0133,-4.9851,-4.9947,0.0,0.0,0.0,0.0,0.0,0.0,0.0,0.0,0.0,0.0,0.0,0.0,0.0,0.0,-5.9621,-5.9621,-5.9881,-6.0107,-6.0107,-5.9896,-5.944,-5.8702,-5.7895,-5.7087,-5.6315,-5.5543,-5.5121,-5.5121,-5.4595,-5.4454,-5.477,-5.3752,-5.3078,-5.2804,-5.2032,-5.14,-5.0873,-5.0873,-5.0768,-5.0452,-4.8986,-4.8459,-4.8674,-4.7928,-4.7929,-4.8515,-4.9434,-5.0289,-5.1095,-5.2018,-5.2409,-5.2409,-5.2409,-5.2409,-5.2409,-5.2409,-5.2409,-5.2506,-5.3202,-5.3566,-5.3861,-5.4589,-5.5799,-5.6884,-5.6884,-5.7657,-5.8527,-5.8527,-5.8176,-5.779,-5.779,-5.779,-5.779,-5.779,-5.779,-5.779,-5.779,-5.779,-5.779,-5.779,-5.779,-5.779,-5.779,-5.779,-5.7895,-5.8141,-5.7965,-5.779,-5.779,-5.7087,-5.6385,-5.5894,-5.5648,-5.5507,-5.5507,-5.5507,-5.5262,-5.47,-5.4752,-5.4649,-5.4384,-5.5044,-5.5293,-5.5062,-5.5816,-5.5825,-5.5249,-5.622,-5.6573,-5.0375,-4.9423,0.0,0.0,0.0,0.0,0.0,0.0,0.0,0.0,0.0,0.0,0.0,0.0,0.0,-5.9012,-5.9352,-5.9621,-5.9621,-5.9881,-6.0107,-6.0107,-5.944,-5.8702,-5.7895,-5.7087,-5.628,-5.5578,-5.477,-5.4314,-5.4314,-5.4314,-5.3963,-5.3218,-5.3218,-5.2804,-5.2032,-5.1259,-5.0873,-5.0873,-5.0873,-5.0452,-4.9679,-4.8448,-4.7885,-4.7857,-4.7414,-4.7776,-4.8769,-4.9512,-5.0426,-5.1382,-5.2111,-5.2409,-5.2409,-5.2409,-5.2409,-5.2409,-5.2409,-5.2409,-5.2506,-5.3202,-5.393,-5.4659,-5.5383,-5.6908,-5.8422,-5.8422,-5.9216,-6.0107,-6.0107,-5.8983,-5.7825,-5.7825,-5.7825,-5.7825,-5.7825,-5.7825,-5.7825,-5.7825,-5.7825,-5.7825,-5.7825,-5.7825,-5.7825,-5.7825,-5.7825,-5.8105,-5.8913,-5.8316,-5.7825,-5.7825,-5.7087,-5.6631,-5.6596,-5.5929,-5.5507,-5.5507,-5.5507,-5.5507,-5.5507,-5.5764,-5.5687,-5.5241,-5.6566,-5.6696,-5.544,-5.7028,-5.7175,-5.596,-5.7544,-5.8069,-4.8748,0.0,0.0,0.0,0.0,0.0,0.0,0.0,0.0,0.0,0.0,0.0,0.0,0.0,0.0,-5.9012,-5.9352,-5.9621,-5.9621,-5.9881,-6.0107,-6.0107,-5.944,-5.8702,-5.7895,-5.7087,-5.628,-5.5578,-5.5297,-5.4911,-5.4349,-5.4314,-5.3963,-5.3218,-5.2664,-5.2242,-5.2004,-5.1259,-5.0737,-5.0335,-5.0335,-5.0195,-4.9952,-4.9049,-4.8311,-4.7674,-4.756,-4.7768,-4.8361,-5.0126,-5.1355,-5.2111,-5.2307,-5.2409,-5.2409,-5.2409,-5.2409,-5.2409,-5.2409,-5.2705,-5.3235,-5.3964,-5.4655,-5.5383,-5.615,-5.7312,-5.8422,-5.8422,-5.9216,-6.0107,-6.0107,-5.9756,-5.9405,-5.9405,-5.9405,-5.9405,-5.9405,-5.9405,-5.9405,-5.9405,-5.9405,-5.9405,-5.9405,-5.9405,-5.9405,-5.9405,-5.9405,-5.951,-5.9756,-5.958,-5.9229,-5.8702,-5.8421,-5.807,-5.7509,-5.6736,-5.628,-5.628,-5.5788,-5.5507,-5.5507,-5.5764,-5.5971,-5.6062,-5.7132,-5.7517,-5.7102,-5.7771,-5.7951,-5.758,-5.8098,-5.8365,-4.8264,0.0,0.0,0.0,0.0,0.0,0.0,0.0,0.0,0.0,0.0,0.0,0.0,0.0,0.0,-5.9012,-5.9285,-5.9486,-5.9588,-5.9816,-6.0008,-6.0107,-5.9159,-5.8351,-5.786,-5.6806,-5.5999,-5.5543,-5.4946,-5.4489,-5.4314,-5.3717,-5.319,-5.2734,-5.2277,-5.1856,-5.1575,-5.0667,-5.0028,-4.9715,-4.9199,-4.8999,-4.9071,-4.8626,-4.8128,-4.7625,-4.8013,-4.8427,-4.9028,-5.0949,-5.2011,-5.2409,-5.2409,-5.2409,-5.2409,-5.2409,-5.2409,-5.2409,-5.2409,-5.2837,-5.3533,-5.4258,-5.4986,-5.579,-5.6754,-5.7701,-5.8457,-5.8702,-5.9383,-6.0107,-6.0107,-6.0107,-6.0107,-6.0107,-6.0107,-6.0107,-6.0107,-6.0107,-6.0107,-6.0107,-6.0107,-6.0107,-6.0107,-6.0107,-6.0107,-6.0107,-6.0107,-6.0107,-6.0107,-6.0107,-5.9931,-5.9475,-5.9194,-5.8808,-5.8316,-5.7544,-5.6947,-5.6631,-5.6174,-5.5823,-5.5507,-5.5879,-5.6189,-5.6383,-5.7498,-5.8037,-5.8006,-5.8363,-5.8561,-5.8686,-5.854,-5.8665,0.0,0.0,0.0,0.0,0.0,0.0,0.0,0.0,0.0,0.0,0.0,0.0,0.0,0.0,-5.9012,-5.9012,-5.9149,-5.9386,-5.9588,-5.9716,-5.9844,-5.9969,-5.8702,-5.779,-5.7719,-5.6385,-5.5507,-5.5507,-5.4138,-5.3541,-5.4173,-5.2804,-5.1997,-5.1899,-5.1836,-5.152,-5.0819,-4.9674,-4.9069,-4.8972,-4.7792,-4.733,-4.753,-4.7591,-4.7625,-4.7667,-4.8662,-4.9525,-5.032,-5.1711,-5.2343,-5.2409,-5.2409,-5.2409,-5.2409,-5.2409,-5.2409,-5.2407,-5.244,-5.2937,-5.3632,-5.4357,-5.5123,-5.6004,-5.7238,-5.7993,-5.8597,-5.9148,-5.9683,-6.0107,-6.0107,-6.0107,-6.0107,-6.0107,-6.0107,-6.0107,-6.0107,-6.0107,-6.0107,-6.0107,-6.0107,-6.0107,-6.0107,-6.0107,-6.0107,-6.0107,-6.0107,-6.0107,-6.0107,-6.0107,-6.0107,-6.0107,-5.951,-5.9124,-5.9124,-5.8386,-5.7614,-5.6842,-5.6736,-5.6385,-5.5648,-5.6148,-5.6383,-5.6383,-5.7642,-5.8319,-5.8319,-5.8624,-5.8967,-5.929,-5.8947,-5.8967,0.0,0.0,0.0,0.0,0.0,0.0,0.0,0.0,0.0,0.0,0.0,0.0,0.0,0.0,-5.9012,-5.9012,-5.9149,-5.9386,-5.9588,-5.9716,-5.9669,-5.9268,-5.8386,-5.7544,-5.6912,-5.6034,-5.5507,-5.5507,-5.463,-5.3892,-5.3436,-5.2523,-5.1751,-5.1154,-5.0753,-5.0417,-5.0278,-4.9648,-4.886,-4.7924,-4.7665,-4.7331,-4.7065,-4.7438,-4.7711,-4.7964,-4.873,-4.9525,-5.0286,-5.1148,-5.1879,-5.2409,-5.2409,-5.2409,-5.2409,-5.2409,-5.2409,-5.2509,-5.3003,-5.3665,-5.4357,-5.5118,-5.6154,-5.7238,-5.7517,-5.8315,-5.9114,-5.9249,-5.9683,-6.0107,-6.0107,-6.0107,-6.0107,-6.0107,-6.0107,-6.0107,-6.0107,-6.0107,-6.0107,-6.0107,-6.0107,-6.0107,-6.0107,-6.0107,-6.0107,-6.0107,-6.0107,-6.0107,-6.0107,-6.0107,-6.0107,-6.0107,-5.9966,-5.9861,-5.9861,-5.9159,-5.8667,-5.8492,-5.7895,-5.7193,-5.6385,-5.6397,-5.6383,-5.6383,-5.7642,-5.8319,-5.8319,-5.8624,-5.8967,-5.929,-5.8947,-5.8967,0.0,0.0,0.0,0.0,0.0,0.0,0.0,0.0,0.0,0.0,0.0,0.0,0.0,-5.9012,-5.9012,-5.9012,-5.9081,-5.9285,-5.9588,-5.9652,-5.9536,-5.9057,-5.8281,-5.7474,-5.6666,-5.5929,-5.5367,-5.4946,-5.4208,-5.3436,-5.2664,-5.1661,-5.0893,-5.0537,-5.0051,-4.9756,-4.9756,-4.8596,-4.7864,-4.7558,-4.6304,-4.5929,-4.6409,-4.736,-4.7861,-4.8067,-4.916,-4.9856,-5.0286,-5.138,-5.2078,-5.2409,-5.2409,-5.2409,-5.2409,-5.2409,-5.2409,-5.2473,-5.3169,-5.3861,-5.4663,-5.5692,-5.6724,-5.7698,-5.8244,-5.8806,-5.9351,-5.9617,-5.9879,-6.0107,-6.0107,-6.0107,-6.0107,-6.0107,-6.0107,-6.0107,-6.0107,-6.0107,-6.0107,-6.0107,-6.0107,-6.0107,-6.0107,-6.0107,-6.0107,-6.0107,-6.0107,-6.0107,-6.0107,-6.0107,-6.0107,-6.0107,-6.0107,-6.0107,-6.0107,-5.9756,-5.9369,-5.9018,-5.8632,-5.8097,-5.7434,-5.7477,-5.7132,-5.6418,-5.7642,-5.8319,-5.8319,-5.8788,-5.914,-5.929,-5.914,-5.914,0.0,0.0,0.0,0.0,0.0,0.0,0.0,0.0,0.0,0.0,0.0,0.0,0.0,-5.8702,-5.8771,-5.8771,-5.8875,-5.9047,-5.9554,-5.9415,-5.9166,-5.8815,-5.807,-5.7298,-5.649,-5.5859,-5.5191,-5.4384,-5.3612,-5.2811,-5.1955,-5.0752,-5.0045,-4.9988,-4.9521,-4.9282,-4.9282,-4.7609,-4.6996,-4.7435,-4.5236,-4.4821,-4.6046,-4.7404,-4.8001,-4.8067,-4.9293,-4.9988,-5.032,-5.1512,-5.2142,-5.2409,-5.2409,-5.2409,-5.2409,-5.2409,-5.2409,-5.2506,-5.3334,-5.396,-5.4734,-5.6194,-5.7156,-5.792,-5.8978,-5.9385,-5.9551,-5.9975,-6.0107,-6.0107,-6.0107,-6.0107,-6.0107,-6.0107,-6.0107,-6.0107,-6.0107,-6.0107,-6.0107,-6.0107,-6.0107,-6.0107,-6.0107,-6.0107,-6.0107,-6.0107,-6.0107,-6.0107,-6.0107,-6.0107,-6.0107,-6.0107,-6.0107,-6.0107,-6.0107,-6.0107,-5.9826,-5.9229,-5.9194,-5.8998,-5.8485,-5.8772,-5.8267,-5.6893,-5.791,-5.8356,-5.8231,-5.8868,-5.9215,-5.9215,-5.9272,-5.929,0.0,0.0,0.0,0.0,0.0,0.0,0.0,0.0,0.0,0.0,0.0,0.0,-5.692,-5.7483,-5.7959,-5.7959,-5.8314,-5.8806,-5.9521,-5.8696,-5.8035,-5.7942,-5.7263,-5.6455,-5.5718,-5.5578,-5.5191,-5.4384,-5.3612,-5.2698,-5.1466,-5.0581,-4.9902,-4.9492,-4.9043,-4.8796,-4.8796,-4.8124,-4.7534,-4.697,-4.6641,-4.6543,-4.6775,-4.7636,-4.8001,-4.8001,-4.8199,-4.9028,-5.022,-5.0419,-5.1247,-5.2409,-5.2409,-5.2409,-5.2409,-5.2409,-5.2409,-5.2572,-5.3897,-5.439,-5.4833,-5.6798,-5.7853,-5.8422,-5.908,-5.9617,-6.0043,-6.0107,-6.0107,-6.0107,-6.0107,-6.0107,-6.0107,-6.0107,-6.0107,-6.0107,-6.0107,-6.0107,-6.0107,-6.0107,-6.0107,-6.0107,-6.0107,-6.0107,-6.0107,-6.0107,-6.0107,-6.0107,-6.0107,-6.0107,-6.0107,-6.0107,-6.0107,-6.0107,-6.0107,-6.0107,-6.0072,-5.9966,-5.9931,-5.9738,-5.9264,-5.9562,-5.9459,-5.8843,-5.8881,-5.8577,-5.7844,-5.854,-5.8868,-5.8868,-5.9178,-5.929,0.0,0.0,0.0,0.0,0.0,0.0,0.0,0.0,0.0,0.0,0.0,0.0,-5.642,-5.6882,-5.7147,-5.7147,-5.7483,-5.7751,-5.7806,-5.7569,-5.7123,-5.6383,-5.6252,-5.5885,-5.5122,-5.5294,-5.5016,-5.3787,-5.3165,-5.2172,-5.0691,-4.9781,-4.9222,-4.9012,-4.8545,-4.8292,-4.8292,-4.7667,-4.7007,-4.6278,-4.7106,-4.7305,-4.6941,-4.7669,-4.8001,-4.8034,-4.8431,-4.9226,-5.0253,-5.0651,-5.1446,-5.2409,-5.2409,-5.2409,-5.2409,-5.2409,-5.2409,-5.2572,-5.403,-5.449,-5.4907,-5.7265,-5.8209,-5.8597,-5.9485,-5.9911,-6.0107,-6.0107,-6.0107,-6.0107,-6.0107,-6.0107,-6.0107,-6.0107,-6.0423,-6.0774,-6.0774,-6.0423,-6.0107,-6.0107,-6.0107,-6.0107,-6.0107,-6.0107,-6.0107,-6.0107,-6.0107,-6.0107,-6.0107,-6.0107,-6.0107,-6.0107,-6.0107,-6.0107,-6.0107,-6.0107,-6.0107,-6.0107,-6.0107,-6.0184,-6.032,-6.0662,-6.0616,-6.0115,-5.9368,-5.893,-5.8773,-5.8784,-5.8888,-5.9064,-5.9234,-5.929,0.0,0.0,0.0,0.0,0.0,0.0,0.0,0.0,0.0,0.0,0.0,0.0,-5.5749,-5.6224,-5.6459,-5.6459,-5.6716,-5.6865,-5.6586,-5.6428,-5.6063,-5.521,-5.5264,-5.5176,-5.4557,-5.4834,-5.4451,-5.2916,-5.2483,-5.1558,-4.986,-4.907,-4.8639,-4.8547,-4.8163,-4.8001,-4.8001,-4.7438,-4.6908,-4.6378,-4.7471,-4.7703,-4.7206,-4.7736,-4.8001,-4.8034,-4.8597,-4.9359,-5.0253,-5.0783,-5.158,-5.2409,-5.2409,-5.2409,-5.2409,-5.2409,-5.2409,-5.2572,-5.403,-5.449,-5.4944,-5.752,-5.8422,-5.8632,-5.9748,-6.0107,-6.0107,-6.0107,-6.0107,-6.0107,-6.0107,-6.0107,-6.0142,-6.0352,-6.0844,-6.1336,-6.1546,-6.109,-6.0668,-6.0668,-6.0668,-6.0668,-6.0668,-6.0528,-6.0388,-6.0388,-6.0212,-6.0107,-6.0107,-6.0107,-6.0107,-6.0107,-6.0107,-6.0107,-6.0107,-6.0107,-6.0107,-6.0107,-6.0107,-6.0423,-6.1064,-6.1451,-6.1462,-6.126,-6.0186,-5.9614,-5.9674,-5.9202,-5.9163,-5.9515,-5.9366,-5.929,0.0,0.0,0.0,0.0,0.0,0.0,0.0,0.0,0.0,0.0,0.0,-5.4146,-5.42,-5.5213,-5.602,-5.602,-5.6165,-5.6438,-5.6978,-5.5478,-5.4531,-5.504,-5.4457,-5.3979,-5.3945,-5.3977,-5.3393,-5.1887,-5.1785,-5.0853,-4.8863,-4.8733,-4.8515,-4.8066,-4.8001,-4.8001,-4.8001,-4.7968,-4.7934,-4.7901,-4.7968,-4.7968,-4.7934,-4.7968,-4.8001,-4.8001,-4.8034,-4.8895,-5.022,-5.0253,-5.1115,-5.2409,-5.2409,-5.2409,-5.2409,-5.2409,-5.2409,-5.2572,-5.403,-5.449,-5.4944,-5.752,-5.8422,-5.8632,-5.9748,-6.0107,-6.0107,-6.0107,-6.0107,-6.0107,-6.0107,-6.0107,-6.0282,-6.1055,-6.1265,-6.1476,-6.2178,-6.2283,-6.2248,-6.2248,-6.2248,-6.2248,-6.2248,-6.1687,-6.123,-6.123,-6.0598,-6.0107,-6.0107,-6.0107,-6.0107,-6.0107,-6.0107,-6.0107,-6.0107,-6.0107,-6.0107,-6.0107,-6.0107,-6.0423,-6.1064,-6.1451,-6.1879,-6.2479,-6.1689,-6.0908,-6.0152,-5.9711,-5.9662,-6.0058,-5.9533,-5.929,0.0,0.0,0.0,0.0,0.0,0.0,0.0,0.0,0.0,0.0,0.0,-5.4103,-5.4103,-5.4707,-5.5246,-5.5246,-5.5352,-5.5345,-5.5073,-5.4286,-5.363,-5.3373,-5.3348,-5.3382,-5.3382,-5.3715,-5.3502,-5.2477,-5.1679,-5.0712,-4.9476,-4.8654,-4.8163,-4.8001,-4.8001,-4.8001,-4.8001,-4.8001,-4.8001,-4.8001,-4.8001,-4.8001,-4.8001,-4.8001,-4.8001,-4.8001,-4.8001,-4.8829,-5.022,-5.022,-5.1082,-5.2409,-5.2409,-5.2409,-5.2409,-5.2409,-5.2409,-5.2572,-5.403,-5.449,-5.4944,-5.752,-5.8422,-5.8632,-5.9748,-6.0107,-6.0107,-6.0107,-6.0107,-6.0107,-6.0107,-6.0493,-6.1195,-6.2459,-6.2775,-6.2986,-6.3723,-6.3091,-6.2389,-6.2389,-6.2389,-6.2389,-6.2389,-6.2178,-6.2003,-6.2003,-6.1757,-6.1581,-6.1581,-6.1581,-6.1371,-6.0914,-6.0879,-6.0668,-6.0142,-6.0107,-6.0107,-6.0107,-6.0107,-6.0423,-6.1064,-6.1668,-6.2172,-6.2603,-6.2767,-6.247,-6.1678,-6.0728,-6.0305,-6.0413,-6.021,-5.9816,-4.3295,0.0,0.0,0.0,0.0,0.0,0.0,0.0,0.0,0.0,0.0,-5.4146,-5.4316,-5.4707,-5.4998,-5.4998,-5.5107,-5.4936,-5.4213,-5.368,-5.3169,-5.2473,-5.2694,-5.287,-5.287,-5.3213,-5.3078,-5.2367,-5.1328,-5.0358,-4.9589,-4.8595,-4.8001,-4.8001,-4.8001,-4.8001,-4.8001,-4.8001,-4.8001,-4.8001,-4.8001,-4.8001,-4.8001,-4.8001,-4.8001,-4.8001,-4.8001,-4.8829,-5.022,-5.022,-5.1082,-5.2409,-5.2409,-5.2409,-5.2409,-5.2409,-5.2409,-5.2572,-5.403,-5.4605,-5.5205,-5.7591,-5.8527,-5.8875,-5.9814,-6.0107,-6.0107,-6.0107,-6.0107,-6.0142,-6.0423,-6.1265,-6.2319,-6.3337,-6.3793,-6.4109,-6.4601,-6.3898,-6.3161,-6.3161,-6.3161,-6.3161,-6.3161,-6.2951,-6.2775,-6.2775,-6.2564,-6.2389,-6.2389,-6.2389,-6.2213,-6.1722,-6.1652,-6.1336,-6.0563,-6.0493,-6.0388,-6.0107,-6.0107,-6.0423,-6.1064,-6.1833,-6.238,-6.2768,-6.3391,-6.351,-6.3094,-6.1893,-6.1353,-6.143,-6.0867,-6.0304,0.0,0.0,0.0,0.0,0.0,0.0,0.0,0.0,0.0,0.0,0.0,-5.4179,-5.4707,-5.5122,-5.5409,-5.5409,-5.5542,-5.5317,-5.4589,-5.3897,-5.3169,-5.2473,-5.2409,-5.2409,-5.2409,-5.2409,-5.2111,-5.1382,-5.0651,-4.9922,-4.9193,-4.8398,-4.8001,-4.8001,-4.8001,-4.8001,-4.8001,-4.8001,-4.8001,-4.8001,-4.8001,-4.8001,-4.8001,-4.8001,-4.8001,-4.8001,-4.8034,-4.8862,-5.022,-5.022,-5.1082,-5.2409,-5.2409,-5.2409,-5.2409,-5.2409,-5.2409,-5.2572,-5.403,-5.4898,-5.5711,-5.7769,-5.8806,-5.9418,-5.9911,-6.0107,-6.0107,-6.0107,-6.0107,-6.0282,-6.1125,-6.2459,-6.3618,-6.3618,-6.4179,-6.4672,-6.4672,-6.4672,-6.4672,-6.4672,-6.4672,-6.4672,-6.4672,-6.4109,-6.3618,-6.3618,-6.2951,-6.2459,-6.2459,-6.2459,-6.2459,-6.2424,-6.2424,-6.2143,-6.1406,-6.13,-6.0984,-6.0177,-6.0107,-6.0423,-6.1064,-6.1833,-6.2471,-6.3084,-6.349,-6.3915,-6.4284,-6.3094,-6.272,-6.3045,-6.143,-6.0642,-4.1588,0.0,0.0,0.0,0.0,0.0,0.0,0.0,0.0,0.0,0.0,-5.2884,-5.4873,-5.5572,-5.5927,-5.5927,-5.5737,-5.5317,-5.4589,-5.3897,-5.3169,-5.2473,-5.2409,-5.2409,-5.2409,-5.2409,-5.2343,0.0,-5.138,-5.0651,-4.9955,-4.8696,-4.8001,-4.8001,-4.8001,-4.8001,-4.8001,-4.8001,-4.8001,-4.8001,-4.8001,-4.8001,-4.8001,-4.8001,-4.8001,-4.8034,-4.8564,-4.9326,-5.022,-5.022,-5.1082,-5.2409,-5.2409,-5.2409,-5.2409,-5.2409,-5.2409,-5.2644,-5.4506,-5.5261,-5.5781,-5.8256,-5.9148,-5.9418,-5.9911,-6.0107,-6.0107,-6.0107,-6.0107,-6.0388,-6.1722,-6.2845,-6.3723,-6.4285,-6.4566,-6.4672,-6.4672,-6.4672,-6.4672,-6.4672,-6.4672,-6.4672,-6.4672,-6.453,-6.4425,-6.4425,-6.4214,-6.4074,-6.4074,-6.4074,-6.3863,-6.3337,-6.3267,-6.2951,-6.2143,-6.1616,-6.1195,-6.0984,-6.0646,-6.0671,-6.1064,-6.2023,-6.2708,-6.3084,-6.3792,-6.4203,-6.4284,-6.3654,-6.328,-6.3083,-6.1994,-6.1468,0.0,0.0,0.0,0.0,0.0,0.0,0.0,-4.8237,0.0,0.0,0.0,-5.2778,-5.4435,-5.5012,-5.5345,-5.583,-5.5727,-5.5317,-5.4589,-5.4162,-5.35,-5.2506,-5.2409,-5.2409,-5.2409,-5.2409,-5.2409,-5.2409,-5.1746,-5.0817,-4.9823,-4.863,-4.8001,-4.8001,-4.8001,-4.8001,-4.8001,-4.8001,-4.8001,-4.8001,-4.8001,-4.8001,-4.8001,-4.8001,-4.8001,-4.8034,-4.8796,-4.9525,-5.022,-5.0518,-5.1347,-5.2409,-5.2409,-5.2409,-5.2409,-5.2409,-5.2518,-5.2964,-5.4757,-5.5685,-5.6406,-5.8597,-5.9451,-5.9683,-6.001,-6.0107,-6.0107,-6.0107,-6.0563,-6.1265,-6.2143,-6.3231,-6.4179,-6.4601,-6.4672,-6.4672,-6.4672,-6.4672,-6.4672,-6.4672,-6.4672,-6.4672,-6.4672,-6.4672,-6.4672,-6.4672,-6.4672,-6.4672,-6.4672,-6.4672,-6.4566,-6.4109,-6.4074,-6.3758,-6.2951,-6.2494,-6.2003,-6.1336,-6.1164,-6.1051,-6.1129,-6.2139,-6.2818,-6.3084,-6.3878,-6.4284,-6.4284,-6.4063,-6.3651,-6.3083,-6.2595,-6.2332,0.0,0.0,0.0,0.0,0.0,0.0,-4.8696,-4.8839,-4.8822,0.0,0.0,0.0,-5.3367,-5.3574,-5.3917,-5.4849,-5.5185,-5.5152,-5.4556,-5.449,-5.3997,-5.2539,-5.2409,-5.2409,-5.2409,-5.2409,-5.2409,-5.2409,-5.1647,-5.0585,-4.9293,-4.8465,-4.8001,-4.8001,-4.8001,-4.8001,-4.8001,-4.8001,-4.8001,-4.8001,-4.8001,-4.8001,-4.8001,-4.8001,-4.8001,-4.8067,-4.8862,-4.9591,-5.0286,-5.1082,-5.1812,-5.2409,-5.2409,-5.2409,-5.2409,-5.248,-5.2797,-5.3482,-5.5037,-5.6235,-5.7376,-5.8899,-5.9716,-6.0107,-6.0107,-6.0107,-6.0107,-6.0212,-6.1265,-6.2424,-6.2494,-6.3618,-6.4672,-6.4672,-6.4672,-6.4672,-6.4672,-6.4672,-6.4672,-6.4672,-6.4672,-6.4672,-6.4672,-6.4672,-6.4672,-6.4672,-6.4672,-6.4672,-6.4672,-6.4672,-6.4672,-6.4672,-6.4672,-6.446,-6.3793,-6.3653,-6.3054,-6.1717,-6.1722,-6.161,-6.1266,-6.2229,-6.2867,-6.3084,-6.3878,-6.4284,-6.4284,-6.4284,-6.3909,-6.3233,-6.3233,-6.3233,0.0,-4.2031,-4.2477,-4.2584,-4.329,0.0,-4.4879,-4.4818,-4.5404,0.0,0.0,0.0,-5.0544,-5.1407,-5.1706,-5.1312,-5.2705,-5.3997,-5.4423,-5.449,-5.3997,-5.2539,-5.2409,-5.2409,-5.2409,-5.2409,-5.2409,-5.2409,-5.1181,-5.0286,-5.0021,-4.873,-4.8001,-4.8001,-4.8001,-4.8001,-4.8001,-4.8001,-4.8001,-4.8001,-4.8001,-4.8001,-4.8001,-4.8001,-4.8001,-4.8067,-4.9425,-5.0088,-5.032,-5.1612,-5.2277,-5.2409,-5.2409,-5.2409,-5.2445,-5.2835,-5.3446,-5.4328,-5.6094,-5.7248,-5.817,-5.9534,-6.0008,-6.0107,-6.0107,-6.0107,-6.0247,-6.0879,-6.1687,-6.2529,-6.3196,-6.4039,-6.4672,-6.4672,-6.4672,-6.4672,-6.4672,-6.4672,-6.4672,-6.4672,-6.4672,-6.4672,-6.4672,-6.4672,-6.4672,-6.4672,-6.4672,-6.4672,-6.4672,-6.4672,-6.4672,-6.4672,-6.4672,-6.4671,-6.4495,-6.3934,-6.3612,-6.3559,-6.2635,-6.2188,-6.2406,-6.2808,-6.3036,-6.3084,-6.3878,-6.4284,-6.4284,-6.4284,-6.4209,-6.4059,-6.4059,-6.4059,-4.2009,-4.2137,-4.249,-4.2816,-4.3202,0.0,0.0,-4.4788,-4.5114,-4.7276,-4.7408,-4.7572,0.0,0.0,-4.9756,-5.0154,-5.1413,-5.2473,-5.2837,-5.3533,-5.3566,-5.2506,-5.2409,-5.2409,-5.2409,-5.2409,-5.2409,-5.2409,-5.1015,-5.022,-5.022,-4.8796,-4.8001,-4.8001,-4.8001,-4.8001,-4.8001,-4.8001,-4.8001,-4.8001,-4.8001,-4.8001,-4.8001,-4.8001,-4.8199,-4.863,-4.9723,-5.0419,-5.0817,-5.191,-5.2409,-5.2409,-5.2409,-5.2518,-5.2765,-5.3009,-5.3957,-5.5276,-5.6558,-5.7712,-5.8771,-5.9797,-6.0107,-6.0107,-6.0107,-6.0107,-6.0247,-6.1055,-6.1827,-6.2564,-6.3372,-6.4144,-6.4672,-6.4672,-6.4672,-6.4672,-6.4672,-6.4672,-6.4672,-6.4672,-6.4672,-6.4672,-6.4672,-6.4672,-6.4672,-6.4672,-6.4672,-6.4672,-6.4672,-6.4672,-6.4672,-6.4672,-6.4672,-6.4672,-6.4672,-6.4355,-6.4104,-6.4081,-6.3654,-6.3208,-6.2745,-6.3324,-6.3715,-6.3705,-6.4083,-6.4284,-6.4284,-6.4284,-6.4284,-6.4284,-6.4284,-6.4284,-4.2651,-4.2717,-4.3072,-4.3654,-4.3652,-4.3943,0.0,0.0,0.0,-4.6877,-4.7173,0.0,0.0,0.0,0.0,0.0,0.0,0.0,0.0,-5.1545,0.0,-5.2009,-5.2208,-5.2343,-5.221,-5.2042,-5.2075,-5.2409,-5.0916,-5.0055,-5.022,-4.8961,-4.8166,-4.8001,-4.8001,-4.8001,-4.8001,-4.8001,-4.8001,-4.8001,-4.8001,-4.8001,-4.8001,-4.8166,-4.8531,-4.916,-5.0021,-5.075,-5.1382,-5.2111,-5.2409,-5.2409,-5.2516,-5.2765,-5.3111,-5.3349,-5.4559,-5.6229,-5.6883,-5.8072,-5.9299,-5.9896,-6.0107,-6.0107,-6.0107,-6.0107,-6.0282,-6.123,-6.1932,-6.2599,-6.3547,-6.425,-6.4672,-6.4672,-6.4672,-6.4672,-6.4672,-6.4672,-6.4672,-6.4672,-6.4672,-6.4672,-6.4672,-6.4672,-6.4672,-6.4672,-6.4672,-6.4672,-6.4672,-6.4672,-6.4672,-6.4672,-6.4672,-6.4672,-6.4672,-6.4809,-6.4798,-6.4554,-6.4756,-6.4471,-6.3551,-6.4115,-6.439,-6.4322,-6.4284,-6.4284,-6.4284,-6.4284,-6.4284,-6.4284,-6.4284,-6.4284,-4.4313,-4.496,-4.5644,-4.443,-4.5505,-4.6356,-4.437,0.0,-4.4658,-4.4194,0.0,0.0,0.0,0.0,0.0,0.0,0.0,0.0,-4.7404,-4.81,-4.9094,-5.032,-5.1578,-5.2144,-5.1514,-5.0817,-5.0982,-5.231,-5.0419,-4.9525,-5.0187,-4.9425,-4.8696,-4.8034,-4.8001,-4.8001,-4.8001,-4.8001,-4.8001,-4.8001,-4.8001,-4.8001,-4.8034,-4.8696,-4.9028,-4.9193,-5.0551,-5.1249,-5.1382,-5.2111,-5.2409,-5.2445,-5.287,-5.3043,-5.3213,-5.4171,-5.5516,-5.6955,-5.7538,-5.8675,-6.0001,-6.0072,-6.0107,-6.0107,-6.0107,-6.0107,-6.0388,-6.1862,-6.2319,-6.274,-6.4214,-6.4671,-6.4672,-6.4672,-6.4672,-6.4672,-6.4672,-6.4672,-6.4672,-6.4672,-6.4672,-6.4672,-6.4672,-6.4672,-6.4672,-6.4672,-6.4672,-6.4672,-6.4672,-6.4672,-6.4672,-6.4672,-6.4672,-6.4672,-6.4672,-6.5242,-6.5721,-6.6145,-6.5981,-6.6033,-6.6305,-6.5403,-6.4694,-6.4322,-6.4284,-6.4284,-6.4284,-6.4284,-6.4284,-6.4284,-6.4284,-6.4284,-4.4407,-4.4957,-4.5544,-4.4951,-4.5472,-4.5798,-4.453,-4.4158,-4.3992,-4.3664,0.0,0.0,0.0,0.0,0.0,0.0,-4.5384,0.0,0.0,0.0,-4.8398,0.0,0.0,0.0,-5.0618,-5.0386,-5.0651,-5.168,-5.0121,-4.9425,-5.0187,-4.9525,-4.8961,-4.8663,-4.8233,-4.8001,-4.8001,-4.8001,-4.8001,-4.8001,-4.8001,-4.8001,-4.8034,-4.8763,-4.9326,-4.9823,-5.085,-5.1547,-5.1978,-5.2277,-5.2409,-5.248,-5.3247,-5.3583,-5.3616,-5.4074,-5.5617,-5.751,-5.7728,-5.8808,-6.0107,-6.0107,-6.0107,-6.0107,-6.0107,-6.0107,-6.0423,-6.1967,-6.2389,-6.274,-6.432,-6.4672,-6.4672,-6.4672,-6.4672,-6.4672,-6.4672,-6.4672,-6.4672,-6.4672,-6.4672,-6.4672,-6.4672,-6.4672,-6.4672,-6.4672,-6.4672,-6.4672,-6.4672,-6.4672,-6.4672,-6.4672,-6.4672,-6.4672,-6.4672,-6.5308,-6.5882,-6.6374,-6.6473,-6.6468,-6.6391,-6.55,-6.4775,-6.4322,-6.4284,-6.4284,-6.4284,-6.4284,-6.4284,-6.4284,-6.4284,-6.4284,-4.4982,-4.5434,-4.5993,-4.5408,-4.5374,-4.5307,-4.4563,-4.4291,-4.4158,-4.3959,-4.4194,0.0,0.0,0.0,0.0,0.0,0.0,-4.5483,0.0,-4.6245,0.0,0.0,0.0,0.0,0.0,-4.9657,-4.979,-5.0883,-4.9425,-4.8995,-5.0154,-4.969,-4.9326,-4.9127,-4.8597,-4.8199,-4.8001,-4.8001,-4.8001,-4.8001,-4.8001,-4.81,-4.8332,-4.9094,-4.9823,-5.0551,-5.128,-5.1912,-5.2409,-5.2409,-5.248,-5.2659,-5.3382,-5.3879,-5.4139,-5.4267,-5.5807,-5.779,-5.779,-5.8808,-6.0107,-6.0107,-6.0107,-6.0107,-6.0107,-6.0247,-6.0704,-6.2003,-6.2564,-6.3021,-6.4355,-6.4672,-6.4672,-6.4672,-6.4672,-6.4672,-6.4672,-6.4672,-6.4672,-6.4672,-6.4672,-6.4672,-6.4672,-6.4672,-6.4672,-6.4672,-6.4672,-6.4672,-6.4672,-6.4672,-6.4672,-6.4672,-6.4672,-6.4672,-6.4672,-6.5468,-6.6307,-6.7093,-6.7354,-6.7202,-6.6635,-6.5873,-6.5218,-6.4622,-6.4397,-6.4284,-6.4284,-6.4284,-6.4284,-6.4284,-6.4284,-6.4284,-4.6674,-4.7261,-4.7891,-4.5832,-4.5799,-4.5798,-4.4034,-4.4721,-4.5516,-4.4787,-4.5781,-4.6576,-4.5847,-4.5715,0.0,0.0,0.0,0.0,0.0,0.0,0.0,0.0,0.0,0.0,0.0,-4.8266,-4.7901,-5.0088,-4.8199,-4.7934,-5.0088,-5.0187,-4.9856,-4.9127,-4.9094,-4.873,-4.8001,-4.8001,-4.8001,-4.8001,-4.8001,-4.8365,-4.9094,-4.9856,-5.0585,-5.1315,-5.2045,-5.2409,-5.2409,-5.2409,-5.2659,-5.3077,-5.3111,-5.3781,-5.4741,-5.5234,-5.646,-5.779,-5.779,-5.8808,-6.0107,-6.0107,-6.0107,-6.0107,-6.0107,-6.0633,-6.1406,-6.2178,-6.2951,-6.3723,-6.4495,-6.4672,-6.4672,-6.4672,-6.4672,-6.4672,-6.4672,-6.4672,-6.4672,-6.4672,-6.4672,-6.4672,-6.4672,-6.4672,-6.4672,-6.4672,-6.4672,-6.4672,-6.4672,-6.4672,-6.4672,-6.4672,-6.4672,-6.4672,-6.4672,-6.5971,-6.7386,-6.8832,-6.9034,-6.8747,-6.798,-6.7176,-6.6349,-6.5486,-6.4697,-6.4284,-6.4284,-6.4284,-6.4284,-6.4284,-6.4284,-6.4284,-4.7521,-4.8227,-4.8721,-4.6797,-4.668,-4.6553,-4.4729,-4.5086,-4.5582,-4.4854,-4.5881,-4.6676,-4.5947,-4.5781,0.0,0.0,0.0,0.0,0.0,0.0,0.0,0.0,0.0,0.0,0.0,0.0,-4.7934,-4.8696,-4.8067,-4.8166,-4.9425,-4.9955,-5.0088,-4.9856,-4.9856,-4.9491,-4.8763,-4.9226,-4.9226,-4.873,-4.9226,-4.9591,-4.9856,-5.0585,-5.1048,-5.1348,-5.2111,-5.2409,-5.2409,-5.2764,-5.2973,-5.3179,-5.3879,-5.4362,-5.478,-5.5518,-5.6637,-5.7965,-5.8983,-5.965,-6.0107,-6.0107,-6.0107,-6.0107,-6.0107,-6.0668,-6.1441,-6.2178,-6.2986,-6.3758,-6.453,-6.4672,-6.4672,-6.4672,-6.4672,-6.4672,-6.4672,-6.4672,-6.4672,-6.4672,-6.4672,-6.4672,-6.4672,-6.4672,-6.4672,-6.4672,-6.4672,-6.4672,-6.4672,-6.4672,-6.4672,-6.4672,-6.4672,-6.4672,-6.4672,-6.6059,-6.7547,-6.89,-6.9116,-6.8865,-6.8039,-6.7739,-6.6913,-6.5523,-6.5223,-6.481,-6.4284,-6.4284,-6.4284,-6.4284,-6.4284,-6.4284,-4.8035,-4.8656,-4.9133,-4.7561,-4.7491,-4.7406,-4.5851,-4.6245,-4.6742,-4.6013,-4.6841,-4.7636,-4.7404,-4.6709,0.0,0.0,0.0,0.0,0.0,-4.3598,0.0,0.0,0.0,0.0,0.0,0.0,-4.7139,-4.7934,-4.7504,0.0,0.0,-4.9823,-5.022,-5.022,-5.0452,-5.0253,-4.9525,-4.9988,-4.9988,-4.9525,-4.9988,-5.0353,-5.0618,-5.1048,-5.1448,-5.1746,-5.221,-5.2516,-5.2659,-5.3008,-5.3315,-5.3748,-5.4425,-5.4977,-5.5409,-5.5962,-5.7052,-5.8421,-5.965,-6.0107,-6.0107,-6.0107,-6.0107,-6.0107,-6.0107,-6.0844,-6.1792,-6.2248,-6.3161,-6.4109,-6.4601,-6.4672,-6.4672,-6.4672,-6.4672,-6.4672,-6.4672,-6.4672,-6.4672,-6.4672,-6.4672,-6.4672,-6.4672,-6.4672,-6.4672,-6.4672,-6.4672,-6.4672,-6.4672,-6.4672,-6.4672,-6.4672,-6.4672,-6.491,-6.5501,-6.6415,-6.7563,-6.8968,-6.9138,-6.8956,-6.8452,-6.8152,-6.7476,-6.6425,-6.6124,-6.5561,-6.4735,-6.4735,-6.4585,-6.4284,-6.4284,-6.4284]},{"header":{"parameterUnit":"m.s-1","parameterCategory":1,"la1":30.6,"la2":29.2853,"lo1":-89.7004,"lo2":-87.6739,"dy":0.0162,"dx":0.0183,"nx":112,"ny":82,"refTime":"2025-03-15T18:00:00:Z","depth":0,"parameterNumber":3,"parameterNumberName":"V-component_of_WINDS"},"data":[0.0,0.0,0.0,0.0,0.0,0.0,0.0,0.0,0.0,0.0,0.0,0.0,0.0,0.0,0.0,0.0,0.0,0.0,0.0,0.0,0.0,0.0,0.0,0.0,0.0,0.0,0.0,0.0,0.0,0.0,0.0,0.0,0.0,0.0,0.0,0.0,0.0,0.0,0.0,0.0,0.0,0.0,0.0,0.0,0.0,0.0,0.0,0.0,0.0,0.0,0.0,0.0,0.0,0.0,0.0,0.0,0.0,0.0,0.0,0.0,0.0,0.0,0.0,0.0,0.0,0.0,0.0,0.0,0.0,0.0,0.0,0.0,0.0,0.0,0.0,0.0,0.0,0.0,0.0,0.0,0.0,0.0,0.0,0.0,0.0,0.0,0.0,0.0,0.0,0.0,-2.7719,-2.6575,-2.6889,-2.7302,-2.7501,-2.8592,-2.8614,-2.7176,0.0,0.0,0.0,0.0,0.0,0.0,0.0,0.0,0.0,0.0,0.0,0.0,0.0,0.0,0.0,0.0,0.0,0.0,0.0,0.0,0.0,0.0,0.0,0.0,0.0,0.0,0.0,0.0,0.0,0.0,0.0,0.0,0.0,0.0,0.0,0.0,0.0,0.0,0.0,0.0,0.0,0.0,0.0,0.0,0.0,0.0,0.0,0.0,0.0,0.0,0.0,0.0,0.0,0.0,0.0,0.0,0.0,0.0,0.0,0.0,0.0,0.0,0.0,0.0,0.0,0.0,0.0,0.0,0.0,0.0,0.0,0.0,0.0,0.0,0.0,0.0,0.0,0.0,0.0,0.0,0.0,0.0,0.0,0.0,0.0,0.0,0.0,0.0,0.0,0.0,0.0,0.0,0.0,0.0,0.0,0.0,0.0,0.0,0.0,0.0,0.0,0.0,0.0,0.0,-2.6927,-2.8595,-2.7801,-2.77,-2.8905,-2.8895,-2.8357,-2.7158,0.0,0.0,0.0,0.0,0.0,0.0,0.0,0.0,0.0,0.0,0.0,0.0,0.0,0.0,0.0,0.0,0.0,0.0,0.0,0.0,0.0,0.0,0.0,0.0,0.0,0.0,0.0,0.0,0.0,0.0,0.0,0.0,0.0,0.0,0.0,0.0,0.0,0.0,0.0,0.0,0.0,0.0,0.0,0.0,0.0,0.0,0.0,0.0,0.0,0.0,0.0,0.0,0.0,0.0,0.0,0.0,0.0,0.0,0.0,0.0,0.0,0.0,0.0,0.0,0.0,0.0,0.0,0.0,0.0,0.0,0.0,0.0,0.0,0.0,0.0,0.0,0.0,0.0,0.0,0.0,0.0,0.0,0.0,0.0,0.0,0.0,0.0,0.0,0.0,0.0,0.0,0.0,0.0,0.0,0.0,0.0,0.0,0.0,0.0,0.0,0.0,0.0,0.0,-2.6618,-2.7261,-2.9111,-2.8708,-2.8576,-2.925,-2.9162,-2.8494,-2.7158,-2.6525,0.0,0.0,0.0,0.0,0.0,0.0,0.0,0.0,0.0,0.0,0.0,0.0,0.0,0.0,0.0,0.0,0.0,0.0,0.0,0.0,0.0,0.0,0.0,0.0,0.0,0.0,0.0,0.0,0.0,0.0,0.0,0.0,0.0,0.0,0.0,0.0,0.0,0.0,0.0,0.0,0.0,0.0,0.0,0.0,0.0,0.0,0.0,0.0,0.0,0.0,0.0,0.0,0.0,0.0,0.0,0.0,0.0,0.0,0.0,0.0,0.0,0.0,0.0,0.0,0.0,0.0,0.0,0.0,0.0,0.0,0.0,0.0,0.0,0.0,0.0,0.0,0.0,0.0,0.0,0.0,0.0,0.0,0.0,0.0,0.0,0.0,0.0,0.0,0.0,0.0,0.0,0.0,0.0,0.0,0.0,0.0,0.0,0.0,0.0,0.0,0.0,0.0,-2.7432,-2.8049,-2.9196,-2.9316,-2.9316,-2.9316,-2.9059,-2.834,-2.7021,-2.6062,0.0,0.0,0.0,0.0,0.0,0.0,0.0,0.0,0.0,0.0,0.0,0.0,0.0,0.0,0.0,0.0,0.0,0.0,0.0,0.0,0.0,0.0,0.0,0.0,0.0,0.0,0.0,0.0,0.0,0.0,0.0,0.0,0.0,0.0,0.0,0.0,0.0,0.0,0.0,0.0,0.0,0.0,0.0,0.0,0.0,0.0,0.0,0.0,0.0,0.0,0.0,0.0,0.0,0.0,0.0,0.0,0.0,0.0,0.0,0.0,0.0,0.0,0.0,0.0,0.0,0.0,0.0,0.0,0.0,0.0,0.0,0.0,0.0,0.0,0.0,0.0,0.0,0.0,0.0,0.0,0.0,0.0,0.0,0.0,0.0,0.0,0.0,0.0,0.0,0.0,0.0,0.0,0.0,0.0,0.0,0.0,0.0,0.0,0.0,0.0,0.0,0.0,-2.7878,-2.9196,-2.9299,-2.9316,-2.9316,-2.9316,-2.834,-2.7381,-2.6576,-2.5155,0.0,0.0,0.0,0.0,0.0,0.0,0.0,0.0,0.0,0.0,0.0,0.0,0.0,0.0,0.0,0.0,0.0,0.0,0.0,0.0,0.0,0.0,0.0,0.0,0.0,0.0,0.0,0.0,0.0,0.0,0.0,0.0,0.0,0.0,0.0,0.0,0.0,0.0,0.0,0.0,0.0,0.0,0.0,0.0,0.0,0.0,0.0,0.0,0.0,0.0,0.0,0.0,0.0,0.0,0.0,0.0,0.0,0.0,0.0,0.0,0.0,0.0,0.0,0.0,0.0,0.0,0.0,0.0,0.0,0.0,0.0,0.0,0.0,0.0,0.0,0.0,0.0,0.0,0.0,0.0,0.0,0.0,0.0,0.0,0.0,0.0,0.0,0.0,0.0,0.0,0.0,0.0,0.0,0.0,0.0,0.0,0.0,0.0,0.0,0.0,0.0,0.0,-2.7295,-2.8528,-2.923,-2.9316,-2.9316,-2.9316,-2.8717,-2.7809,-2.6559,0.0,0.0,0.0,0.0,0.0,0.0,0.0,0.0,0.0,0.0,0.0,0.0,0.0,0.0,0.0,0.0,0.0,0.0,0.0,0.0,0.0,0.0,0.0,0.0,0.0,0.0,0.0,0.0,0.0,0.0,0.0,0.0,0.0,0.0,0.0,0.0,0.0,0.0,0.0,0.0,0.0,0.0,0.0,0.0,0.0,0.0,0.0,0.0,0.0,0.0,0.0,0.0,0.0,0.0,0.0,0.0,0.0,0.0,0.0,0.0,0.0,0.0,0.0,0.0,0.0,0.0,0.0,0.0,0.0,0.0,0.0,0.0,0.0,0.0,0.0,0.0,0.0,0.0,0.0,0.0,0.0,0.0,0.0,0.0,0.0,0.0,0.0,0.0,0.0,0.0,0.0,0.0,0.0,0.0,0.0,0.0,0.0,0.0,0.0,0.0,0.0,0.0,-2.5782,-2.7227,-2.8443,-2.923,-2.9316,-2.9316,-2.9316,-2.8648,-2.7689,-2.6388,0.0,0.0,0.0,0.0,0.0,0.0,0.0,0.0,0.0,0.0,0.0,0.0,0.0,0.0,0.0,0.0,0.0,0.0,0.0,0.0,0.0,0.0,0.0,0.0,0.0,0.0,0.0,0.0,0.0,0.0,0.0,0.0,0.0,0.0,0.0,0.0,0.0,0.0,0.0,0.0,0.0,0.0,0.0,0.0,0.0,0.0,0.0,0.0,0.0,0.0,0.0,0.0,0.0,0.0,0.0,0.0,0.0,0.0,0.0,0.0,0.0,0.0,0.0,0.0,0.0,0.0,0.0,0.0,0.0,0.0,0.0,0.0,0.0,0.0,0.0,0.0,0.0,0.0,0.0,0.0,0.0,0.0,0.0,0.0,0.0,0.0,0.0,0.0,0.0,0.0,0.0,0.0,0.0,0.0,0.0,0.0,0.0,0.0,0.0,0.0,0.0,0.0,-2.5885,-2.7912,-2.9299,-2.9316,-2.9316,-2.9316,-2.9299,-2.7946,-2.6747,0.0,0.0,0.0,0.0,0.0,0.0,0.0,0.0,0.0,0.0,0.0,0.0,0.0,0.0,0.0,0.0,0.0,0.0,0.0,0.0,0.0,0.0,0.0,0.0,0.0,0.0,0.0,0.0,0.0,0.0,0.0,0.0,0.0,0.0,0.0,0.0,0.0,0.0,0.0,0.0,0.0,0.0,0.0,0.0,0.0,0.0,0.0,0.0,0.0,0.0,0.0,0.0,0.0,0.0,0.0,0.0,0.0,0.0,0.0,0.0,0.0,0.0,0.0,0.0,0.0,0.0,0.0,0.0,0.0,0.0,0.0,0.0,0.0,0.0,0.0,0.0,0.0,0.0,0.0,0.0,0.0,0.0,0.0,0.0,0.0,0.0,0.0,0.0,0.0,0.0,0.0,0.0,0.0,0.0,0.0,0.0,0.0,0.0,0.0,0.0,0.0,0.0,0.0,-2.585,-2.7689,-2.9025,-2.9282,-2.9316,-2.9213,-2.8956,-2.8015,-2.6902,-2.5617,0.0,0.0,0.0,0.0,0.0,0.0,0.0,0.0,0.0,0.0,0.0,0.0,0.0,0.0,0.0,0.0,0.0,0.0,0.0,0.0,0.0,0.0,0.0,0.0,0.0,0.0,0.0,0.0,0.0,0.0,0.0,0.0,0.0,0.0,0.0,0.0,0.0,0.0,0.0,0.0,0.0,0.0,0.0,0.0,0.0,0.0,0.0,0.0,0.0,0.0,0.0,0.0,0.0,0.0,0.0,0.0,0.0,0.0,0.0,0.0,0.0,0.0,0.0,0.0,0.0,0.0,0.0,0.0,0.0,0.0,0.0,0.0,0.0,0.0,0.0,0.0,0.0,0.0,0.0,0.0,0.0,0.0,0.0,0.0,0.0,0.0,0.0,0.0,0.0,0.0,0.0,0.0,0.0,0.0,0.0,0.0,0.0,0.0,0.0,0.0,0.0,0.0,-2.5833,-2.7604,-2.8922,-2.9265,-2.9179,-2.9008,-2.8802,-2.7929,-2.6816,-2.5463,0.0,0.0,0.0,0.0,0.0,0.0,0.0,0.0,0.0,0.0,0.0,0.0,0.0,0.0,0.0,0.0,0.0,0.0,0.0,0.0,0.0,0.0,0.0,0.0,0.0,0.0,0.0,0.0,0.0,0.0,0.0,0.0,0.0,0.0,0.0,0.0,0.0,0.0,0.0,0.0,0.0,0.0,0.0,0.0,0.0,0.0,0.0,0.0,0.0,0.0,0.0,0.0,0.0,0.0,0.0,0.0,0.0,0.0,0.0,0.0,0.0,0.0,0.0,0.0,0.0,0.0,0.0,0.0,0.0,0.0,0.0,0.0,0.0,0.0,0.0,0.0,0.0,0.0,0.0,0.0,0.0,0.0,0.0,0.0,0.0,0.0,0.0,0.0,0.0,0.0,0.0,0.0,0.0,0.0,0.0,0.0,0.0,0.0,0.0,0.0,0.0,0.0,-2.5833,-2.7569,-2.8871,-2.923,-2.8974,-2.8751,-2.8682,-2.7655,-2.6542,-2.5395,0.0,0.0,0.0,0.0,0.0,0.0,0.0,0.0,0.0,0.0,0.0,0.0,0.0,0.0,0.0,0.0,0.0,0.0,0.0,0.0,0.0,0.0,0.0,0.0,0.0,0.0,0.0,0.0,0.0,0.0,0.0,0.0,0.0,0.0,0.0,0.0,0.0,0.0,0.0,0.0,0.0,0.0,0.0,0.0,0.0,0.0,0.0,0.0,0.0,0.0,0.0,0.0,0.0,0.0,0.0,0.0,0.0,0.0,0.0,0.0,-2.5861,-2.5907,0.0,0.0,0.0,0.0,0.0,0.0,0.0,0.0,0.0,0.0,0.0,0.0,0.0,0.0,0.0,0.0,0.0,0.0,0.0,0.0,0.0,0.0,0.0,0.0,0.0,0.0,0.0,0.0,0.0,0.0,0.0,0.0,0.0,0.0,0.0,0.0,0.0,0.0,0.0,0.0,-2.5799,-2.733,-2.846,-2.8854,-2.8819,-2.8528,-2.7912,-2.709,-2.6131,-2.5001,-2.358,0.0,0.0,0.0,0.0,0.0,0.0,0.0,0.0,0.0,0.0,0.0,0.0,0.0,0.0,0.0,0.0,0.0,0.0,0.0,0.0,0.0,0.0,0.0,0.0,0.0,0.0,0.0,0.0,0.0,0.0,0.0,0.0,0.0,0.0,0.0,0.0,0.0,0.0,0.0,0.0,0.0,0.0,0.0,0.0,0.0,0.0,0.0,0.0,0.0,0.0,0.0,0.0,0.0,0.0,0.0,0.0,0.0,0.0,0.0,-2.5533,-2.6354,0.0,0.0,0.0,0.0,0.0,0.0,0.0,0.0,0.0,0.0,0.0,0.0,0.0,0.0,0.0,0.0,0.0,0.0,0.0,0.0,0.0,0.0,0.0,0.0,0.0,0.0,0.0,0.0,0.0,0.0,0.0,0.0,0.0,0.0,0.0,0.0,0.0,0.0,0.0,0.0,-2.5583,-2.6987,-2.8066,-2.846,-2.8323,-2.8049,-2.7638,-2.6747,-2.5891,-2.5138,-2.3665,0.0,0.0,0.0,0.0,0.0,0.0,0.0,0.0,0.0,0.0,0.0,0.0,0.0,0.0,0.0,0.0,0.0,0.0,0.0,0.0,0.0,0.0,0.0,0.0,0.0,0.0,0.0,0.0,0.0,0.0,0.0,0.0,0.0,0.0,0.0,0.0,0.0,0.0,0.0,0.0,0.0,0.0,0.0,0.0,0.0,0.0,0.0,0.0,0.0,0.0,0.0,0.0,0.0,-2.0628,-2.0913,-2.1638,-2.2826,-2.4158,-2.5636,-2.5759,-2.718,-2.9355,-2.7575,0.0,0.0,0.0,0.0,0.0,0.0,0.0,0.0,0.0,0.0,0.0,0.0,0.0,0.0,0.0,0.0,0.0,0.0,0.0,0.0,0.0,0.0,-2.7673,-2.7526,-2.7746,-2.7546,-2.5693,0.0,0.0,0.0,0.0,0.0,0.0,0.0,0.0,0.0,0.0,0.0,-2.5326,-2.6679,-2.7723,-2.8049,-2.7741,-2.7484,-2.7415,-2.6439,-2.5669,-2.5292,-2.3905,-2.2946,0.0,0.0,0.0,0.0,0.0,0.0,0.0,0.0,0.0,0.0,0.0,0.0,0.0,0.0,0.0,0.0,0.0,0.0,0.0,0.0,0.0,0.0,0.0,0.0,0.0,0.0,0.0,0.0,0.0,0.0,0.0,0.0,-3.1377,-3.1377,0.0,0.0,0.0,0.0,0.0,0.0,0.0,0.0,0.0,0.0,0.0,0.0,0.0,-2.0762,-2.0935,-2.1189,-2.1427,-2.1507,-2.1657,-2.2442,-2.3616,-2.381,-2.5494,-2.8239,-2.8239,0.0,-2.9048,-2.876,0.0,0.0,0.0,0.0,0.0,0.0,0.0,0.0,0.0,0.0,0.0,0.0,0.0,0.0,0.0,0.0,0.0,0.0,0.0,0.0,0.0,0.0,-2.9617,-2.892,-2.8792,-2.8553,-2.7581,-2.6682,-2.5855,-2.5359,-2.5065,-2.4532,0.0,0.0,0.0,0.0,0.0,0.0,-2.5326,-2.6679,-2.7621,-2.7672,-2.7364,-2.7004,-2.6662,-2.5908,-2.5292,-2.4915,-2.3768,-2.2946,-2.2603,-2.1521,0.0,0.0,0.0,0.0,0.0,0.0,0.0,0.0,0.0,0.0,0.0,0.0,0.0,0.0,0.0,0.0,0.0,0.0,0.0,0.0,0.0,0.0,0.0,0.0,0.0,0.0,0.0,0.0,0.0,-3.1121,-3.1304,-3.1066,-3.0699,-3.0369,0.0,0.0,0.0,0.0,0.0,0.0,0.0,0.0,0.0,-2.0909,-2.1082,-2.1229,-2.1363,-2.1643,-2.1884,-2.2044,-2.2164,-2.2645,-2.3412,-2.4199,-2.5336,-2.665,-2.7441,-2.8348,-2.9216,-2.9531,-2.9177,-2.8407,0.0,0.0,0.0,0.0,-2.771,-2.7893,-2.8168,-2.826,-2.8223,-2.7948,0.0,0.0,0.0,0.0,0.0,0.0,0.0,-2.7601,-2.8058,-2.9012,-2.9819,-2.969,-2.9672,-2.9507,-2.8961,-2.8022,-2.7013,-2.5966,-2.5931,-2.5678,-2.4227,-2.3946,0.0,0.0,0.0,-2.5117,-2.5383,-2.6508,-2.7227,-2.7004,-2.6833,-2.6593,-2.6217,-2.5686,-2.5292,-2.5138,-2.4059,-2.3357,-2.3203,-2.2107,-2.1234,0.0,0.0,0.0,0.0,0.0,0.0,0.0,0.0,0.0,0.0,0.0,0.0,0.0,0.0,0.0,0.0,0.0,0.0,0.0,0.0,0.0,0.0,0.0,0.0,0.0,0.0,0.0,0.0,-3.0974,-3.1121,-3.0827,-3.0534,-3.0062,0.0,0.0,0.0,0.0,0.0,0.0,-2.1451,-2.1269,-2.1296,-2.1443,-2.1657,-2.1882,-2.1949,-2.2098,-2.2311,-2.2539,-2.2539,-2.2645,-2.2928,-2.4006,-2.467,-2.5075,-2.6121,-2.7387,-2.8821,-2.9535,-2.9621,-2.925,-2.8847,-2.8443,-2.8113,-2.8425,-2.8608,-2.8773,-2.936,-2.9562,-2.9567,-2.9122,-2.859,-2.7932,-2.6811,0.0,0.0,0.0,0.0,-2.7893,-2.9012,-2.9599,-2.9965,-3.0277,-3.0277,-3.0094,-2.9654,-2.903,-2.8132,-2.6756,-2.6811,-2.65,-2.4839,-2.4481,0.0,-2.3757,-2.457,-2.5311,-2.552,-2.6336,-2.6816,-2.6525,-2.6319,-2.6097,-2.5823,-2.5446,-2.5223,-2.5223,-2.4333,-2.3768,-2.3699,-2.2792,-2.1936,-2.1182,0.0,0.0,0.0,0.0,0.0,0.0,0.0,0.0,0.0,0.0,0.0,0.0,0.0,0.0,0.0,0.0,0.0,0.0,0.0,0.0,0.0,0.0,0.0,0.0,0.0,0.0,0.0,0.0,0.0,-3.0791,-3.0772,0.0,0.0,0.0,0.0,-2.4142,-2.2641,-2.1838,-2.1924,-2.1683,-2.1777,-2.2338,-2.2365,-2.2512,-2.2861,-2.2874,-2.2887,-2.2846,-2.2846,-2.2846,-2.2928,-2.2996,-2.3734,-2.5008,-2.5075,-2.5935,-2.7288,-2.8319,-2.9302,-3.0094,-2.9672,-2.9269,-2.892,-2.8938,-2.9195,-2.9586,-2.9623,-2.9562,-2.969,-3.0424,-2.9874,-2.8773,-2.7987,-2.7416,0.0,0.0,-2.8278,-2.9085,-2.9929,-3.0424,-3.0736,-3.0754,-3.0479,-3.0094,-2.9654,-2.925,-2.87,-2.7895,-2.7105,-2.63,-2.5254,0.0,-2.4439,-2.4181,-2.4847,-2.5537,-2.5799,-2.6268,-2.6508,-2.6491,-2.5857,-2.5469,-2.5451,-2.5052,-2.4847,-2.4847,-2.4436,-2.4059,-2.3717,-2.3288,-2.2706,-2.1953,-2.1216,0.0,0.0,0.0,0.0,0.0,0.0,0.0,0.0,0.0,0.0,0.0,0.0,0.0,0.0,0.0,0.0,0.0,0.0,0.0,0.0,0.0,0.0,0.0,0.0,0.0,0.0,0.0,0.0,-3.1194,-3.1176,0.0,-2.8673,-2.7828,-2.6487,-2.4201,-2.3636,-2.3078,-2.2325,-2.2352,-2.2485,-2.2699,-2.2699,-2.2752,-2.2928,-2.2928,-2.2928,-2.2928,-2.2928,-2.2928,-2.2928,-2.2928,-2.3201,-2.3665,-2.3665,-2.4467,-2.5786,-2.6147,-2.7475,-2.9274,-3.0093,-3.0112,-2.98,-3.0057,-3.0241,-3.0387,-3.0644,-3.0736,-3.0662,-3.0167,-2.9544,-2.8828,-2.8022,-2.7856,-2.7985,-2.8132,-2.8737,-2.9434,-2.9727,-3.0094,-3.0351,-3.0075,-2.9788,-2.9385,-2.8986,-2.8607,-2.8289,-2.7943,-2.7434,-2.6695,-2.5627,-2.5093,-2.4774,-2.4484,-2.4896,-2.538,-2.5532,-2.5908,-2.6045,-2.5788,-2.5589,-2.5275,-2.5035,-2.4898,-2.471,-2.4398,-2.4076,-2.3699,-2.334,-2.2963,-2.2518,-2.2004,-2.149,-2.0737,0.0,0.0,0.0,0.0,0.0,0.0,0.0,0.0,0.0,0.0,0.0,0.0,0.0,0.0,0.0,0.0,0.0,0.0,0.0,0.0,0.0,0.0,0.0,0.0,0.0,0.0,-3.1708,-3.1414,-3.1143,-3.0294,-2.8474,-2.772,-2.6409,-2.4128,-2.4011,-2.3663,-2.2726,-2.2806,-2.2928,-2.2928,-2.2928,-2.2928,-2.2928,-2.2928,-2.2928,-2.2928,-2.2928,-2.2928,-2.2928,-2.2928,-2.2928,-2.2928,-2.2928,-2.3393,-2.4345,-2.4805,-2.628,-2.8305,-2.9743,-3.0429,-3.0626,-3.0882,-3.0992,-3.1029,-3.1286,-3.1286,-3.1029,-3.0094,-2.9507,-2.9048,-2.8447,-2.837,-2.8627,-2.8755,-2.9177,-2.9599,-2.9745,-2.9984,-3.0094,-2.955,-2.9276,-2.8925,-2.8427,-2.814,-2.796,-2.784,-2.744,-2.6861,-2.6046,-2.5478,-2.507,-2.4919,-2.5124,-2.5362,-2.5515,-2.5669,-2.5652,-2.5395,-2.5258,-2.5086,-2.4847,-2.4693,-2.4449,-2.4193,-2.3871,-2.3494,-2.3134,-2.2877,-2.262,-2.2192,-2.1679,-2.0925,-1.9888,0.0,0.0,0.0,0.0,0.0,0.0,0.0,0.0,0.0,0.0,0.0,0.0,0.0,0.0,0.0,0.0,0.0,0.0,0.0,0.0,0.0,0.0,0.0,-3.0241,-3.0937,-3.1451,-3.1433,-3.0768,-2.9631,-2.7809,-2.6547,-2.5356,-2.391,-2.35,-2.334,-2.3327,-2.3046,-2.2941,-2.2928,-2.2928,-2.2928,-2.2928,-2.2928,-2.2928,-2.2928,-2.2928,-2.2928,-2.2928,-2.2928,-2.2928,-2.2928,-2.2928,-2.2928,-2.2996,-2.4399,-2.5868,-2.7254,-2.8723,-3.0195,-3.1377,-3.1377,-3.1377,-3.1377,-3.1377,-3.1121,-3.0717,-3.0332,-2.991,-2.9489,-2.9104,-2.8975,-2.9067,-2.9452,-2.9562,-2.9654,-3.0057,-3.0167,-3.0014,-2.9245,-2.9076,-2.8846,-2.8168,-2.796,-2.79,-2.7504,-2.7147,-2.6752,-2.6446,-2.5743,-2.5249,-2.5348,-2.536,0.0,-2.5799,-2.5583,-2.536,-2.536,-2.5035,-2.4812,-2.4812,-2.4398,-2.4176,-2.4213,-2.3853,-2.3477,-2.3117,-2.31,-2.2929,-2.2603,-2.1799,-2.1045,-2.0326,0.0,0.0,0.0,0.0,0.0,0.0,0.0,0.0,0.0,0.0,0.0,0.0,0.0,0.0,0.0,0.0,0.0,0.0,0.0,0.0,0.0,-3.0296,-3.0717,-3.1011,-3.1763,-3.2386,-3.268,-3.1507,-3.0117,-2.8633,-2.6888,-2.5356,-2.391,-2.3701,-2.3554,-2.334,-2.3247,-2.31,-2.2941,-2.2928,-2.2928,-2.2928,-2.2928,-2.2928,-2.2928,-2.2928,-2.2928,-2.2928,-2.2928,-2.2928,-2.2928,-2.2928,-2.2928,-2.2996,-2.4399,-2.5868,-2.7254,-2.8723,-3.0195,-3.1377,-3.1377,-3.1377,-3.1377,-3.1377,-3.1121,-3.0717,-3.0332,-2.991,-2.9489,-2.9104,-2.8975,-2.9012,-2.9122,-2.936,-2.9525,-2.936,-2.9525,-2.9593,-2.8829,-2.8498,-2.8204,-2.7719,-2.7478,-2.7228,-2.6875,-2.6427,-2.6174,-2.6041,-2.5422,-2.4902,-2.4949,-2.4967,-2.5001,-2.5121,-2.5035,-2.4967,-2.4967,-2.4881,-2.4812,-2.4812,-2.4398,-2.411,-2.3836,-2.3477,-2.31,-2.2774,-2.2757,-2.2705,-2.2603,-2.1799,-2.1302,0.0,0.0,0.0,0.0,0.0,0.0,0.0,0.0,0.0,0.0,0.0,0.0,0.0,0.0,0.0,0.0,0.0,0.0,0.0,0.0,0.0,0.0,-3.0772,-3.1304,-3.2056,-3.257,-3.2666,-3.2269,-3.1027,-2.9623,-2.8135,-2.6414,-2.5038,-2.4201,-2.4022,-2.3821,-2.3527,-2.3394,-2.318,-2.2941,-2.2928,-2.2928,-2.2928,-2.2928,-2.2928,-2.2928,-2.2928,-2.2928,-2.2928,-2.2928,-2.2928,-2.2928,-2.2928,-2.2928,-2.2996,-2.4399,-2.5868,-2.7254,0.0,0.0,0.0,0.0,-3.1377,-3.1359,-3.1194,-3.0882,-3.0479,-3.0075,-2.9654,-2.9287,-2.9048,-2.8975,-2.8975,-2.8975,-2.914,-2.9269,-2.9048,-2.9159,-2.9148,-2.8451,-2.814,-2.79,-2.7418,-2.7194,-2.6953,-2.6559,-2.6182,0.0,-2.572,-2.5206,-2.4812,-2.4812,-2.4812,-2.4812,-2.4812,-2.4812,-2.4812,-2.4812,-2.4812,-2.4812,-2.4812,-2.4316,0.0,0.0,0.0,-2.2775,-2.2603,-2.2603,0.0,0.0,0.0,0.0,0.0,0.0,0.0,0.0,-2.1144,-2.1165,0.0,0.0,0.0,0.0,0.0,0.0,0.0,0.0,0.0,0.0,0.0,0.0,0.0,0.0,0.0,0.0,-3.1267,-3.1833,-3.2793,-3.2907,-3.2445,-3.1167,-2.9737,-2.8429,-2.7012,-2.5506,-2.4636,-2.4636,-2.4396,-2.4115,-2.3794,0.0,0.0,0.0,0.0,-2.2928,-2.2928,-2.2928,-2.2928,-2.2928,-2.2928,-2.2928,-2.2928,-2.2928,-2.2928,-2.2928,-2.2928,-2.2928,-2.2996,-2.4602,-2.6121,-2.7718,-2.9068,-3.0325,-3.1377,-3.1377,-3.1377,-3.1258,-3.0856,0.0,0.0,-2.9648,-2.9305,-2.8975,-2.8975,-2.8993,-2.8916,-2.8916,-2.8916,-2.8916,-2.8916,-2.8993,-2.8797,-2.814,-2.802,-2.784,-2.7254,-2.7073,-2.6953,-2.6508,-2.6165,-2.5806,-2.5378,-2.5035,-2.4812,-2.4812,-2.4812,-2.4812,-2.4812,-2.4812,-2.4812,-2.4812,-2.4812,0.0,-2.4812,-2.4145,-2.377,-2.3718,-2.3014,-2.2603,-2.2603,-2.2603,-2.2603,-2.2603,-2.2603,-2.2603,-2.2603,-2.2637,-2.2671,-2.2637,-2.1641,-2.149,0.0,0.0,0.0,0.0,0.0,0.0,0.0,0.0,0.0,0.0,0.0,0.0,0.0,0.0,0.0,-3.1157,-3.1884,-3.2019,-3.0978,-3.1217,-3.1422,-3.1405,-2.8972,-2.723,-2.6939,-2.5506,-2.4636,-2.4636,-2.4583,-2.4329,-2.3794,-2.3714,-2.3434,-2.2954,-2.2928,-2.2928,-2.2928,-2.2928,-2.2928,-2.2928,-2.2928,0.0,-2.2928,-2.2928,-2.2928,-2.2928,-2.2928,-2.2928,-2.3133,-2.5651,-2.8246,-3.0584,-3.0908,-3.1184,-3.1377,-3.1377,-3.1249,-3.0954,-3.0556,-3.0157,-2.9741,-2.9342,-2.9125,-2.8975,-2.8975,-2.8815,0.0,-2.8576,-2.8576,-2.8576,-2.8576,-2.8815,-2.8797,-2.814,-2.802,-2.784,-2.7254,-2.7073,-2.6867,-2.6182,-2.5936,-2.5662,-2.5035,-2.4864,-2.4812,-2.4812,-2.4812,-2.4812,-2.4812,-2.4812,-2.4812,-2.4812,-2.4812,-2.4812,-2.4812,-2.4384,-2.399,-2.3735,-2.3014,-2.2603,-2.2603,-2.2603,-2.2603,-2.2603,-2.2603,-2.2603,-2.2603,-2.286,-2.2997,-2.2997,-2.2792,-2.2758,0.0,0.0,0.0,0.0,0.0,0.0,0.0,0.0,0.0,0.0,0.0,-2.9837,-3.0644,0.0,-3.132,-3.192,-3.2183,-3.1858,-3.0553,-2.9889,-2.9361,-2.8932,-2.7722,-2.6575,-2.5786,-2.5065,-2.4636,-2.4636,-2.4636,-2.4382,-2.3808,-2.3768,-2.3487,-2.2954,-2.2928,-2.2928,-2.2928,-2.2576,-2.2374,-2.2374,-2.2296,-2.223,-2.223,-2.2351,-2.2418,-2.2418,-2.2338,-2.2271,-2.2457,-2.5009,-2.7676,-3.0185,-3.0185,-3.0662,-3.1359,-3.1157,-3.0893,-3.0501,-2.9905,-2.9375,-2.8875,-2.8617,-2.8415,-2.8287,-2.8444,-2.8379,-2.8277,-2.8457,-2.8397,-2.8277,-2.8457,-2.8517,-2.8379,-2.7882,-2.7762,-2.7659,-2.7194,-2.6919,-2.661,-2.6045,-2.5788,-2.548,-2.4915,-2.4812,-2.4812,-2.4812,-2.4812,-2.4812,-2.4812,-2.4812,-2.4812,-2.4812,-2.4812,-2.4812,-2.4812,-2.4398,-2.4076,-2.3735,-2.3186,-2.2826,-2.2826,-2.2688,-2.2603,-2.2603,-2.2791,-2.2826,-2.2826,-2.3203,-2.3391,-2.3391,-2.358,-2.358,0.0,0.0,0.0,0.0,0.0,0.0,0.0,0.0,-2.947,-2.9947,-3.0626,-3.1231,-3.1561,-3.1618,-3.1841,-3.2471,-3.2289,-3.16,-3.0026,-2.8788,-2.7418,-2.5831,-2.6064,-2.5786,-2.4488,-2.4488,-2.4562,-2.4488,-2.4509,-2.4329,-2.3794,-2.3714,-2.3434,-2.2954,-2.2928,-2.2832,-2.2711,-2.2133,-2.1854,-2.1735,-2.1514,-2.1397,-2.1397,-2.1661,-2.1766,-2.1753,-2.1719,-2.1906,-2.2262,-2.4425,-2.6779,-2.8916,-2.8916,-2.9703,-3.0801,-3.049,-3.013,-2.9726,-2.8929,-2.836,-2.7853,-2.7765,-2.7576,-2.744,-2.77,-2.773,-2.773,-2.8045,-2.7979,-2.7853,-2.817,-2.8086,-2.79,-2.7581,-2.7521,-2.7383,-2.703,-2.6713,-2.6354,-2.5908,-2.5583,-2.5258,-2.4881,-2.4812,-2.4812,-2.4812,-2.4812,-2.4812,-2.4812,-2.4812,-2.4812,-2.4812,-2.4812,-2.4812,-2.4812,-2.4398,-2.4093,-2.3785,-2.3425,-2.322,-2.322,-2.298,-2.2808,-2.2826,-2.3066,-2.322,-2.3237,-2.3597,-2.3768,-2.3838,-2.4162,-2.4145,-3.0241,-2.9525,-2.903,-2.8938,-2.892,-2.9287,0.0,0.0,-3.0809,-3.1579,-3.2093,-3.2404,-3.2459,-3.2453,-3.2539,-3.2611,-3.2313,-3.1121,-2.8254,-2.7707,-2.6488,-2.3587,-2.3883,-2.4105,-2.36,-2.4193,-2.4488,-2.4119,-2.4176,-2.4115,-2.3794,-2.3514,-2.322,-2.2941,-2.2928,-2.2603,-2.2,-2.1973,-2.1628,-2.1117,-2.1091,-2.1078,-2.1066,-2.1071,-2.0955,-2.0812,-2.1842,-2.287,-2.3976,-2.5867,-2.7461,-2.854,-2.854,-2.8649,-2.8793,-2.8757,-2.8577,-2.8162,-2.7498,-2.7204,-2.704,-2.6691,-2.6782,-2.6996,-2.7031,-2.6818,-2.6568,-2.6626,-2.6889,-2.711,-2.7169,-2.7593,-2.79,-2.7581,-2.7521,-2.7314,-2.6687,-2.6525,-2.6285,-2.5566,-2.5451,-2.5258,-2.4881,-2.4812,-2.4812,-2.4812,-2.4812,-2.4812,-2.4812,-2.4812,-2.4812,-2.4812,-2.4812,-2.4812,-2.4812,-2.4398,-2.4159,-2.4179,-2.3819,-2.3649,-2.3649,-2.3615,-2.3598,-2.358,-2.3597,-2.3614,-2.3631,-2.399,-2.4108,-2.4125,-2.4573,-2.4538,-3.1341,0.0,0.0,0.0,-3.0369,-3.0607,-3.1524,-3.1616,-3.1653,-3.2239,-3.268,-3.2887,-3.2666,-3.2651,-3.2574,0.0,-3.2001,-3.1047,-2.8788,-2.7707,-2.6271,-2.393,-2.3344,-2.3199,-2.3351,-2.3674,-2.3822,-2.3661,-2.3784,-2.3714,-2.3496,-2.3346,-2.3041,-2.2598,-2.2427,-2.2078,-2.1623,-2.1089,-2.0585,-2.0178,-2.0027,-1.9864,-1.9713,-1.9902,-2.0247,-2.0706,-2.1166,-2.2364,-2.4066,-2.4837,-2.5835,-2.6882,-2.6882,-2.6882,-2.6972,-2.7651,-2.7742,-2.7333,-2.683,-2.6377,-2.6088,-2.6082,-2.6076,-2.6052,-2.6278,-2.6215,-2.6209,-2.6609,-2.6724,-2.6779,-2.7183,-2.7357,-2.7435,-2.7297,-2.7065,-2.6858,-2.6584,-2.6148,-2.5737,-2.5429,-2.5189,-2.5001,-2.4847,-2.4812,-2.4812,-2.4812,-2.4812,-2.4812,-2.4812,-2.4812,-2.4812,-2.4812,-2.4812,-2.4812,-2.4812,-2.4675,-2.4573,-2.4573,-2.4213,-2.399,-2.399,-2.3785,-2.3682,-2.3699,-2.3888,-2.4008,-2.4008,-2.4384,-2.4573,-2.4518,-2.4744,-2.4727,-3.1433,0.0,0.0,-3.1176,-3.1469,-3.1799,-3.2093,-3.2258,-3.2423,-3.2716,-3.3033,-3.312,-3.2878,-3.2628,-3.2403,-3.2175,-3.1841,-3.1047,-2.9465,-2.7776,-2.6113,-2.4386,-2.3015,-2.2422,-2.2829,-2.3062,-2.3136,-2.3062,-2.3246,-2.3288,-2.2937,-2.3003,-2.2753,-2.2186,-2.1901,-2.1584,-2.1104,-2.0273,-1.9732,-1.9333,-1.9074,-1.884,-1.8655,-1.8813,-1.9455,-2.0475,-2.0812,-2.2012,-2.3704,-2.4223,-2.4834,-2.5569,-2.5569,-2.5569,-2.5675,-2.6465,-2.6667,-2.6458,-2.6105,-2.5673,-2.5258,-2.5549,-2.5446,-2.5275,-2.5549,-2.5645,-2.5898,-2.6405,-2.6513,-2.6601,-2.7115,-2.7151,-2.7073,-2.7073,-2.6782,-2.6456,-2.6354,-2.5823,-2.54,-2.5241,-2.5001,-2.4812,-2.4812,-2.4812,-2.4812,-2.4812,-2.4812,-2.4812,-2.4812,-2.4812,-2.4812,-2.4812,-2.4812,-2.4812,-2.4812,-2.4812,-2.4812,-2.4812,-2.4556,-2.4401,-2.4401,-2.4127,-2.399,-2.4008,-2.4264,-2.4401,-2.4401,-2.4675,-2.4812,-2.4812,-2.4812,-2.4812,0.0,0.0,-3.1304,-3.0901,-3.1689,-3.257,-3.257,-3.29,-3.3193,-3.3211,-3.3248,-3.333,-3.3242,-3.2614,-3.2105,-3.2105,-3.1841,-3.1047,-2.9465,-2.7651,-2.5941,-2.4359,-2.2633,-2.1571,-2.1571,-2.2194,-2.2468,-2.2194,-2.257,-2.2626,-2.2262,-2.2272,-2.2186,-2.1829,-2.1561,-2.1091,-2.0426,-1.9869,-1.9333,-1.8698,-1.8432,-1.83,-1.8287,-1.807,-1.8623,-1.991,-2.1031,-2.2112,-2.3143,-2.4889,-2.5459,-2.5221,-2.5221,-2.5221,-2.5183,-2.4958,-2.5013,-2.5218,-2.4958,-2.4847,-2.4847,-2.4847,-2.4847,-2.4847,-2.4847,-2.5104,-2.5451,-2.5451,-2.5983,-2.6491,-2.6508,-2.6782,-2.7073,-2.7073,-2.6782,-2.6388,-2.597,-2.5652,-2.5258,-2.4898,-2.483,-2.4812,-2.4812,-2.4812,-2.4812,-2.4812,-2.4812,-2.4812,-2.4812,-2.4812,-2.4812,-2.4812,-2.4812,-2.4812,-2.4812,-2.4812,-2.4812,-2.4812,-2.4812,-2.4795,-2.4795,-2.4795,-2.4795,-2.4795,-2.4795,-2.4795,-2.4795,-2.4812,-2.4812,-2.4812,-2.4812,-2.4812,0.0,0.0,-3.1561,-3.2239,-3.2716,-3.3083,-3.334,-3.3523,-3.3615,-3.3615,-3.323,-3.2795,-3.2588,-3.1875,-3.1374,-3.1357,-3.1269,-3.1113,-3.0746,-2.9142,-2.7326,-2.5688,-2.3755,0.0,0.0,0.0,0.0,-2.169,-2.1919,-2.1968,-2.1828,-2.1912,-2.1683,-2.1152,-2.0889,-2.0414,-1.9801,-1.9264,-1.8811,-1.842,-1.7974,-1.7756,-1.7816,-1.8475,-1.9529,-2.073,-2.1998,-2.3143,-2.4239,-2.4868,-2.5034,-2.4923,-2.4923,-2.4923,-2.4923,-2.4812,-2.4868,-2.4923,-2.4812,-2.4812,-2.4864,-2.5104,-2.5189,-2.5241,-2.548,-2.5652,-2.5806,-2.6045,-2.6285,-2.6542,-2.6816,-2.697,-2.7073,-2.7073,-2.6593,-2.608,-2.5902,-2.5446,-2.4898,-2.4504,-2.4381,-2.4381,-2.4381,-2.4381,-2.4521,-2.4778,-2.4812,-2.4812,-2.4812,-2.4812,-2.4812,-2.4812,-2.4812,-2.4812,-2.4812,-2.4812,-2.4812,-2.4812,-2.4812,-2.4812,-2.4812,-2.4812,-2.4812,-2.4812,-2.4812,-2.4812,-2.4812,-2.4812,-2.4812,-2.4812,-2.4812,-2.459,-3.1561,-3.1799,-3.2038,-3.2991,-3.334,-3.3505,-3.3762,-3.3817,-3.3711,-3.3477,-3.2896,-3.2337,-3.1784,-3.1197,-3.0822,-3.096,-3.1011,-3.1081,-3.1288,-2.9244,-2.7323,-2.607,-2.379,-2.1881,0.0,0.0,0.0,-2.1185,-2.1368,-2.1398,-2.1258,-2.1445,-2.1289,-2.0619,-2.0349,-1.9964,-1.9326,-1.8807,-1.836,-1.7998,-1.7648,-1.7479,-1.7537,-1.8752,-1.994,-2.1187,-2.2451,-2.3664,-2.4812,-2.4812,-2.4812,-2.4812,-2.4812,-2.4812,-2.4812,-2.4812,-2.4812,-2.4847,-2.4967,-2.5018,-2.5086,-2.5446,-2.5566,-2.5617,-2.5799,-2.6028,-2.6182,-2.6422,-2.6593,-2.6747,-2.7004,-2.7073,-2.7073,-2.7073,-2.6491,-2.5885,-2.5885,-2.5184,-2.4538,-2.4227,-2.4176,-2.4176,-2.4176,-2.4296,-2.4521,-2.4778,-2.4812,-2.4812,-2.4812,-2.4812,-2.4812,-2.4812,-2.4812,-2.4812,-2.4812,-2.4812,-2.4812,-2.4812,-2.4812,-2.4812,-2.4812,-2.4812,-2.4812,-2.4812,-2.4812,-2.4812,-2.4812,-2.4812,-2.4812,-2.4757,-2.459,-2.4072,-3.1451,-3.2038,-3.2735,-3.3156,-3.3541,-3.3817,-3.3817,-3.3798,-3.3601,-3.2874,-3.2337,-3.1853,0.0,0.0,-3.0498,-3.0891,-3.0977,-3.0994,-3.1011,-2.8284,-2.6121,0.0,0.0,0.0,0.0,0.0,0.0,-2.0665,0.0,-2.1012,-2.0735,-2.1012,-2.0877,-2.0335,-2.0002,-1.9603,-1.906,-1.8541,-1.801,-1.7479,-1.7479,-1.7537,-1.7655,-1.8855,-2.0056,-2.1244,-2.2507,-2.372,-2.4812,-2.4812,-2.4812,-2.4812,-2.4812,-2.4812,-2.4812,-2.4812,-2.4812,-2.4881,-2.5241,-2.5434,-2.5429,-2.5823,-2.5902,-2.5902,-2.5936,-2.6234,-2.6525,-2.6525,-2.6782,-2.7073,-2.7073,-2.7073,-2.7073,-2.7073,-2.6491,-2.5885,-2.585,-2.4979,-2.4176,-2.4125,-2.4142,-2.4159,-2.4176,-2.4501,-2.4812,-2.4812,-2.4812,-2.4812,-2.4812,-2.4812,-2.4812,-2.4812,-2.4812,-2.4812,-2.4812,-2.4812,-2.4812,-2.4812,-2.4812,-2.4812,-2.4812,-2.4812,-2.4812,-2.4812,-2.4812,-2.4812,-2.4812,-2.4812,-2.4812,-2.4757,-2.4144,-2.3384,-3.2514,-3.29,-3.3156,-3.356,-3.3743,-3.3817,-3.3817,-3.3578,-3.3203,-3.282,-3.1908,-3.1056,0.0,0.0,0.0,-3.0121,-3.0412,0.0,-3.1306,-3.0171,0.0,-2.6246,0.0,-2.3051,-2.0943,-2.0665,0.0,0.0,-2.0804,-2.0804,-2.0665,-2.0804,-2.0598,-2.0002,-1.9724,-1.9314,-1.8794,-1.8251,-1.7817,-1.7479,-1.7479,-1.7948,-1.8868,-2.0113,-2.1316,-2.2564,-2.3776,-2.4535,-2.4812,-2.4812,-2.4812,-2.4812,-2.4812,-2.4812,-2.4812,-2.4812,-2.4812,-2.4881,-2.5241,-2.5434,-2.5429,-2.5823,-2.6131,-2.6405,-2.6696,-2.685,-2.6919,-2.6919,-2.7004,-2.7073,-2.7073,-2.7073,-2.7073,-2.7073,-2.6491,-2.5799,-2.5583,-2.4847,-2.4022,-2.3511,-2.3614,-2.3905,-2.4179,-2.4501,-2.4812,-2.4812,-2.4812,-2.4812,-2.4812,-2.4812,-2.4812,-2.4812,-2.4812,-2.4812,-2.4812,-2.4812,-2.4812,-2.4812,-2.4812,-2.4812,-2.4812,-2.4812,-2.4812,-2.4812,-2.4812,-2.4812,-2.4812,-2.4812,-2.4812,-2.4757,-2.348,-2.2846,-3.3046,-3.3358,-3.3541,-3.3762,-3.3688,-3.356,-3.356,-3.3112,-3.2507,-3.1828,-3.1065,0.0,0.0,0.0,0.0,0.0,0.0,0.0,-3.0995,-2.9636,-2.8026,0.0,-2.4355,0.0,-2.0886,-2.0665,-2.0665,0.0,-2.0665,-2.0665,-2.0665,-2.0557,-2.0315,-1.9905,-1.9507,-1.8988,-1.8336,-1.7913,-1.7919,-1.8286,-1.8286,-1.8913,-2.0113,-2.1358,-2.2338,-2.3087,-2.4295,-2.4812,-2.4812,-2.4812,-2.4812,-2.4812,-2.4812,-2.4812,-2.4812,-2.4812,-2.4812,-2.4847,-2.5052,-2.5241,-2.5429,-2.5823,-2.608,-2.6285,-2.6508,-2.6576,-2.6576,-2.6576,-2.6576,-2.6576,-2.6576,-2.6576,-2.661,-2.6782,-2.6371,-2.5925,-2.5874,-2.5138,-2.4316,-2.3717,-2.3648,-2.3853,-2.4401,-2.4675,-2.4812,-2.4812,-2.4812,-2.4812,-2.4812,-2.4812,-2.4812,-2.4812,-2.4812,-2.4812,-2.4812,-2.4812,-2.4812,-2.4812,-2.4812,-2.4812,-2.4812,-2.4812,-2.4812,-2.4812,-2.4812,-2.4812,-2.4812,-2.4812,-2.4646,-2.4368,-2.2846,-2.1813,-3.3285,-3.3541,-3.3817,-3.3817,-3.3523,-3.323,-3.323,-3.2502,-3.1571,-3.0562,0.0,0.0,-2.8232,-2.8443,-2.8888,-2.9196,0.0,-3.0395,-3.0498,-2.8348,-2.6446,-2.5746,-2.316,-2.1166,-2.0759,-2.0665,-2.0665,-2.0665,-2.0641,-2.0617,-2.0617,-2.04,-2.011,-1.9736,-1.9241,-1.8601,-1.7829,-1.7777,-1.8286,-1.9319,-1.9435,-2.0171,-2.1415,-2.2523,-2.3087,-2.3328,-2.4368,-2.4812,-2.4812,-2.4812,-2.4812,-2.4812,-2.4812,-2.4812,-2.4812,-2.4812,-2.4812,-2.4812,-2.4812,-2.5052,-2.5429,-2.5754,-2.5833,-2.5885,-2.5936,-2.5953,-2.597,-2.6021,-2.6038,-2.6038,-2.6038,-2.6038,-2.6165,-2.6491,-2.6285,-2.608,-2.6354,-2.5583,-2.4727,-2.4367,-2.4025,-2.399,-2.4693,-2.4778,-2.4761,-2.4812,-2.4812,-2.4812,-2.4812,-2.4812,-2.4812,-2.4812,-2.4812,-2.4812,-2.4812,-2.4812,-2.4812,-2.4812,-2.4812,-2.4812,-2.4812,-2.4812,-2.4812,-2.4812,-2.4812,-2.4812,-2.4812,-2.4812,-2.4479,-2.3865,-2.2168,-2.0716,-3.3615,-3.3762,-3.3817,-3.3817,-3.3523,-3.323,-3.323,-3.1931,0.0,0.0,0.0,-2.8164,-2.7408,-2.81,0.0,-2.8871,0.0,0.0,0.0,0.0,-2.7331,0.0,0.0,0.0,0.0,0.0,0.0,0.0,-2.046,-2.0352,-2.0352,-2.0303,-1.9857,-1.8927,-1.8589,-1.8143,-1.7563,-1.8486,-1.9087,-1.9319,-2.0343,-2.143,-2.2692,-2.2918,-2.3552,-2.4479,-2.4701,-2.4812,-2.4812,-2.4812,-2.4812,-2.4812,-2.4812,-2.4812,-2.4812,-2.4812,-2.4812,-2.4812,-2.4812,-2.5052,-2.5434,-2.5446,-2.5686,-2.5936,-2.6302,-2.6388,-2.6456,-2.6782,-2.6884,-2.6884,-2.6884,-2.6884,-2.6884,-2.6953,-2.6679,-2.6319,-2.608,-2.5395,-2.4795,-2.4727,-2.4401,-2.4227,-2.4744,-2.4501,-2.4436,-2.4778,-2.4812,-2.4812,-2.4812,-2.4812,-2.4812,-2.4812,-2.4812,-2.4812,-2.4812,-2.4812,-2.4812,-2.4812,-2.4812,-2.4812,-2.4812,-2.4812,-2.4812,-2.4812,-2.4812,-2.4812,-2.4812,-2.4812,-2.4479,-2.3865,-2.1529,-2.043,-3.3762,-3.3817,-3.3817,-3.3817,-3.3358,-3.2845,-3.2643,0.0,0.0,0.0,0.0,-2.7099,-2.6559,-2.7261,0.0,0.0,0.0,0.0,0.0,0.0,0.0,0.0,0.0,0.0,0.0,0.0,0.0,-2.0735,-2.1765,-2.18,-2.0415,-2.0014,-1.9434,-1.8505,-1.836,-1.8324,-1.846,-1.9029,-1.9954,-2.1202,-2.1828,-2.2749,-2.396,-2.396,-2.4239,-2.4812,-2.4812,-2.4812,-2.4812,-2.4812,-2.4812,-2.4812,-2.4812,-2.4812,-2.4812,-2.4812,-2.4932,-2.5104,-2.5104,-2.5343,-2.5669,-2.5669,-2.5788,-2.5919,-2.6148,-2.6199,-2.6234,-2.6422,-2.6491,-2.6491,-2.6491,-2.6491,-2.6525,-2.673,-2.6782,-2.6679,-2.6302,-2.5788,-2.5338,-2.5338,-2.5086,-2.483,-2.4812,-2.483,-2.4761,-2.4538,-2.4693,-2.4812,-2.4812,-2.4812,-2.4812,-2.4812,-2.4812,-2.4812,-2.4812,-2.4812,-2.4812,-2.4812,-2.4812,-2.4812,-2.4812,-2.4812,-2.4812,-2.4812,-2.4812,-2.4812,-2.4812,-2.4479,-2.4033,-2.3344,-2.0902,-1.9639,-3.3798,-3.3817,-3.3817,-3.3817,-3.3193,-3.2496,-3.2093,-3.0428,0.0,0.0,0.0,-2.6165,-2.5874,-2.6439,-2.7073,0.0,0.0,0.0,0.0,0.0,0.0,0.0,0.0,0.0,0.0,0.0,0.0,-2.1691,-2.3306,-2.3189,-2.0704,-1.9837,-1.9176,-1.8668,-1.8704,-1.9035,-1.9666,-1.9954,-2.1088,-2.2974,-2.3271,-2.3904,-2.4812,-2.4812,-2.4812,-2.4812,-2.4812,-2.4812,-2.4812,-2.4812,-2.4812,-2.4812,-2.4812,-2.4812,-2.483,-2.4915,-2.5121,-2.5434,-2.5463,-2.5737,-2.6062,-2.6062,-2.5953,-2.5902,-2.597,-2.6062,-2.608,-2.6148,-2.6182,-2.6182,-2.6182,-2.6182,-2.6251,-2.6542,-2.685,-2.6987,-2.6679,-2.6388,-2.6148,-2.608,-2.5754,-2.5395,-2.5104,-2.5104,-2.4984,-2.4538,-2.4607,-2.4727,-2.4812,-2.4812,-2.4812,-2.4812,-2.4812,-2.4812,-2.4812,-2.4812,-2.4812,-2.4812,-2.4812,-2.4812,-2.4812,-2.4812,-2.4812,-2.4812,-2.4812,-2.4757,-2.459,-2.4144,-2.34,-2.2425,-2.0286,-1.89,-3.3725,-3.3817,-3.3817,-3.3817,-3.3193,-3.2496,-3.2093,0.0,0.0,0.0,-2.6423,-2.552,-2.5429,-2.6028,-2.6662,0.0,0.0,0.0,0.0,0.0,0.0,0.0,0.0,0.0,0.0,0.0,0.0,-2.4602,-2.4239,-2.3241,-2.1474,-1.9963,-1.9348,-1.9911,-1.9945,-2.0251,-2.0902,-2.2055,-2.2749,-2.303,-2.4128,-2.4701,-2.4812,-2.4812,-2.4812,-2.4812,-2.4812,-2.4812,-2.4812,-2.4812,-2.4812,-2.4812,-2.4812,-2.4812,-2.4864,-2.5189,-2.54,-2.5412,-2.5771,-2.6131,-2.6439,-2.6439,-2.6217,-2.5994,-2.6336,-2.6439,-2.6508,-2.6867,-2.697,-2.697,-2.697,-2.697,-2.6987,-2.7004,-2.7056,-2.7073,-2.7021,-2.7004,-2.6867,-2.6508,-2.6131,-2.5816,-2.5782,-2.4945,-2.4556,-2.5172,-2.471,-2.4419,-2.4778,-2.4812,-2.4812,-2.4812,-2.4812,-2.4812,-2.4812,-2.4812,-2.4812,-2.4812,-2.4812,-2.4812,-2.4812,-2.4812,-2.4812,-2.4812,-2.4812,-2.4535,-2.3977,-2.3921,-2.2877,-2.0916,-1.9811,-1.8551,-3.3413,-3.3633,-3.3762,-3.3523,-3.3028,-3.2368,-3.1469,0.0,-2.792,-2.728,-2.6022,-2.5035,-2.5035,-2.5463,-2.6011,0.0,-2.697,0.0,0.0,0.0,0.0,0.0,0.0,0.0,0.0,0.0,-2.6515,-2.689,-2.4902,-2.3667,-2.3658,-2.2272,-2.1424,-2.1286,-2.1318,-2.1612,-2.2225,-2.2749,-2.3384,-2.4072,-2.459,-2.4812,-2.4812,-2.4812,-2.4812,-2.4812,-2.4812,-2.4812,-2.4812,-2.4812,-2.4812,-2.4812,-2.4812,-2.4949,-2.5172,-2.5309,-2.5652,-2.6062,-2.6217,-2.6525,-2.6833,-2.6833,-2.6747,-2.6645,-2.6799,-2.6833,-2.6867,-2.7021,-2.7073,-2.7073,-2.7073,-2.7073,-2.7073,-2.7073,-2.7073,-2.7073,-2.7073,-2.7073,-2.7021,-2.6867,-2.673,-2.6473,-2.5953,-2.5737,-2.5532,-2.5395,-2.5121,-2.4967,-2.5138,-2.4949,-2.4812,-2.4812,-2.4812,-2.4812,-2.4812,-2.4812,-2.4812,-2.4812,-2.4812,-2.4812,-2.4812,-2.4812,-2.4812,-2.4812,-2.4812,-2.4479,-2.3921,-2.3528,-2.2724,-2.1517,-1.9652,-1.8435,-3.312,-3.3431,-3.3578,-3.3303,-3.2918,-3.2276,0.0,0.0,-2.7866,-2.7084,-2.5796,-2.4812,-2.4812,-2.5121,-2.5583,0.0,-2.6508,-2.7021,-2.8049,0.0,0.0,0.0,0.0,0.0,0.0,0.0,-2.7833,-2.8174,-2.6039,-2.4984,-2.5656,-2.4826,-2.3764,-2.2662,-2.2632,-2.2917,-2.3496,-2.3552,-2.396,-2.4812,-2.4812,-2.4812,-2.4812,-2.4812,-2.4812,-2.4812,-2.4812,-2.4812,-2.4812,-2.4812,-2.4812,-2.4812,-2.4812,-2.5052,-2.5378,-2.5497,-2.5943,-2.6508,-2.6628,-2.685,-2.7073,-2.7073,-2.7073,-2.7073,-2.7073,-2.7073,-2.7073,-2.7073,-2.7073,-2.7073,-2.7073,-2.7073,-2.7073,-2.7073,-2.7073,-2.7073,-2.7073,-2.7073,-2.7073,-2.7073,-2.7073,-2.6902,-2.6371,-2.6302,-2.6182,-2.5771,-2.5572,-2.5434,-2.5434,-2.5138,-2.4932,-2.483,-2.4812,-2.4812,-2.4812,-2.4812,-2.4812,-2.4812,-2.4812,-2.4812,-2.4812,-2.4812,-2.4812,-2.4812,-2.4812,-2.4423,-2.3641,-2.3191,-2.2328,-2.0945,-1.9203,-1.8098,-3.29,-3.323,-3.323,-3.323,-3.2918,-3.2276,0.0,-2.9426,-2.7866,-2.7084,-2.5796,-2.4812,-2.4812,-2.5121,-2.5497,-2.5816,-2.6576,-2.733,-2.8083,0.0,0.0,0.0,0.0,0.0,0.0,0.0,-2.8614,-2.822,-2.7826,0.0,-2.709,-2.7073,-2.6097,-2.3921,-2.3905,-2.4153,-2.4774,-2.4757,-2.4757,-2.4812,-2.4812,-2.4812,-2.4812,-2.4812,-2.4812,-2.4812,-2.4812,-2.4812,-2.4812,-2.4812,-2.4812,-2.4812,-2.4812,-2.5052,-2.5412,-2.5788,-2.6165,-2.6542,-2.6936,-2.7073,-2.7073,-2.7073,-2.7073,-2.7073,-2.7073,-2.7073,-2.7073,-2.7073,-2.7073,-2.7073,-2.7073,-2.7073,-2.7073,-2.7073,-2.7073,-2.7073,-2.7073,-2.7073,-2.7073,-2.7073,-2.7073,-2.7073,-2.7073,-2.6439,-2.6062,-2.6422,-2.584,-2.5434,-2.5434,-2.5417,-2.5223,-2.4864,-2.4812,-2.4812,-2.4812,-2.4812,-2.4812,-2.4812,-2.4812,-2.4812,-2.4812,-2.4812,-2.4812,-2.4812,-2.4812,-2.42,-2.3022,-2.3022,-2.1445,-1.8448,-1.8389,-1.7408,-3.1854,-3.2166,-3.2258,-3.1708,-3.1451,-3.1121,-3.0167,-2.8811,-2.7546,-2.7031,-2.5796,-2.4812,-2.4812,-2.4915,-2.5275,-2.6165,-2.6508,0.0,0.0,0.0,0.0,0.0,0.0,0.0,0.0,0.0,-2.8323,-2.8203,-2.7604,-2.7193,-2.7073,-2.6816,-2.6262,-2.5303,-2.5286,-2.5107,-2.4774,-2.4812,-2.4812,-2.4812,-2.4812,-2.4812,-2.483,-2.5086,-2.5052,-2.483,-2.5086,-2.5052,-2.4812,-2.4812,-2.4812,-2.4812,-2.4812,-2.5052,-2.5412,-2.5788,-2.6165,-2.6542,-2.6936,-2.7539,-2.808,-2.808,-2.848,-2.9016,-2.9016,-2.814,-2.7073,-2.7073,-2.7073,-2.7073,-2.7073,-2.7073,-2.7073,-2.7073,-2.7073,-2.7073,-2.7073,-2.7073,-2.7073,-2.7073,-2.7073,-2.7073,-2.7073,-2.6884,-2.6747,-2.6867,-2.6456,-2.6131,-2.6131,-2.5908,-2.572,-2.5543,-2.5343,-2.5086,-2.4847,-2.4812,-2.4812,-2.4812,-2.4812,-2.4812,-2.4812,-2.4812,-2.4812,-2.4812,-2.4812,-2.42,-2.3022,-2.3022,-2.1388,-1.8389,-1.7747,-1.6762,0.0,-3.1341,-3.1433,-3.0919,-3.0791,-3.0534,-2.9562,-2.8432,-2.7333,-2.68,-2.5691,-2.4812,-2.4812,-2.4932,-2.5258,-2.596,-2.6302,0.0,0.0,0.0,0.0,0.0,0.0,0.0,0.0,-2.8545,-2.8186,-2.8186,-2.7501,-2.7073,-2.7073,-2.6696,-2.6319,-2.5885,-2.5806,-2.5429,-2.483,-2.4812,-2.4812,-2.4812,-2.4812,-2.4898,-2.5035,-2.5121,-2.5121,-2.5035,-2.5121,-2.5035,0.0,-2.4812,-2.4812,-2.4812,-2.4812,-2.5052,-2.5469,-2.6191,-2.6673,-2.7116,-2.7878,-2.854,-2.9016,-2.9016,-2.9412,-2.9884,-2.9884,-2.8838,-2.7599,-2.7599,-2.7375,-2.7073,-2.7073,-2.7073,-2.7073,-2.7073,-2.7073,-2.7073,-2.7073,-2.7073,-2.7073,-2.7073,-2.7073,-2.7073,-2.7073,-2.7073,-2.7073,-2.7073,-2.6867,-2.6662,-2.6508,-2.6285,-2.6097,-2.5902,-2.572,-2.5497,-2.5258,-2.4984,-2.4812,-2.4812,-2.4812,-2.4812,-2.4812,-2.4812,-2.4812,-2.4812,-2.4812,-2.42,-2.3022,-2.1858,-2.03,-1.8389,-1.7056,-1.6183,0.0,-3.0589,-3.0607,-3.0589,-3.0571,-3.0277,-2.9159,-2.8161,0.0,-2.6462,-2.5517,-2.483,-2.4864,-2.5121,-2.536,-2.552,-2.6045,0.0,0.0,0.0,0.0,0.0,0.0,0.0,-2.8819,-2.8443,-2.8203,-2.8237,-2.7518,-2.709,-2.7107,-2.6696,-2.6285,-2.5885,-2.5549,-2.5172,-2.483,-2.4812,-2.4812,-2.4812,-2.4812,-2.5001,-2.5383,-2.5001,-2.5035,-2.5309,-2.5001,-2.4847,-2.4812,-2.4812,-2.4812,-2.4812,-2.4812,-2.5052,-2.5525,-2.6861,-2.7524,-2.8097,-2.9439,-2.9943,-3.0001,-3.006,-3.0119,-3.0119,-3.0119,-2.9353,-2.848,-2.848,-2.784,-2.7073,-2.7073,-2.7073,-2.7073,-2.7073,-2.7073,-2.7073,-2.7073,-2.7073,-2.7073,-2.7073,-2.7073,-2.7073,-2.7073,-2.7073,-2.7073,-2.7073,-2.7073,-2.6936,-2.6576,-2.6525,-2.6405,-2.6062,-2.5936,-2.5919,-2.5919,-2.5292,-2.4864,-2.4864,-2.483,-2.4812,-2.4812,-2.4812,-2.4812,-2.4812,-2.4718,-2.4144,-2.3006,-1.9954,-1.8448,-1.8331,-1.6526,-1.5661,-2.8355,0.0,-2.8883,-2.8553,-2.8538,-2.8407,0.0,-2.7443,0.0,0.0,0.0,-2.5159,-2.5245,-2.5086,-2.5326,-2.6491,-2.6576,0.0,0.0,0.0,0.0,0.0,0.0,0.0,-2.9179,-2.858,-2.8323,-2.8614,-2.7672,-2.7193,-2.7467,-2.6576,-2.6028,-2.5885,-2.5292,-2.4915,-2.4812,-2.4812,-2.4812,-2.4812,-2.4812,-2.4864,-2.4949,-2.5155,-2.5138,-2.4967,-2.5155,-2.5086,-2.4812,-2.4812,-2.4812,-2.4812,-2.4812,-2.5052,-2.5525,-2.6861,-2.7524,-2.8097,-2.9439,-3.0353,-3.1111,-3.1845,-3.2018,-3.2018,-3.2018,-3.0372,-2.848,-2.848,-2.784,-2.7073,-2.7073,-2.7073,-2.7073,-2.7073,-2.7073,-2.7073,-2.7073,-2.7073,-2.7073,-2.7073,-2.7073,-2.7073,-2.7073,-2.7073,-2.7073,-2.7073,-2.7073,-2.7039,-2.6953,-2.6936,-2.6902,-2.6816,-2.6542,-2.6354,-2.6354,-2.5669,-2.5241,-2.5241,-2.4984,-2.4812,-2.4812,-2.4812,-2.4812,-2.4812,-2.3921,-2.3287,-2.3006,-2.0601,-1.91,-1.8389,-1.7232,-1.6301,-2.716,-2.793,-2.8572,-2.815,-2.8187,-2.8223,0.0,0.0,0.0,0.0,0.0,0.0,-2.5125,0.0,0.0,0.0,-2.6559,0.0,0.0,0.0,0.0,0.0,0.0,-2.9316,0.0,-2.8802,-2.8477,-2.8511,-2.7775,-2.733,-2.7364,-2.6456,-2.5885,-2.5885,-2.515,-2.4812,-2.4812,-2.4984,-2.4984,-2.4812,-2.4984,-2.5172,-2.5326,-2.5189,-2.5189,-2.5326,-2.5189,-2.5001,-2.4812,-2.4812,-2.4812,-2.4812,-2.5238,-2.5632,-2.6243,-2.7977,-2.8842,-2.9373,-3.0741,-3.1536,-3.2018,-3.2555,-3.2669,-3.2669,-3.2669,-3.1305,-2.9707,-2.9235,-2.848,-2.7659,-2.7194,-2.7073,-2.7073,-2.7073,-2.7073,-2.7073,-2.7073,-2.7073,-2.7073,-2.7073,-2.7073,-2.7073,-2.7073,-2.7073,-2.7073,-2.7073,-2.7073,-2.7073,-2.7073,-2.7073,-2.7073,-2.7073,-2.6884,-2.6765,-2.6765,-2.6217,-2.5806,-2.5634,-2.5275,-2.5069,-2.5069,-2.4915,-2.4646,-2.4368,-2.3472,-2.2853,-2.257,-2.073,-1.9345,-1.8389,-1.7455,-1.6467,-2.6738,-2.7856,-2.8847,-2.826,-2.8425,-2.8517,0.0,0.0,0.0,0.0,0.0,0.0,0.0,0.0,0.0,0.0,0.0,0.0,0.0,0.0,0.0,0.0,0.0,0.0,-2.9316,-2.8991,-2.8648,-2.8306,-2.786,-2.7467,-2.7176,-2.6388,-2.5885,-2.5885,-2.5258,-2.4881,-2.4812,-2.5138,-2.5138,-2.483,-2.5138,-2.5429,-2.5594,-2.5086,-2.5138,-2.5594,-2.5069,-2.4812,-2.4812,-2.4812,-2.4868,-2.509,-2.5897,-2.659,-2.7326,-2.9436,-3.0429,-3.098,-3.224,-3.2669,-3.2669,-3.2669,-3.2669,-3.2669,-3.2669,-3.2133,-3.1285,-3.0177,-2.9235,-2.8301,-2.7375,-2.7073,-2.7073,-2.7073,-2.7073,-2.7073,-2.7073,-2.7073,-2.7073,-2.7073,-2.7073,-2.7073,-2.7073,-2.7073,-2.7073,-2.7073,-2.7073,-2.7073,-2.7073,-2.7073,-2.7073,-2.7073,-2.7073,-2.7073,-2.7073,-2.6765,-2.6439,-2.6073,-2.5703,-2.5429,-2.5378,-2.5018,-2.4535,-2.3921,-2.3304,-2.2683,-2.2116,-2.0673,-1.9519,-1.8564,-1.763,-1.6703,-2.7454,-2.826,-2.8645,-2.7215,-2.716,-2.7269,0.0,0.0,0.0,0.0,0.0,0.0,0.0,0.0,0.0,0.0,0.0,0.0,0.0,0.0,0.0,0.0,0.0,-2.9316,-2.9316,-2.8991,-2.8751,-2.87,-2.8015,-2.7586,-2.7535,-2.6525,-2.5885,-2.5885,-2.5515,-2.5138,-2.483,-2.4881,-2.4881,-2.4812,-2.4881,-2.4761,-2.4449,-2.4727,-2.471,-2.4449,-2.4727,-2.4812,-2.4812,-2.4812,-2.5238,-2.5953,-2.646,-2.7344,-2.8484,-3.0035,-3.0886,-3.1379,-3.2342,-3.2669,-3.2669,-3.2669,-3.2669,-3.2669,-3.2669,-3.2612,-3.2133,-3.0412,-2.9235,-2.8301,-2.7375,-2.7073,-2.7073,-2.7073,-2.7073,-2.7073,-2.7073,-2.7073,-2.7073,-2.7073,-2.7073,-2.7073,-2.7073,-2.7073,-2.7073,-2.7073,-2.7073,-2.7073,-2.7073,-2.7073,-2.7073,-2.7073,-2.7073,-2.7073,-2.7073,-2.7021,-2.6953,-2.6902,-2.6234,-2.5703,-2.5378,-2.5018,-2.4535,-2.3921,-2.3304,-2.2683,-2.2116,-2.1375,-2.0515,-1.9577,-1.8635,-1.7689,-2.7031,-2.771,-2.815,-2.7416,-2.7856,-2.8315,0.0,0.0,0.0,0.0,0.0,0.0,0.0,0.0,0.0,0.0,0.0,0.0,0.0,0.0,0.0,0.0,0.0,-2.9316,-2.9316,-2.8991,-2.87,-2.8477,-2.7929,-2.7518,-2.733,-2.6439,-2.6028,-2.6234,-2.5669,-2.5292,-2.5121,-2.5121,-2.5018,-2.4812,-2.5018,-2.5018,-2.4847,-2.4607,-2.4624,-2.483,-2.4607,-2.4624,-2.4812,-2.5293,-2.5896,-2.659,-2.7768,-2.8853,-2.9885,-3.1248,-3.1893,-3.2133,-3.2555,-3.2669,-3.2669,-3.2669,-3.2669,-3.2669,-3.2669,-3.2363,-3.1652,-3.0295,-2.9589,-2.8957,-2.7496,-2.7073,-2.7073,-2.7073,-2.7073,-2.7073,-2.7073,-2.7073,-2.7073,-2.7073,-2.7073,-2.7073,-2.7073,-2.7073,-2.7073,-2.7073,-2.7073,-2.7073,-2.7073,-2.7073,-2.7073,-2.7073,-2.7073,-2.7073,-2.7073,-2.7073,-2.6987,-2.6765,-2.6422,-2.5977,-2.5395,-2.5206,-2.4569,-2.3416,-2.3135,-2.257,-2.1603,-2.1318,-2.0744,-1.9751,-1.8868,-1.7923,-2.6958,-2.738,-2.784,-2.795,0.0,0.0,0.0,0.0,0.0,0.0,0.0,0.0,0.0,0.0,0.0,0.0,0.0,0.0,0.0,-2.9495,-2.9316,-2.9316,-2.9316,-2.9282,-2.9196,-2.8939,-2.858,-2.8083,-2.7775,-2.7415,-2.6953,-2.6388,-2.6165,-2.6354,-2.5806,-2.5463,-2.5434,-2.5434,-2.5189,-2.483,-2.5104,-2.5155,-2.4949,-2.4453,-2.4504,-2.4949,-2.4453,-2.4562,-2.5128,-2.5826,-2.6591,-2.753,-2.9023,-3.0203,-3.1305,-3.2297,-3.2669,-3.2669,-3.2669,-3.2669,-3.2669,-3.2669,-3.2752,-3.2871,-3.2871,-3.2241,-3.1407,-3.0483,-2.999,-2.9416,-2.7591,-2.7073,-2.7073,-2.7073,-2.7073,-2.7073,-2.7073,-2.7073,-2.7073,-2.7073,-2.7073,-2.7073,-2.7073,-2.7073,-2.7073,-2.7073,-2.7073,-2.7107,-2.7193,-2.7124,-2.7107,-2.7193,-2.7124,-2.7073,-2.7073,-2.7073,-2.6953,-2.6645,-2.6542,-2.6234,-2.5652,-2.5549,-2.4758,-2.319,-2.3213,-2.2554,-2.1203,-2.1364,-2.1003,-2.0111,-1.9057,-1.8143,-2.8058,-2.8022,-2.7914,-2.826,0.0,0.0,0.0,0.0,0.0,0.0,0.0,0.0,0.0,0.0,0.0,0.0,0.0,0.0,0.0,0.0,-2.9316,-2.9316,-2.9316,-2.9179,-2.8854,-2.8802,-2.846,-2.7706,-2.7621,-2.7295,-2.6576,-2.6473,-2.6302,-2.5936,-2.5867,-2.572,-2.5378,-2.5434,-2.5189,-2.4812,-2.4847,-2.4487,-2.3855,-2.4093,-2.4076,-2.3855,-2.4093,-2.4872,-2.6027,-2.6082,-2.7303,-2.9273,-2.9798,-3.1075,-3.2571,-3.2649,-3.2669,-3.2669,-3.2669,-3.2669,-3.2669,-3.2669,-3.2996,-3.3327,-3.3327,-3.291,-3.2213,-3.1283,-3.0365,-2.9215,-2.7548,-2.7073,-2.7073,-2.7073,-2.7073,-2.7073,-2.7073,-2.7073,-2.7073,-2.7073,-2.7073,-2.7073,-2.7073,-2.7073,-2.7073,-2.7073,-2.7073,-2.7193,-2.7518,-2.7278,-2.7193,-2.7535,-2.7278,-2.7073,-2.7073,-2.7073,-2.7073,-2.7039,-2.6696,-2.6456,-2.6405,-2.608,-2.5127,-2.3614,-2.38,-2.3018,-2.1203,-2.1818,-2.1744,-2.1046,-1.9728,-1.8978,-2.7196,-2.7884,-2.848,-2.8122,0.0,0.0,0.0,0.0,0.0,0.0,0.0,0.0,0.0,0.0,0.0,0.0,0.0,0.0,-3.0165,-2.9643,-2.9316,-2.9316,-2.9316,-2.9179,-2.8819,-2.8563,-2.8186,-2.7638,-2.7398,-2.7158,-2.6867,-2.6628,-2.6542,-2.6645,-2.6182,-2.5874,-2.572,-2.548,-2.5189,-2.4812,-2.4812,-2.4658,-2.4367,-2.4025,-2.4189,-2.4757,-2.4704,-2.536,-2.6563,-2.7682,-2.8816,-2.9948,-3.1228,-3.2133,-3.2669,-3.2669,-3.2669,-3.2669,-3.2669,-3.2669,-3.2768,-3.3037,-3.3244,-3.343,-3.3779,-3.2775,-3.1562,-3.1195,-2.9981,-2.8557,-2.7968,-2.7775,-2.7775,-2.7775,-2.7775,-2.7775,-2.7775,-2.7775,-2.7775,-2.7775,-2.7775,-2.7775,-2.7775,-2.7775,-2.7775,-2.7775,-2.7775,-2.7826,-2.7946,-2.7843,-2.7826,-2.7963,-2.7638,-2.7313,-2.709,-2.7073,-2.7073,-2.7073,-2.6936,-2.6747,-2.6491,-2.6354,-2.5512,-2.3906,-2.3355,-2.266,-2.1818,-2.1381,-2.1441,-2.1759,-2.0,-1.913,-2.7433,-2.842,-2.9421,0.0,0.0,0.0,0.0,0.0,0.0,0.0,0.0,0.0,0.0,0.0,0.0,0.0,0.0,-3.0378,-3.0378,-2.9774,-2.9316,-2.9316,-2.9213,-2.8991,-2.8631,-2.8237,-2.7843,-2.7467,-2.709,-2.6884,-2.6884,-2.6628,-2.6559,-2.6713,-2.6217,-2.5816,-2.5754,-2.5378,-2.5069,-2.4812,-2.4812,-2.4761,-2.4607,-2.4224,-2.4492,-2.5271,-2.535,-2.6091,-2.7449,-2.8829,-2.9919,-3.0853,-3.2189,-3.2669,-3.2669,-3.2669,-3.2669,-3.2669,-3.2669,-3.2669,-3.2809,-3.3244,-3.3472,-3.3738,-3.4194,-3.3032,-3.1531,-3.1531,-3.0095,-2.8545,-2.8545,-2.8374,-2.8186,-2.8186,-2.8186,-2.8186,-2.8186,-2.8186,-2.8186,-2.8186,-2.8186,-2.8186,-2.8186,-2.8186,-2.8186,-2.8186,-2.8186,-2.8237,-2.8357,-2.8271,-2.8186,-2.8186,-2.7843,-2.7501,-2.7261,-2.7141,-2.7073,-2.7073,-2.7073,-2.6953,-2.6679,-2.6483,-2.5701,-2.4213,-2.3082,-2.227,-2.1689,-2.1147,-2.1011,-2.1208,-2.0047,-1.9273,-2.9231,-2.9843,0.0,0.0,0.0,0.0,0.0,0.0,0.0,0.0,0.0,0.0,0.0,0.0,0.0,-3.1377,-3.0815,-3.0378,-3.0378,-2.9774,-2.9316,-2.9316,-2.8991,-2.8631,-2.8237,-2.7843,-2.745,-2.7107,-2.6713,-2.6491,-2.6491,-2.6491,-2.6319,-2.5885,-2.5885,-2.5754,-2.5378,-2.5001,-2.4812,-2.4812,-2.4812,-2.4607,-2.423,-2.4686,-2.4927,-2.4979,-2.5811,-2.7168,-2.8727,-2.9237,-3.0449,-3.2029,-3.2483,-3.2669,-3.2669,-3.2669,-3.2669,-3.2669,-3.2669,-3.2669,-3.2809,-3.3244,-3.3699,-3.4155,-3.4691,-3.3689,-3.2384,-3.2384,-3.0908,-2.9316,-2.9316,-2.8768,-2.8203,-2.8203,-2.8203,-2.8203,-2.8203,-2.8203,-2.8203,-2.8203,-2.8203,-2.8203,-2.8203,-2.8203,-2.8203,-2.8203,-2.8203,-2.834,-2.8734,-2.8443,-2.8203,-2.8203,-2.7843,-2.7621,-2.7604,-2.7278,-2.7073,-2.7073,-2.7073,-2.7073,-2.7073,-2.6449,-2.5598,-2.4595,-2.3286,-2.1906,-2.0591,-2.1251,-2.0739,-1.9132,-1.9814,-1.9359,-2.8144,0.0,0.0,0.0,0.0,0.0,0.0,0.0,0.0,0.0,0.0,0.0,0.0,0.0,0.0,-3.1377,-3.0815,-3.0378,-3.0378,-2.9774,-2.9316,-2.9316,-2.8991,-2.8631,-2.8237,-2.7843,-2.745,-2.7107,-2.697,-2.6782,-2.6508,-2.6491,-2.6319,-2.5885,-2.5686,-2.548,-2.5434,-2.5001,-2.509,-2.5716,-2.5716,-2.5645,-2.552,-2.5397,-2.5959,-2.711,-2.7389,-2.8349,-2.9709,-3.0792,-3.1702,-3.2483,-3.2685,-3.2669,-3.2669,-3.2669,-3.2669,-3.2669,-3.2669,-3.2934,-3.3265,-3.372,-3.4235,-3.4691,-3.5086,-3.3928,-3.2384,-3.2384,-3.0908,-2.9316,-2.9316,-2.9145,-2.8974,-2.8974,-2.8974,-2.8974,-2.8974,-2.8974,-2.8974,-2.8974,-2.8974,-2.8974,-2.8974,-2.8974,-2.8974,-2.8974,-2.8974,-2.9025,-2.9145,-2.9059,-2.8888,-2.8631,-2.8494,-2.8323,-2.8049,-2.7672,-2.745,-2.745,-2.721,-2.7073,-2.7073,-2.6449,-2.5729,-2.496,-2.2721,-2.1505,-2.1278,-2.0813,-2.0308,-1.9827,-2.0005,-1.9458,-2.9867,0.0,0.0,0.0,0.0,0.0,0.0,0.0,0.0,0.0,0.0,0.0,0.0,0.0,0.0,-3.1377,-3.0944,-3.0555,-3.0443,-2.9905,-2.943,-2.9316,-2.8854,-2.846,-2.822,-2.7706,-2.7313,-2.709,-2.6799,-2.6576,-2.6491,-2.6199,-2.5943,-2.572,-2.5497,-2.5292,-2.5155,-2.5055,-2.5285,-2.5811,-2.5953,-2.6328,-2.6852,-2.6608,-2.7022,-2.8053,-2.8778,-2.9676,-3.0636,-3.1836,-3.2421,-3.2669,-3.2669,-3.2669,-3.2669,-3.2669,-3.2669,-3.2669,-3.2669,-3.3016,-3.3451,-3.3986,-3.4443,-3.4777,-3.4779,-3.365,-3.232,-3.1873,-3.0584,-2.9316,-2.9316,-2.9316,-2.9316,-2.9316,-2.9316,-2.9316,-2.9316,-2.9316,-2.9316,-2.9316,-2.9316,-2.9316,-2.9316,-2.9316,-2.9316,-2.9316,-2.9316,-2.9316,-2.9316,-2.9316,-2.923,-2.9008,-2.8871,-2.8682,-2.8443,-2.8066,-2.7775,-2.7621,-2.7398,-2.7227,-2.7073,-2.6205,-2.5533,-2.5103,-2.2215,-2.0766,-2.0969,-1.9954,-1.924,-1.8856,-1.9304,-1.892,0.0,0.0,0.0,0.0,0.0,0.0,0.0,0.0,0.0,0.0,0.0,0.0,0.0,0.0,-3.1377,-3.1377,-3.112,-3.075,-3.0443,-3.0018,-2.9674,-2.933,-2.8631,-2.8186,-2.8152,-2.7501,-2.7073,-2.7073,-2.6405,-2.6114,-2.6422,-2.5754,-2.536,-2.5383,-2.5422,-2.5267,-2.4923,-2.5378,-2.5612,-2.5629,-2.6016,-2.6846,-2.8137,-2.8034,-2.8053,-2.8289,-2.9966,-3.0946,-3.1443,-3.2313,-3.2628,-3.2669,-3.2669,-3.2669,-3.2669,-3.2669,-3.2669,-3.2747,-3.2768,-3.3078,-3.3513,-3.4049,-3.4445,-3.4656,-3.4053,-3.3146,-3.2065,-3.1037,-3.0083,-2.9316,-2.9316,-2.9316,-2.9316,-2.9316,-2.9316,-2.9316,-2.9316,-2.9316,-2.9316,-2.9316,-2.9316,-2.9316,-2.9316,-2.9316,-2.9316,-2.9316,-2.9316,-2.9316,-2.9316,-2.9316,-2.9316,-2.9316,-2.9025,-2.8837,-2.8837,-2.8477,-2.81,-2.7723,-2.7672,-2.7501,-2.7141,-2.5811,-2.5103,-2.5103,-2.1839,-2.0081,-2.0081,-1.9048,-1.7958,-1.7001,-1.8022,-1.7958,0.0,0.0,0.0,0.0,0.0,0.0,0.0,0.0,0.0,0.0,0.0,0.0,0.0,0.0,-3.1377,-3.1377,-3.112,-3.075,-3.0443,-3.0018,-2.9587,-2.8987,-2.8477,-2.8066,-2.7758,-2.733,-2.7073,-2.7073,-2.6645,-2.6285,-2.6062,-2.5617,-2.5241,-2.4949,-2.5582,-2.5897,-2.5826,-2.6607,-2.7153,-2.746,-2.7519,-2.8089,-2.8983,-2.8293,-2.8597,-2.9609,-3.0376,-3.0946,-3.1422,-3.1961,-3.2339,-3.2669,-3.2669,-3.2669,-3.2669,-3.2669,-3.2669,-3.2731,-3.312,-3.3534,-3.4049,-3.4526,-3.4411,-3.4053,-3.3965,-3.2575,-3.1102,-3.0843,-3.0083,-2.9316,-2.9316,-2.9316,-2.9316,-2.9316,-2.9316,-2.9316,-2.9316,-2.9316,-2.9316,-2.9316,-2.9316,-2.9316,-2.9316,-2.9316,-2.9316,-2.9316,-2.9316,-2.9316,-2.9316,-2.9316,-2.9316,-2.9316,-2.9248,-2.9196,-2.9196,-2.8854,-2.8614,-2.8528,-2.8237,-2.7895,-2.7501,-2.5925,-2.5103,-2.5103,-2.1839,-2.0081,-2.0081,-1.9048,-1.7958,-1.7001,-1.8022,-1.7958,0.0,0.0,0.0,0.0,0.0,0.0,0.0,0.0,0.0,0.0,0.0,0.0,0.0,-3.1377,-3.1377,-3.1377,-3.1249,-3.0944,-3.0443,-3.023,-2.9765,-2.8884,-2.8426,-2.8032,-2.7638,-2.7278,-2.7004,-2.6799,-2.6439,-2.6062,-2.5686,-2.5687,-2.5652,-2.5404,-2.6263,-2.6735,-2.6735,-2.7146,-2.7565,-2.8014,-2.7753,-2.8145,-2.8929,-2.8951,-2.9329,-3.0036,-3.0719,-3.1153,-3.1422,-3.2106,-3.2463,-3.2669,-3.2669,-3.2669,-3.2669,-3.2669,-3.2669,-3.2789,-3.3223,-3.3738,-3.4075,-3.4044,-3.3999,-3.3733,-3.2702,-3.168,-3.0732,-3.0213,-2.9691,-2.9316,-2.9316,-2.9316,-2.9316,-2.9316,-2.9316,-2.9316,-2.9316,-2.9316,-2.9316,-2.9316,-2.9316,-2.9316,-2.9316,-2.9316,-2.9316,-2.9316,-2.9316,-2.9316,-2.9316,-2.9316,-2.9316,-2.9316,-2.9316,-2.9316,-2.9316,-2.9145,-2.8956,-2.8785,-2.8597,-2.8179,-2.7395,-2.6194,-2.5437,-2.5119,-2.1839,-2.0081,-2.0081,-1.8536,-1.7518,-1.7001,-1.7518,-1.7518,0.0,0.0,0.0,0.0,0.0,0.0,0.0,0.0,0.0,0.0,0.0,0.0,0.0,-3.1873,-3.1744,-3.1744,-3.1635,-3.1313,-3.0508,-3.0437,-3.0065,-2.8845,-2.8323,-2.7946,-2.7552,-2.7244,-2.6919,-2.6525,-2.6148,-2.5829,-2.5622,-2.5929,-2.6191,-2.63,-2.7168,-2.7599,-2.7599,-2.7695,-2.789,-2.8221,-2.7856,-2.8007,-2.8773,-2.9622,-2.9994,-3.0036,-3.0801,-3.1236,-3.1443,-3.2188,-3.2582,-3.2669,-3.2669,-3.2669,-3.2669,-3.2669,-3.2669,-3.2809,-3.3327,-3.38,-3.4036,-3.3515,-3.35,-3.3272,-3.1359,-3.0667,-3.0343,-2.9495,-2.9316,-2.9316,-2.9316,-2.9316,-2.9316,-2.9316,-2.9316,-2.9316,-2.9316,-2.9316,-2.9316,-2.9316,-2.9316,-2.9316,-2.9316,-2.9316,-2.9316,-2.9316,-2.9316,-2.9316,-2.9316,-2.9316,-2.9316,-2.9316,-2.9316,-2.9316,-2.9316,-2.9316,-2.9179,-2.8888,-2.8871,-2.8378,-2.7272,-2.6552,-2.5866,-2.5108,-2.2013,-2.045,-2.0335,-1.8279,-1.726,-1.726,-1.7066,-1.7001,0.0,0.0,0.0,0.0,0.0,0.0,0.0,0.0,0.0,0.0,0.0,0.0,-3.4881,-3.3945,-3.3126,-3.3126,-3.2657,-3.1846,-3.0573,-3.0637,-3.0131,-2.8495,-2.7929,-2.7535,-2.7176,-2.7107,-2.6919,-2.6525,-2.6148,-2.6059,-2.6507,-2.6261,-2.6463,-2.7222,-2.8101,-2.8528,-2.8528,-2.9274,-2.9487,-2.9137,-2.9074,-2.9083,-2.9228,-2.9766,-2.9994,-2.9994,-3.0118,-3.0636,-3.1381,-3.1505,-3.2023,-3.2669,-3.2669,-3.2669,-3.2669,-3.2669,-3.2669,-3.2851,-3.3679,-3.4069,-3.4097,-3.3875,-3.3233,-3.2384,-3.1166,-3.0213,-2.9447,-2.9316,-2.9316,-2.9316,-2.9316,-2.9316,-2.9316,-2.9316,-2.9316,-2.9316,-2.9316,-2.9316,-2.9316,-2.9316,-2.9316,-2.9316,-2.9316,-2.9316,-2.9316,-2.9316,-2.9316,-2.9316,-2.9316,-2.9316,-2.9316,-2.9316,-2.9316,-2.9316,-2.9316,-2.9316,-2.9299,-2.9248,-2.923,-2.8734,-2.7635,-2.6987,-2.6163,-2.5129,-2.2971,-2.1683,-2.1411,-1.9304,-1.8279,-1.8279,-1.7389,-1.7001,0.0,0.0,0.0,0.0,0.0,0.0,0.0,0.0,0.0,0.0,0.0,0.0,-3.5684,-3.4943,-3.4507,-3.4507,-3.3945,-3.3175,-3.2125,-3.1747,-3.1096,-2.9665,-2.8816,-2.8245,-2.7935,-2.7418,-2.6833,-2.6234,-2.6435,-2.6583,-2.6388,-2.7099,-2.7707,-2.8155,-2.8953,-2.9448,-2.9448,-2.9569,-2.9373,-2.8918,-2.9435,-2.9559,-2.9332,-2.9787,-2.9994,-3.0015,-3.0263,-3.076,-3.1402,-3.165,-3.2147,-3.2669,-3.2669,-3.2669,-3.2669,-3.2669,-3.2669,-3.2851,-3.3762,-3.4132,-3.3978,-3.3313,-3.2765,-3.2065,-3.0473,-2.9626,-2.9316,-2.9316,-2.9316,-2.9316,-2.9316,-2.9316,-2.9316,-2.9316,-2.947,-2.9641,-2.9641,-2.947,-2.9316,-2.9316,-2.9316,-2.9316,-2.9316,-2.9316,-2.9316,-2.9316,-2.9316,-2.9316,-2.9316,-2.9316,-2.9316,-2.9316,-2.9316,-2.9316,-2.9316,-2.9316,-2.9316,-2.9316,-2.9316,-2.8706,-2.749,-2.6534,-2.5652,-2.4824,-2.3012,-2.174,-2.1029,-1.9313,-1.8215,-1.7636,-1.7195,-1.7001,0.0,0.0,0.0,0.0,0.0,0.0,0.0,0.0,0.0,0.0,0.0,0.0,-3.6724,-3.5992,-3.5623,-3.5623,-3.4841,-3.3915,-3.3082,-3.2497,-3.1719,-3.0604,-2.9772,-2.9106,-2.8856,-2.8241,-2.7445,-2.6672,-2.7176,-2.7342,-2.6791,-2.7975,-2.8794,-2.9026,-2.9659,-2.9994,-2.9994,-2.9642,-2.9311,-2.898,-2.9663,-2.9808,-2.9497,-2.9829,-2.9994,-3.0015,-3.0367,-3.0843,-3.1402,-3.1733,-3.2153,-3.2669,-3.2669,-3.2669,-3.2669,-3.2669,-3.2669,-3.2851,-3.3762,-3.4132,-3.3918,-3.2792,-3.2384,-3.2001,-2.9952,-2.9316,-2.9316,-2.9316,-2.9316,-2.9316,-2.9316,-2.9316,-2.9333,-2.9436,-2.9676,-2.9915,-3.0018,-2.9795,-2.959,-2.959,-2.959,-2.959,-2.959,-2.9521,-2.9453,-2.9453,-2.9367,-2.9316,-2.9316,-2.9316,-2.9316,-2.9316,-2.9316,-2.9316,-2.9316,-2.9316,-2.9316,-2.9316,-2.9316,-2.8659,-2.7267,-2.6084,-2.5145,-2.4286,-2.2953,-2.1919,-2.1059,-1.9665,-1.8512,-1.7488,-1.7163,-1.7001,0.0,0.0,0.0,0.0,0.0,0.0,0.0,0.0,0.0,0.0,0.0,-3.9249,-3.9108,-3.7594,-3.638,-3.638,-3.4841,-3.3411,-3.2401,-3.2111,-3.1642,-3.0588,-3.0109,-2.9844,-2.9825,-2.9766,-2.9368,-2.854,-2.8484,-2.8552,-2.8568,-2.8635,-2.9079,-2.9889,-2.9994,-2.9994,-2.9994,-2.9973,-2.9953,-2.9932,-2.9973,-2.9973,-2.9953,-2.9973,-2.9994,-2.9994,-3.0015,-3.0553,-3.1381,-3.1402,-3.194,-3.2669,-3.2669,-3.2669,-3.2669,-3.2669,-3.2669,-3.2851,-3.3762,-3.4132,-3.3918,-3.2792,-3.2384,-3.2001,-2.9952,-2.9316,-2.9316,-2.9316,-2.9316,-2.9316,-2.9316,-2.9316,-2.9402,-2.9778,-2.9881,-2.9984,-3.0326,-3.0378,-3.0361,-3.0361,-3.0361,-3.0361,-3.0361,-3.0087,-2.9864,-2.9864,-2.9556,-2.9316,-2.9316,-2.9316,-2.9316,-2.9316,-2.9316,-2.9316,-2.9316,-2.9316,-2.9316,-2.9316,-2.9316,-2.8659,-2.7267,-2.6084,-2.4844,-2.3515,-2.3064,-2.2697,-2.2266,-2.1072,-1.989,-1.8792,-1.7564,-1.7001,0.0,0.0,0.0,0.0,0.0,0.0,0.0,0.0,0.0,0.0,0.0,-3.9308,-3.9308,-3.8395,-3.7616,-3.7616,-3.6118,-3.4752,-3.408,-3.3348,-3.2624,-3.1991,-3.1268,-3.082,-3.082,-3.0236,-2.9657,-2.9089,-2.9313,-2.9352,-2.9144,-2.9379,-2.9659,-2.9994,-2.9994,-2.9994,-2.9994,-2.9994,-2.9994,-2.9994,-2.9994,-2.9994,-2.9994,-2.9994,-2.9994,-2.9994,-2.9994,-3.0512,-3.1381,-3.1381,-3.1919,-3.2669,-3.2669,-3.2669,-3.2669,-3.2669,-3.2669,-3.2851,-3.3762,-3.4132,-3.3918,-3.2792,-3.2384,-3.2001,-2.9952,-2.9316,-2.9316,-2.9316,-2.9316,-2.9316,-2.9316,-2.9504,-2.9847,-3.0463,-3.0617,-3.072,-3.108,-3.0772,-3.0429,-3.0429,-3.0429,-3.0429,-3.0429,-3.0326,-3.0241,-3.0241,-3.0121,-3.0035,-3.0035,-3.0035,-2.9932,-2.971,-2.9693,-2.959,-2.9333,-2.9316,-2.9316,-2.9316,-2.9316,-2.8659,-2.7267,-2.5465,-2.4099,-2.3406,-2.1919,-2.0978,-2.0637,-2.0762,-1.9813,-1.7895,-1.7478,-1.7152,-3.1456,0.0,0.0,0.0,0.0,0.0,0.0,0.0,0.0,0.0,0.0,-3.9249,-3.9012,-3.8395,-3.7976,-3.7976,-3.6561,-3.5251,-3.4787,-3.3951,-3.3223,-3.2789,-3.2133,-3.1767,-3.1767,-3.1189,-3.0644,-3.0234,-3.031,-3.0258,-2.987,-2.9925,-2.9994,-2.9994,-2.9994,-2.9994,-2.9994,-2.9994,-2.9994,-2.9994,-2.9994,-2.9994,-2.9994,-2.9994,-2.9994,-2.9994,-2.9994,-3.0512,-3.1381,-3.1381,-3.1919,-3.2669,-3.2669,-3.2669,-3.2669,-3.2669,-3.2669,-3.2851,-3.3762,-3.3873,-3.3417,-3.2667,-3.2192,-3.1552,-2.9822,-2.9316,-2.9316,-2.9316,-2.9316,-2.9333,-2.947,-2.9881,-3.0395,-3.0891,-3.1114,-3.1268,-3.1508,-3.1165,-3.0806,-3.0806,-3.0806,-3.0806,-3.0806,-3.0703,-3.0617,-3.0617,-3.0515,-3.0429,-3.0429,-3.0429,-3.0343,-3.0104,-3.0069,-2.9915,-2.9539,-2.9504,-2.9453,-2.9316,-2.9316,-2.8659,-2.7267,-2.5061,-2.3556,-2.2846,-2.1057,-1.9796,-1.929,-2.011,-1.9492,-1.7615,-1.7453,-1.7292,0.0,0.0,0.0,0.0,0.0,0.0,0.0,0.0,0.0,0.0,0.0,-3.9003,-3.8395,-3.7796,-3.7374,-3.7374,-3.5897,-3.465,-3.4194,-3.3679,-3.3223,-3.2789,-3.2669,-3.2669,-3.2669,-3.2669,-3.2483,-3.2029,-3.165,-3.1195,-3.0739,-3.0243,-2.9994,-2.9994,-2.9994,-2.9994,-2.9994,-2.9994,-2.9994,-2.9994,-2.9994,-2.9994,-2.9994,-2.9994,-2.9994,-2.9994,-3.0015,-3.0532,-3.1381,-3.1381,-3.1919,-3.2669,-3.2669,-3.2669,-3.2669,-3.2669,-3.2669,-3.2851,-3.3762,-3.3395,-3.2489,-3.2352,-3.168,-3.0602,-2.9626,-2.9316,-2.9316,-2.9316,-2.9316,-2.9402,-2.9813,-3.0463,-3.1028,-3.1028,-3.1302,-3.163,-3.163,-3.163,-3.163,-3.163,-3.163,-3.163,-3.163,-3.1268,-3.1028,-3.1028,-3.0703,-3.0463,-3.0463,-3.0463,-3.0463,-3.0446,-3.0446,-3.0309,-2.995,-2.9898,-2.9744,-2.935,-2.9316,-2.8659,-2.7267,-2.5061,-2.3202,-2.1721,-2.0629,-1.9541,-1.8433,-1.929,-1.9175,-1.8078,-1.7615,-1.7389,-3.0216,0.0,0.0,0.0,0.0,0.0,0.0,0.0,0.0,0.0,0.0,-3.7116,-3.7537,-3.7132,-3.6667,-3.6667,-3.5594,-3.465,-3.4194,-3.3679,-3.3223,-3.2789,-3.2669,-3.2669,-3.2669,-3.2669,-3.2628,0.0,-3.2106,-3.165,-3.1215,-3.0429,-2.9994,-2.9994,-2.9994,-2.9994,-2.9994,-2.9994,-2.9994,-2.9994,-2.9994,-2.9994,-2.9994,-2.9994,-2.9994,-3.0015,-3.0346,-3.0822,-3.1381,-3.1381,-3.1919,-3.2669,-3.2669,-3.2669,-3.2669,-3.2669,-3.2669,-3.2736,-3.2912,-3.2714,-3.2368,-3.1548,-3.1037,-3.0602,-2.9626,-2.9316,-2.9316,-2.9316,-2.9316,-2.9453,-3.0104,-3.0652,-3.108,-3.1354,-3.1491,-3.163,-3.163,-3.163,-3.163,-3.163,-3.163,-3.163,-3.163,-3.1474,-3.1422,-3.1422,-3.1319,-3.1251,-3.1251,-3.1251,-3.1148,-3.0891,-3.0857,-3.0703,-3.0309,-3.0052,-2.9847,-2.9744,-2.9008,-2.813,-2.7267,-2.4588,-2.2669,-2.1721,-1.9808,-1.8714,-1.8433,-1.9461,-1.9347,-1.8089,-1.7776,-1.7626,0.0,0.0,0.0,0.0,0.0,0.0,0.0,-3.4486,0.0,0.0,0.0,-3.6104,-3.6372,-3.6067,-3.577,-3.5739,-3.5246,-3.465,-3.4194,-3.3844,-3.343,-3.2809,-3.2669,-3.2669,-3.2669,-3.2669,-3.2669,-3.2669,-3.2256,-3.1754,-3.1133,-3.0387,-2.9994,-2.9994,-2.9994,-2.9994,-2.9994,-2.9994,-2.9994,-2.9994,-2.9994,-2.9994,-2.9994,-2.9994,-2.9994,-3.0015,-3.0491,-3.0946,-3.1381,-3.1567,-3.2085,-3.2669,-3.2669,-3.2669,-3.2669,-3.2669,-3.242,-3.214,-3.2416,-3.1988,-3.1266,-3.0911,-3.0538,-3.0083,-2.9513,-2.9316,-2.9316,-2.9316,-2.9539,-2.9881,-3.0309,-3.084,-3.1302,-3.1508,-3.163,-3.163,-3.163,-3.163,-3.163,-3.163,-3.163,-3.163,-3.163,-3.163,-3.163,-3.163,-3.163,-3.163,-3.163,-3.163,-3.1491,-3.1268,-3.1251,-3.1097,-3.0703,-3.048,-3.0241,-2.9915,-2.901,-2.8145,-2.7216,-2.4399,-2.2477,-2.1721,-1.9529,-1.8433,-1.8433,-1.9052,-1.893,-1.8089,-1.7949,-1.7873,0.0,0.0,0.0,0.0,0.0,0.0,-3.4176,-3.4039,-3.379,0.0,0.0,0.0,-3.4657,-3.4625,-3.4597,-3.444,-3.4567,-3.4546,-3.4173,-3.4132,-3.3741,-3.283,-3.2669,-3.2669,-3.2669,-3.2669,-3.2669,-3.2669,-3.2194,-3.1609,-3.0801,-3.0284,-2.9994,-2.9994,-2.9994,-2.9994,-2.9994,-2.9994,-2.9994,-2.9994,-2.9994,-2.9994,-2.9994,-2.9994,-2.9994,-3.0036,-3.0532,-3.0988,-3.1422,-3.1919,-3.2297,-3.2669,-3.2669,-3.2669,-3.2669,-3.2555,-3.2038,-3.1425,-3.2016,-3.1091,-2.9789,-3.0416,-3.0018,-2.9316,-2.9316,-2.9316,-2.9316,-2.9367,-2.9881,-3.0446,-3.048,-3.1028,-3.163,-3.163,-3.163,-3.163,-3.163,-3.163,-3.163,-3.163,-3.163,-3.163,-3.163,-3.163,-3.163,-3.163,-3.163,-3.163,-3.163,-3.163,-3.163,-3.163,-3.163,-3.1439,-3.1114,-3.1046,-3.0669,-2.9935,-2.911,-2.824,-2.7197,-2.4278,-2.234,-2.1721,-1.9529,-1.8433,-1.8433,-1.8433,-1.8326,-1.8132,-1.8132,-1.8132,0.0,-3.0537,-3.072,-3.0235,-3.0523,0.0,-3.07,-3.0444,-3.0553,0.0,0.0,0.0,-3.1968,-3.2357,-3.2467,-3.2141,-3.2934,-3.3741,-3.409,-3.4132,-3.3741,-3.283,-3.2669,-3.2669,-3.2669,-3.2669,-3.2669,-3.2669,-3.1981,-3.1422,-3.1257,-3.045,-2.9994,-2.9994,-2.9994,-2.9994,-2.9994,-2.9994,-2.9994,-2.9994,-2.9994,-2.9994,-2.9994,-2.9994,-2.9994,-3.0036,-3.0884,-3.1298,-3.1443,-3.225,-3.2587,-3.2669,-3.2669,-3.2669,-3.2612,-3.1825,-3.1639,-3.1604,-3.0536,-3.0119,-3.004,-2.9683,-2.943,-2.9316,-2.9316,-2.9316,-2.9384,-2.9693,-3.0087,-3.0498,-3.0823,-3.1234,-3.163,-3.163,-3.163,-3.163,-3.163,-3.163,-3.163,-3.163,-3.163,-3.163,-3.163,-3.163,-3.163,-3.163,-3.163,-3.163,-3.163,-3.163,-3.163,-3.163,-3.163,-3.1542,-3.1456,-3.1183,-3.0683,-2.9976,-2.8627,-2.7526,-2.6731,-2.3639,-2.1859,-2.1721,-1.9529,-1.8433,-1.8433,-1.8433,-1.8412,-1.8369,-1.8369,-1.8369,-3.0034,-3.0056,-3.0098,-2.9564,-2.9623,0.0,0.0,-2.9575,-2.9578,-3.0263,-3.0202,-3.0161,0.0,0.0,-3.1091,-3.134,-3.2126,-3.2789,-3.3016,-3.3451,-3.3472,-3.2809,-3.2669,-3.2669,-3.2669,-3.2669,-3.2669,-3.2669,-3.1878,-3.1381,-3.1381,-3.0491,-2.9994,-2.9994,-2.9994,-2.9994,-2.9994,-2.9994,-2.9994,-2.9994,-2.9994,-2.9994,-2.9994,-2.9994,-3.0118,-3.0387,-3.1071,-3.1505,-3.1754,-3.2437,-3.2669,-3.2669,-3.2669,-3.242,-3.194,-3.1459,-3.0917,-3.0404,-2.9836,-2.9564,-2.9462,-2.9327,-2.9316,-2.9316,-2.9316,-2.9316,-2.9384,-2.9778,-3.0155,-3.0515,-3.0909,-3.1285,-3.163,-3.163,-3.163,-3.163,-3.163,-3.163,-3.163,-3.163,-3.163,-3.163,-3.163,-3.163,-3.163,-3.163,-3.163,-3.163,-3.163,-3.163,-3.163,-3.163,-3.163,-3.163,-3.163,-3.1388,-3.092,-2.9967,-2.8841,-2.773,-2.6634,-2.3597,-2.1319,-2.0086,-1.8982,-1.8433,-1.8433,-1.8433,-1.8433,-1.8433,-1.8433,-1.8433,-3.0073,-2.9911,-2.9949,-2.9375,-2.9167,-2.9154,0.0,0.0,0.0,-2.9434,-2.9477,0.0,0.0,0.0,0.0,0.0,0.0,0.0,0.0,-3.2209,0.0,-3.2499,-3.2623,-3.2628,-3.2545,-3.252,-3.254,-3.2669,-3.1816,-3.1278,-3.1381,-3.0594,-3.0098,-2.9994,-2.9994,-2.9994,-2.9994,-2.9994,-2.9994,-2.9994,-2.9994,-2.9994,-2.9994,-3.0098,-3.0325,-3.0719,-3.1257,-3.1712,-3.2029,-3.2483,-3.2669,-3.2669,-3.2498,-3.194,-3.1285,-3.0878,-3.0087,-2.9115,-2.9297,-2.9112,-2.8922,-2.9213,-2.9316,-2.9316,-2.9316,-2.9316,-2.9402,-2.9864,-3.0206,-3.0532,-3.0994,-3.1337,-3.163,-3.163,-3.163,-3.163,-3.163,-3.163,-3.163,-3.163,-3.163,-3.163,-3.163,-3.163,-3.163,-3.163,-3.163,-3.163,-3.163,-3.163,-3.163,-3.163,-3.163,-3.163,-3.163,-3.1347,-3.0647,-2.9504,-2.8578,-2.7366,-2.5918,-2.3257,-2.0766,-1.8444,-1.8433,-1.8433,-1.8433,-1.8433,-1.8433,-1.8433,-1.8433,-1.8433,-3.1173,-3.1408,-3.1517,-2.9338,-2.9693,-3.0032,-2.8063,0.0,-2.7973,-2.7683,0.0,0.0,0.0,0.0,0.0,0.0,0.0,0.0,-2.9622,-3.0056,-3.0677,-3.1443,-3.223,-3.2504,-3.2112,-3.1754,-3.1857,-3.2607,-3.1505,-3.0946,-3.136,-3.0884,-3.0429,-3.0015,-2.9994,-2.9994,-2.9994,-2.9994,-2.9994,-2.9994,-2.9994,-2.9994,-3.0015,-3.0429,-3.0636,-3.0739,-3.1588,-3.1946,-3.2029,-3.2483,-3.2669,-3.2612,-3.1767,-3.1401,-3.1111,-2.9412,-2.9131,-2.9413,-2.8609,-2.8776,-2.9265,-2.9299,-2.9316,-2.9316,-2.9316,-2.9316,-2.9453,-3.0172,-3.0395,-3.06,-3.1319,-3.1542,-3.163,-3.163,-3.163,-3.163,-3.163,-3.163,-3.163,-3.163,-3.163,-3.163,-3.163,-3.163,-3.163,-3.163,-3.163,-3.163,-3.163,-3.163,-3.163,-3.163,-3.163,-3.163,-3.163,-3.025,-2.9003,-2.7822,-2.6157,-2.4607,-2.3398,-2.1567,-1.9933,-1.8444,-1.8433,-1.8433,-1.8433,-1.8433,-1.8433,-1.8433,-1.8433,-1.8433,-3.1311,-3.1479,-3.1595,-2.9612,-2.96,-2.96,-2.8029,-2.7593,-2.7489,-2.7351,0.0,0.0,0.0,0.0,0.0,0.0,-2.8359,0.0,0.0,0.0,-3.0243,0.0,0.0,0.0,-3.1629,-3.1485,-3.165,-3.2215,-3.1319,-3.0884,-3.136,-3.0946,-3.0594,-3.0408,-3.0139,-2.9994,-2.9994,-2.9994,-2.9994,-2.9994,-2.9994,-2.9994,-3.0015,-3.047,-3.0822,-3.1133,-3.1774,-3.2132,-3.2401,-3.2587,-3.2669,-3.2555,-3.1053,-3.047,-3.0412,-2.9589,-2.9107,-2.8752,-2.8312,-2.8682,-2.9316,-2.9316,-2.9316,-2.9316,-2.9316,-2.9316,-2.947,-3.0224,-3.0429,-3.06,-3.1371,-3.163,-3.163,-3.163,-3.163,-3.163,-3.163,-3.163,-3.163,-3.163,-3.163,-3.163,-3.163,-3.163,-3.163,-3.163,-3.163,-3.163,-3.163,-3.163,-3.163,-3.163,-3.163,-3.163,-3.163,-3.0107,-2.8732,-2.7578,-2.5101,-2.3049,-2.1812,-2.0888,-1.9804,-1.8444,-1.8433,-1.8433,-1.8433,-1.8433,-1.8433,-1.8433,-1.8433,-1.8433,-3.1716,-3.1887,-3.1906,-2.9913,-2.9537,-2.9353,-2.8049,-2.7676,-2.7593,-2.7469,-2.7683,0.0,0.0,0.0,0.0,0.0,0.0,-2.8421,0.0,-2.8897,0.0,0.0,0.0,0.0,0.0,-3.1029,-3.1112,-3.1795,-3.0884,-3.0615,-3.134,-3.105,-3.0822,-3.0698,-3.0367,-3.0118,-2.9994,-2.9994,-2.9994,-2.9994,-2.9994,-3.0056,-3.0201,-3.0677,-3.1133,-3.1588,-3.2043,-3.2359,-3.2669,-3.2669,-3.2555,-3.219,-3.082,-2.9943,-2.9471,-2.9235,-2.8742,-2.8186,-2.8186,-2.8682,-2.9316,-2.9316,-2.9316,-2.9316,-2.9316,-2.9384,-2.9607,-3.0241,-3.0515,-3.0737,-3.1388,-3.163,-3.163,-3.163,-3.163,-3.163,-3.163,-3.163,-3.163,-3.163,-3.163,-3.163,-3.163,-3.163,-3.163,-3.163,-3.163,-3.163,-3.163,-3.163,-3.163,-3.163,-3.163,-3.163,-3.163,-2.9663,-2.7635,-2.567,-2.3356,-2.1592,-2.0531,-2.0218,-1.9551,-1.853,-1.8466,-1.8433,-1.8433,-1.8433,-1.8433,-1.8433,-1.8433,-1.8433,-3.2909,-3.3093,-3.3146,-3.012,-2.9742,-2.96,-2.7717,-2.7945,-2.8442,-2.7986,-2.8607,-2.9104,-2.8649,-2.8566,0.0,0.0,0.0,0.0,0.0,0.0,0.0,0.0,0.0,0.0,0.0,-3.016,-2.9932,-3.1298,-3.0118,-2.9953,-3.1298,-3.136,-3.1153,-3.0698,-3.0677,-3.045,-2.9994,-2.9994,-2.9994,-2.9994,-2.9994,-3.0222,-3.0677,-3.1153,-3.1609,-3.1988,-3.2442,-3.2669,-3.2669,-3.2669,-3.219,-3.1343,-3.1285,-3.0119,-2.8421,-2.7539,-2.7614,-2.8186,-2.8186,-2.8682,-2.9316,-2.9316,-2.9316,-2.9316,-2.9316,-2.9573,-2.995,-3.0326,-3.0703,-3.108,-3.1456,-3.163,-3.163,-3.163,-3.163,-3.163,-3.163,-3.163,-3.163,-3.163,-3.163,-3.163,-3.163,-3.163,-3.163,-3.163,-3.163,-3.163,-3.163,-3.163,-3.163,-3.163,-3.163,-3.163,-3.163,-2.8429,-2.4777,-2.0962,-2.0285,-1.9875,-1.9573,-1.9262,-1.9025,-1.8778,-1.8552,-1.8433,-1.8433,-1.8433,-1.8433,-1.8433,-1.8433,-1.8433,-3.421,-3.4163,-3.3799,-3.1491,-3.0751,-3.0088,-2.8154,-2.8173,-2.8483,-2.8028,-2.8669,-2.9166,-2.8711,-2.8607,0.0,0.0,0.0,0.0,0.0,0.0,0.0,0.0,0.0,0.0,0.0,0.0,-2.9953,-3.0429,-3.0036,-3.0098,-3.0884,-3.1215,-3.1298,-3.1153,-3.1153,-3.0926,-3.047,-3.076,-3.076,-3.045,-3.076,-3.0988,-3.1153,-3.1609,-3.1899,-3.2008,-3.2483,-3.2669,-3.2669,-3.2018,-3.1594,-3.1169,-2.9943,-2.9057,-2.8517,-2.8364,-2.8315,-2.8271,-2.8768,-2.9093,-2.9316,-2.9316,-2.9316,-2.9316,-2.9316,-2.959,-2.9967,-3.0326,-3.072,-3.1097,-3.1474,-3.163,-3.163,-3.163,-3.163,-3.163,-3.163,-3.163,-3.163,-3.163,-3.163,-3.163,-3.163,-3.163,-3.163,-3.163,-3.163,-3.163,-3.163,-3.163,-3.163,-3.163,-3.163,-3.163,-3.163,-2.8125,-2.4335,-2.0737,-2.0145,-1.9747,-1.951,-1.9424,-1.9187,-1.8789,-1.8702,-1.8584,-1.8433,-1.8433,-1.8433,-1.8433,-1.8433,-1.8433,-3.49,-3.4706,-3.4164,-3.2383,-3.1508,-3.0639,-2.879,-2.8897,-2.9208,-2.8752,-2.927,-2.9766,-2.9622,-2.9187,0.0,0.0,0.0,0.0,0.0,-2.7309,0.0,0.0,0.0,0.0,0.0,0.0,-2.9456,-2.9953,-2.9684,0.0,0.0,-3.1133,-3.1381,-3.1381,-3.1526,-3.1402,-3.0946,-3.1236,-3.1236,-3.0946,-3.1236,-3.1464,-3.1629,-3.1899,-3.207,-3.2256,-3.2545,-3.2498,-3.219,-3.1536,-3.0937,-3.0177,-2.8938,-2.8391,-2.8232,-2.8437,-2.8445,-2.8494,-2.9093,-2.9316,-2.9316,-2.9316,-2.9316,-2.9316,-2.9316,-2.9676,-3.0138,-3.0361,-3.0806,-3.1268,-3.1508,-3.163,-3.163,-3.163,-3.163,-3.163,-3.163,-3.163,-3.163,-3.163,-3.163,-3.163,-3.163,-3.163,-3.163,-3.163,-3.163,-3.163,-3.163,-3.163,-3.163,-3.163,-3.163,-3.1047,-2.9592,-2.7171,-2.4174,-2.0511,-2.007,-1.9854,-1.9628,-1.9542,-1.9348,-1.9047,-1.8961,-1.8799,-1.8562,-1.8562,-1.8519,-1.8433,-1.8433,-1.8433]}]]